[[{"header":{"parameterUnit":"m.s-1","parameterCategory":1,"la1":30.6,"la2":28.766,"lo1":-90.7593,"lo2":-88.6598,"dx":0.0162,"dy":0.0183,"nx":116,"ny":114,"refTime":"2022-12-07T06:00:00:Z","depth":0,"parameterNumber":2,"parameterNumberName":"U-component_of_WINDS"},"data":[0.0,0.0,0.0,0.0,0.0,0.0,0.0,0.0,0.0,0.0,0.0,0.0,0.0,0.0,0.0,0.0,0.0,0.0,0.0,0.0,0.0,0.0,0.0,0.0,0.0,0.0,0.0,0.0,0.0,0.0,0.0,0.0,0.0,0.0,0.0,0.0,0.0,0.0,0.0,0.0,0.0,0.0,0.0,0.0,0.0,0.0,0.0,0.0,0.0,0.0,0.0,0.0,0.0,0.0,0.0,0.0,0.0,0.0,0.0,0.0,0.0,0.0,0.0,0.0,0.0,0.0,0.0,0.0,0.0,0.0,0.0,0.0,0.0,0.0,0.0,0.0,0.0,0.0,0.0,0.0,0.0,0.0,0.0,0.0,0.0,0.0,0.0,0.0,0.0,0.0,0.0,0.0,0.0,0.0,0.0,0.0,0.0,0.0,0.0,0.0,0.0,0.0,0.0,0.0,0.0,0.0,0.0,0.0,0.0,0.0,0.0,0.0,0.0,0.0,0.0,0.0,0.0,0.0,0.0,0.0,0.0,0.0,0.0,0.0,0.0,0.0,0.0,0.0,0.0,0.0,0.0,0.0,0.0,0.0,0.0,0.0,0.0,0.0,0.0,0.0,0.0,0.0,0.0,0.0,0.0,0.0,0.0,0.0,0.0,0.0,0.0,0.0,0.0,0.0,0.0,0.0,0.0,0.0,0.0,0.0,0.0,0.0,0.0,0.0,0.0,0.0,0.0,0.0,0.0,0.0,0.0,0.0,0.0,0.0,0.0,0.0,0.0,0.0,0.0,0.0,0.0,0.0,0.0,0.0,0.0,0.0,0.0,0.0,0.0,0.0,0.0,0.0,0.0,0.0,0.0,0.0,0.0,0.0,0.0,0.0,0.0,0.0,0.0,0.0,0.0,0.0,0.0,0.0,0.0,0.0,0.0,0.0,0.0,0.0,0.0,0.0,0.0,0.0,0.0,0.0,0.0,0.0,0.0,0.0,0.0,0.0,0.0,0.0,0.0,0.0,0.0,0.0,0.0,0.0,0.0,0.0,0.0,0.0,0.0,0.0,0.0,0.0,0.0,0.0,0.0,0.0,0.0,0.0,0.0,0.0,0.0,0.0,0.0,0.0,0.0,0.0,0.0,0.0,0.0,0.0,0.0,0.0,0.0,0.0,0.0,0.0,0.0,0.0,0.0,0.0,0.0,0.0,0.0,0.0,0.0,0.0,0.0,0.0,0.0,0.0,0.0,0.0,0.0,0.0,0.0,0.0,0.0,0.0,0.0,0.0,0.0,0.0,0.0,0.0,0.0,0.0,0.0,0.0,0.0,0.0,0.0,0.0,0.0,0.0,0.0,0.0,0.0,0.0,0.0,0.0,0.0,0.0,0.0,0.0,0.0,0.0,0.0,0.0,0.0,0.0,0.0,0.0,0.0,0.0,0.0,0.0,0.0,0.0,0.0,0.0,0.0,0.0,0.0,0.0,0.0,0.0,0.0,0.0,0.0,0.0,0.0,0.0,0.0,0.0,0.0,0.0,0.0,0.0,0.0,0.0,0.0,0.0,0.0,0.0,0.0,0.0,0.0,0.0,0.0,0.0,0.0,0.0,0.0,0.0,0.0,0.0,0.0,0.0,0.0,0.0,0.0,0.0,0.0,0.0,0.0,0.0,0.0,0.0,0.0,0.0,0.0,0.0,0.0,0.0,0.0,0.0,0.0,0.0,0.0,0.0,0.0,0.0,0.0,0.0,0.0,0.0,0.0,0.0,0.0,0.0,0.0,0.0,0.0,0.0,0.0,0.0,0.0,0.0,0.0,0.0,0.0,0.0,0.0,0.0,0.0,0.0,0.0,0.0,0.0,0.0,0.0,0.0,0.0,0.0,0.0,0.0,0.0,0.0,0.0,0.0,0.0,0.0,0.0,0.0,0.0,0.0,0.0,0.0,0.0,0.0,0.0,0.0,0.0,0.0,0.0,0.0,0.0,0.0,0.0,0.0,0.0,0.0,0.0,0.0,0.0,0.0,0.0,0.0,0.0,0.0,0.0,0.0,0.0,0.0,0.0,0.0,0.0,0.0,0.0,0.0,0.0,0.0,0.0,0.0,0.0,0.0,0.0,0.0,0.0,0.0,0.0,0.0,0.0,0.0,0.0,0.0,0.0,0.0,0.0,0.0,0.0,0.0,0.0,0.0,0.0,0.0,0.0,0.0,0.0,0.0,0.0,0.0,0.0,0.0,0.0,0.0,0.0,0.0,0.0,0.0,0.0,0.0,0.0,0.0,0.0,0.0,0.0,0.0,0.0,0.0,0.0,0.0,0.0,0.0,0.0,0.0,0.0,0.0,0.0,0.0,0.0,0.0,0.0,0.0,0.0,0.0,0.0,0.0,0.0,0.0,0.0,0.0,0.0,0.0,0.0,0.0,0.0,0.0,0.0,0.0,0.0,0.0,0.0,0.0,0.0,0.0,0.0,0.0,0.0,0.0,0.0,0.0,0.0,0.0,0.0,0.0,0.0,0.0,0.0,0.0,0.0,0.0,0.0,0.0,0.0,0.0,0.0,0.0,0.0,0.0,0.0,0.0,0.0,0.0,0.0,0.0,0.0,0.0,0.0,0.0,0.0,0.0,0.0,0.0,0.0,0.0,0.0,0.0,0.0,0.0,0.0,0.0,0.0,0.0,0.0,0.0,0.0,0.0,0.0,0.0,0.0,0.0,0.0,0.0,0.0,0.0,0.0,0.0,0.0,0.0,0.0,0.0,0.0,0.0,0.0,0.0,0.0,0.0,0.0,0.0,0.0,0.0,0.0,0.0,0.0,0.0,0.0,0.0,0.0,0.0,0.0,0.0,0.0,0.0,0.0,0.0,0.0,0.0,0.0,0.0,0.0,0.0,0.0,0.0,0.0,0.0,0.0,0.0,0.0,0.0,0.0,0.0,0.0,0.0,0.0,0.0,0.0,0.0,0.0,0.0,0.0,0.0,0.0,0.0,0.0,0.0,0.0,0.0,0.0,0.0,0.0,0.0,0.0,0.0,0.0,0.0,0.0,0.0,0.0,0.0,0.0,0.0,0.0,0.0,0.0,0.0,0.0,0.0,0.0,0.0,0.0,0.0,0.0,0.0,0.0,0.0,0.0,0.0,0.0,0.0,0.0,0.0,0.0,0.0,0.0,0.0,0.0,0.0,0.0,0.0,0.0,0.0,0.0,0.0,0.0,0.0,0.0,0.0,0.0,0.0,0.0,0.0,0.0,0.0,0.0,0.0,0.0,0.0,0.0,0.0,0.0,0.0,0.0,0.0,0.0,0.0,0.0,0.0,0.0,0.0,0.0,0.0,0.0,0.0,0.0,0.0,0.0,0.0,0.0,0.0,0.0,0.0,0.0,0.0,0.0,0.0,0.0,0.0,0.0,0.0,0.0,0.0,0.0,0.0,0.0,0.0,0.0,0.0,0.0,0.0,0.0,0.0,0.0,0.0,0.0,0.0,0.0,0.0,0.0,0.0,0.0,0.0,0.0,0.0,0.0,0.0,0.0,0.0,0.0,0.0,0.0,0.0,0.0,0.0,0.0,0.0,0.0,0.0,0.0,0.0,0.0,0.0,0.0,0.0,0.0,0.0,0.0,0.0,0.0,0.0,0.0,0.0,0.0,0.0,0.0,0.0,0.0,0.0,0.0,0.0,0.0,0.0,0.0,0.0,0.0,0.0,0.0,0.0,0.0,0.0,0.0,0.0,0.0,0.0,0.0,0.0,0.0,0.0,0.0,0.0,0.0,0.0,0.0,0.0,0.0,0.0,0.0,0.0,0.0,0.0,0.0,0.0,0.0,0.0,0.0,0.0,0.0,0.0,0.0,0.0,0.0,0.0,0.0,0.0,0.0,0.0,0.0,0.0,0.0,0.0,0.0,0.0,0.0,0.0,0.0,0.0,0.0,0.0,0.0,0.0,0.0,0.0,0.0,0.0,0.0,0.0,0.0,0.0,0.0,0.0,0.0,0.0,0.0,0.0,0.0,0.0,0.0,0.0,0.0,0.0,0.0,0.0,0.0,0.0,0.0,0.0,0.0,0.0,0.0,0.0,0.0,0.0,0.0,0.0,0.0,0.0,0.0,0.0,0.0,0.0,0.0,0.0,0.0,0.0,0.0,0.0,0.0,0.0,0.0,0.0,0.0,0.0,0.0,0.0,0.0,0.0,0.0,0.0,0.0,0.0,0.0,0.0,0.0,0.0,0.0,0.0,0.0,0.0,0.0,0.0,0.0,0.0,0.0,0.0,0.0,0.0,0.0,0.0,0.0,0.0,0.0,0.0,0.0,0.0,0.0,0.0,0.0,0.0,0.0,0.0,0.0,0.0,0.0,0.0,0.0,0.0,0.0,0.0,0.0,0.0,0.0,0.0,0.0,0.0,0.0,0.0,0.0,0.0,0.0,0.0,0.0,0.0,0.0,0.0,0.0,0.0,0.0,0.0,0.0,0.0,0.0,0.0,0.0,0.0,0.0,0.0,0.0,0.0,0.0,0.0,0.0,0.0,0.0,0.0,0.0,0.0,0.0,0.0,0.0,0.0,0.0,0.0,0.0,0.0,0.0,0.0,0.0,0.0,0.0,0.0,0.0,0.0,0.0,0.0,0.0,0.0,0.0,0.0,0.0,0.0,0.0,0.0,0.0,0.0,0.0,0.0,0.0,0.0,0.0,0.0,0.0,0.0,0.0,0.0,0.0,0.0,0.0,0.0,0.0,0.0,0.0,0.0,0.0,0.0,0.0,0.0,0.0,0.0,0.0,0.0,0.0,0.0,0.0,0.0,0.0,0.0,0.0,0.0,0.0,0.0,0.0,0.0,0.0,0.0,0.0,0.0,0.0,0.0,0.0,0.0,0.0,0.0,0.0,0.0,0.0,0.0,0.0,0.0,0.0,0.0,0.0,0.0,0.0,0.0,0.0,0.0,0.0,0.0,0.0,0.0,0.0,0.0,0.0,0.0,0.0,0.0,0.0,0.0,0.0,0.0,0.0,0.0,0.0,0.0,0.0,0.0,0.0,0.0,0.0,0.0,0.0,0.0,0.0,0.0,0.0,0.0,0.0,0.0,0.0,0.0,0.0,0.0,0.0,0.0,0.0,0.0,0.0,0.0,0.0,0.0,0.0,0.0,0.0,0.0,0.0,0.0,0.0,0.0,0.0,0.0,0.0,0.0,0.0,0.0,0.0,0.0,0.0,0.0,0.0,0.0,0.0,0.0,0.0,0.0,0.0,0.0,0.0,0.0,0.0,0.0,0.0,0.0,0.0,0.0,0.0,0.0,0.0,0.0,0.0,0.0,0.0,0.0,0.0,0.0,0.0,0.0,0.0,0.0,0.0,0.0,0.0,0.0,0.0,0.0,0.0,0.0,0.0,0.0,0.0,0.0,0.0,0.0,0.0,0.0,0.0,0.0,0.0,0.0,0.0,0.0,0.0,0.0,0.0,0.0,0.0,0.0,0.0,0.0,0.0,0.0,0.0,0.0,0.0,0.0,0.0,0.0,0.0,0.0,0.0,0.0,0.0,0.0,0.0,0.0,0.0,0.0,0.0,0.0,0.0,0.0,0.0,0.0,0.0,0.0,0.0,0.0,0.0,0.0,0.0,0.0,0.0,0.0,0.0,0.0,0.0,0.0,0.0,0.0,0.0,0.0,0.0,0.0,0.0,0.0,0.0,0.0,0.0,0.0,0.0,0.0,0.0,0.0,0.0,0.0,0.0,0.0,0.0,0.0,0.0,0.0,0.0,0.0,0.0,0.0,0.0,0.0,0.0,0.0,0.0,0.0,0.0,0.0,0.0,0.0,0.0,0.0,0.0,0.0,0.0,0.0,0.0,0.0,0.0,0.0,0.0,0.0,0.0,0.0,0.0,0.0,0.0,0.0,0.0,0.0,0.0,0.0,0.0,0.0,0.0,0.0,0.0,0.0,0.0,0.0,0.0,0.0,0.0,0.0,0.0,0.0,0.0,0.0,0.0,0.0,0.0,0.0,0.0,0.0,0.0,0.0,0.0,0.0,0.0,0.0,0.0,0.0,0.0,0.0,0.0,0.0,0.0,0.0,0.0,0.0,0.0,0.0,0.0,0.0,0.0,0.0,-1.1551,0.0,0.0,0.0,0.0,0.0,0.0,0.0,0.0,0.0,0.0,0.0,0.0,0.0,0.0,0.0,0.0,0.0,0.0,0.0,0.0,0.0,0.0,0.0,0.0,-0.4793,-0.4793,-0.4793,-0.1866,0.0,0.0,0.0,0.0,0.0,0.0,0.0,0.0,0.0,-0.4665,-0.4665,-0.8081,-1.1863,-1.5783,-1.0728,-0.5783,-0.1153,0.0,0.0,0.0,0.0,0.0,0.0,0.0,0.0,0.0,0.0,0.0,0.0,0.0,0.0,0.0,0.0,0.0,0.0,0.0,0.0,0.0,0.0,0.0,0.0,0.0,0.0,0.0,0.0,0.0,0.0,0.0,0.0,0.0,0.0,0.0,0.0,0.0,0.0,0.0,0.0,0.0,0.0,0.0,0.0,0.0,0.0,0.0,0.0,0.0,0.0,0.0,0.0,0.0,0.0,0.0,0.0,0.0,0.0,0.0,0.0,0.0,0.0,0.0,0.0,0.0,0.0,0.0,0.0,0.0,0.0,0.0,-1.0941,0.0,0.0,0.0,0.0,0.0,0.0,0.0,0.0,0.0,0.0,0.0,0.0,0.0,0.0,0.0,0.0,0.0,0.0,0.0,0.0,0.0,-0.4592,-0.4775,-0.4793,-0.4921,-0.52,-0.2545,-0.0604,-0.0037,0.0,0.0,0.0,0.0,0.0,-0.0823,-0.6093,-0.9728,-1.1551,-1.7003,-1.8844,-1.7264,-1.6763,-1.2102,-0.4144,-0.4157,0.0,0.0,0.0,0.0,0.0,0.0,0.0,0.0,0.0,0.0,0.0,0.0,0.0,0.0,0.0,0.0,0.0,0.0,0.0,0.0,0.0,0.0,0.0,0.0,0.0,0.0,0.0,0.0,0.0,0.0,0.0,0.0,0.0,0.0,0.0,0.0,0.0,0.0,0.0,0.0,0.0,0.0,0.0,0.0,0.0,0.0,0.0,0.0,0.0,0.0,0.0,0.0,0.0,0.0,0.0,0.0,0.0,0.0,0.0,0.0,0.0,0.0,0.0,-1.2368,-1.2163,-1.1835,-1.187,-1.1756,-1.1558,-1.2001,-1.2772,-1.3079,0.0,0.0,0.0,0.0,0.0,0.0,0.0,0.0,0.0,0.0,0.0,0.0,0.0,0.0,0.0,0.0,0.0,0.0,0.0,0.0,-0.3769,-0.4702,-0.4793,-0.5387,-0.6838,-0.5245,-0.2982,-0.0183,0.0,0.0,0.0,0.0,-0.1317,-0.4116,-0.5013,-0.9876,-1.8901,-1.7737,-1.7039,-1.6747,-1.4236,-1.2349,-1.108,-1.1133,-1.0143,-0.8045,0.0,0.0,0.0,0.0,0.0,0.0,0.0,0.0,0.0,0.0,0.0,0.0,0.0,0.0,0.0,0.0,0.0,0.0,0.0,0.0,0.0,0.0,0.0,0.0,0.0,0.0,0.0,0.0,0.0,0.0,0.0,0.0,0.0,0.0,0.0,0.0,0.0,0.0,0.0,0.0,0.0,-1.1773,-0.9686,0.0,0.0,0.0,0.0,0.0,0.0,0.0,0.0,0.0,0.0,0.0,0.0,0.0,-1.3338,-1.2321,-1.1988,-1.2103,-1.265,-1.2252,-1.2071,-1.2063,-1.224,-1.1797,-1.0845,-1.1277,0.0,-1.198,-1.1626,0.0,0.0,0.0,0.0,0.0,0.0,0.0,0.0,0.0,0.0,0.0,0.0,0.0,0.0,0.0,0.0,0.0,0.0,0.0,0.0,0.0,-0.8196,-0.9156,-1.0501,-0.94,-0.6929,-0.2955,-0.1005,0.0,0.0,-0.1738,-0.3366,-0.4775,-1.0519,-1.5434,-1.935,-1.6965,-1.6311,-1.7229,-1.5969,-1.5375,-1.5375,-1.5421,-1.4067,-1.1547,-0.7892,0.0,0.0,0.0,0.0,0.0,0.0,0.0,0.0,0.0,0.0,0.0,0.0,0.0,0.0,0.0,0.0,0.0,0.0,0.0,0.0,0.0,0.0,0.0,0.0,0.0,0.0,0.0,0.0,0.0,0.0,0.0,0.0,0.0,0.0,0.0,0.0,0.0,0.0,0.0,-1.1044,-0.9843,-0.9518,-0.798,-0.5619,0.0,0.0,0.0,0.0,0.0,0.0,0.0,0.0,0.0,-1.0582,-1.2498,-1.3334,-1.2987,-1.268,-1.2285,-1.1728,-1.1543,-1.1331,-1.108,-1.0881,-1.0518,-1.0025,-1.0043,-1.0113,-1.0264,-1.0738,-0.9293,-0.6545,0.0,0.0,0.0,0.0,-0.4891,-0.5217,0.0,0.0,0.0,0.0,0.0,0.0,0.0,0.0,0.0,0.0,0.0,0.0,-0.9828,-1.1323,-1.2577,-1.3565,-1.2747,-1.0804,-0.7571,-0.3519,-0.086,-0.0037,-0.3092,-0.4793,-0.4793,-1.3812,-1.8162,-1.7394,-1.6303,-1.6432,-1.7702,-1.7702,-1.7702,-1.7702,-1.7702,-1.6381,-1.4086,-1.3134,-0.9432,-0.3943,0.0,0.0,0.0,0.0,0.0,0.0,0.0,0.0,0.0,0.0,0.0,0.0,0.0,0.0,0.0,0.0,0.0,0.0,0.0,0.0,0.0,0.0,0.0,0.0,0.0,0.0,0.0,0.0,0.0,0.0,0.0,0.0,0.0,0.0,0.0,0.0,0.0,-1.0031,-0.9496,-0.9488,-0.9459,-0.8368,0.0,0.0,0.0,0.0,0.0,0.0,-1.0102,-1.2249,-1.3505,-1.3637,-1.3506,-1.3251,-1.2891,-1.25,-1.1928,-1.1207,-1.0941,-1.0613,-1.0293,-0.9938,-0.9694,-0.9473,-0.9338,-0.9125,-0.897,-0.9248,-0.9606,-0.9686,-0.6971,-0.5455,-0.4809,-0.4884,-0.482,-0.4726,0.0,0.0,0.0,0.0,0.0,0.0,0.0,0.0,0.0,0.0,0.0,-0.9212,-1.0846,-1.2609,-1.4014,-1.4836,-1.4166,-1.3857,-1.4266,-0.8183,-0.3202,-0.0128,-0.3092,-0.4793,-0.4793,-1.0687,-1.3875,-1.4136,-1.6433,-1.76,-1.7702,-1.7702,-1.7702,-1.7702,-1.7702,-1.7116,-1.6159,-1.6488,-1.6208,-1.4663,-0.4206,0.0,0.0,0.0,0.0,0.0,0.0,0.0,0.0,0.0,0.0,0.0,0.0,0.0,0.0,0.0,0.0,0.0,0.0,0.0,0.0,0.0,0.0,0.0,0.0,0.0,0.0,0.0,0.0,0.0,0.0,0.0,0.0,0.0,0.0,0.0,0.0,0.0,0.0,-1.0964,-1.1689,0.0,0.0,0.0,0.0,-1.3343,-1.1488,-1.1154,-1.3356,-1.2595,-1.2549,-1.3473,-1.3866,-1.377,-1.3182,-1.22,-1.1734,-1.1737,-1.0723,-1.0281,-1.0312,-1.0468,-1.0142,-0.9495,-0.9703,-0.9271,-0.8517,-0.9456,-0.9116,-0.7936,-0.787,-0.6615,-0.4928,-0.5917,-0.59,-0.5529,0.0,0.0,0.0,-0.4684,-0.4757,-0.4793,-0.4793,-0.4793,-0.509,-0.5905,-0.8029,-0.9893,-1.0976,-1.3688,-1.5525,-1.5819,-1.6134,-1.5938,-1.5052,-1.3683,-1.0289,-0.4367,-0.657,-0.9034,-1.1307,-1.2366,-1.4027,-1.6356,-1.6734,-1.7196,-1.7702,-1.7702,-1.7702,-1.7702,-1.7702,-1.7509,-1.7166,-1.6716,-1.617,-1.5331,-1.1918,-0.6878,0.0,0.0,0.0,0.0,0.0,0.0,0.0,0.0,0.0,0.0,0.0,0.0,0.0,0.0,0.0,0.0,0.0,0.0,0.0,0.0,0.0,0.0,0.0,0.0,0.0,0.0,0.0,0.0,0.0,0.0,0.0,0.0,0.0,0.0,0.0,0.0,0.0,-1.1516,-1.1559,0.0,-1.032,-1.0149,-1.0862,-1.2743,-1.2929,-1.3469,-1.4614,-1.4152,-1.404,-1.4393,-1.4547,-1.435,-1.3788,-1.3038,-1.2536,-1.2225,-1.146,-1.1112,-1.1113,-1.0339,-0.9877,-0.9582,-0.9124,-0.871,-0.842,-0.8989,-0.8692,-0.7865,-0.7896,-0.7193,-0.6072,-0.611,-0.5681,-0.5082,0.0,0.0,0.0,-0.4625,-0.4715,-0.4765,-0.4765,-0.5023,-0.5699,-0.7066,-0.93,-1.1408,-1.3043,-1.5617,-1.7332,-1.7627,-1.7956,-1.7387,-1.5596,-1.6538,-1.3944,-0.6707,-0.8218,-1.1243,-1.5553,-1.3932,-1.4576,-1.7702,-1.7472,-1.7626,-1.8145,-1.8446,-1.8581,-1.8581,-1.8581,-1.8407,-1.81,-1.7478,-1.6757,-1.6048,-1.6005,-1.2324,-0.6525,0.0,0.0,0.0,0.0,0.0,0.0,0.0,0.0,0.0,0.0,0.0,0.0,0.0,0.0,0.0,0.0,0.0,0.0,0.0,0.0,0.0,0.0,0.0,0.0,0.0,0.0,0.0,0.0,0.0,0.0,0.0,0.0,0.0,0.0,-1.1922,-1.215,-1.1161,-1.1654,-1.1539,-1.0205,-1.1038,-1.1919,-1.2563,-1.3482,-1.4243,-1.4802,-1.4861,-1.4916,-1.4916,-1.4883,-1.4606,-1.4082,-1.3301,-1.272,-1.2436,-1.1857,-1.1606,-1.1562,-1.0423,-0.9875,-0.9807,-0.8664,-0.8152,-0.8165,-0.8081,-0.7835,-0.7467,-0.7722,-0.725,-0.6333,-0.5935,-0.5391,-0.4691,0.0,0.0,-0.4496,-0.4496,-0.4611,-0.4688,-0.4706,-0.5443,-0.6901,-0.9368,-1.1368,-1.3757,-1.6971,-1.8335,-1.9319,-2.0119,-1.9415,-1.8145,-1.6324,-1.6413,-1.3548,-0.6841,-0.7839,-1.1147,-1.6728,-1.4992,-1.5242,-1.7734,-1.8588,-1.9011,-1.9069,-1.9908,-2.0312,-2.0312,-2.0312,-1.9831,-1.903,-1.9023,-1.8523,-1.758,-1.5901,-1.55,-1.5231,0.0,0.0,0.0,0.0,0.0,0.0,0.0,0.0,0.0,0.0,0.0,0.0,0.0,0.0,0.0,0.0,0.0,0.0,0.0,0.0,0.0,0.0,0.0,0.0,0.0,0.0,0.0,0.0,0.0,0.0,0.0,0.0,0.0,-1.2571,-1.2538,-1.1941,-1.0075,-1.216,-1.3008,-1.1113,-1.2467,-1.3418,-1.3254,-1.3248,-1.3534,-1.4135,-1.4676,-1.4927,-1.4915,-1.4861,-1.4553,-1.4045,-1.29,-1.235,-1.235,-1.1854,-1.1645,-1.1567,-1.0664,-1.0213,-1.01,-0.8443,-0.7741,-0.7639,-0.6933,-0.6608,-0.6663,-0.7402,-0.6794,-0.5487,-0.5492,-0.5077,-0.4497,-0.4499,-0.4493,-0.4496,-0.4496,-0.4611,-0.4675,-0.4634,-0.5419,-0.6866,-0.9315,-1.1857,-1.3985,-1.544,-1.7638,-1.8607,-1.7638,-1.733,-1.6898,-1.6233,-1.4055,-1.1935,-1.0043,-1.2612,-1.4563,-1.558,-1.6285,-1.7304,-1.8631,-1.8876,-1.9319,-1.9946,-2.0196,-2.0312,-2.0312,-2.0312,-2.0177,-1.9908,-1.9273,-1.8857,-1.8484,-1.6704,-1.4973,-1.3376,0.0,0.0,0.0,0.0,0.0,0.0,0.0,0.0,0.0,0.0,0.0,0.0,0.0,0.0,0.0,0.0,0.0,0.0,0.0,0.0,0.0,0.0,0.0,0.0,0.0,0.0,0.0,0.0,0.0,0.0,0.0,-1.2823,-1.3266,-1.2636,-1.3034,-1.3392,-1.3405,-1.3157,-1.3121,-1.3455,-1.3027,-1.3193,-1.4349,-1.4425,-1.4827,-1.5781,-1.5982,-1.5877,-1.5429,-1.5401,-1.5096,-1.4528,-1.3755,-1.339,-1.339,-1.2829,-1.2253,-1.1739,-1.097,-1.0517,-1.0196,-0.8549,-0.7981,-0.8155,-0.7291,-0.6658,-0.6222,-0.6714,-0.6308,-0.5504,-0.5711,-0.5235,-0.4531,-0.4499,-0.4493,-0.4498,-0.4498,-0.4564,-0.4601,-0.4562,-0.5613,-0.7438,-1.0239,-1.2405,-1.4368,-1.6215,-1.7622,-1.8068,-1.708,-1.6577,-1.5941,-1.512,-1.2601,-1.1964,-1.3866,-1.5137,-1.6096,-1.6713,-1.7727,-1.8677,-1.9535,-1.9542,-1.9792,-2.0312,-2.0312,-2.0312,-2.0312,-2.0312,-2.0312,-2.0273,-1.9754,-1.9338,-1.8915,-1.7857,-1.6048,-1.3963,-1.4035,-1.2613,-1.056,-1.0369,-1.0777,-1.1603,-1.2927,0.0,0.0,0.0,0.0,0.0,0.0,0.0,0.0,0.0,0.0,0.0,0.0,0.0,0.0,0.0,0.0,0.0,0.0,0.0,0.0,0.0,0.0,0.0,0.0,-1.332,-1.3546,-1.3492,-1.3742,-1.3989,-1.4112,-1.3473,-1.3238,-1.378,-1.3175,-1.3245,-1.4475,-1.4563,-1.5054,-1.612,-1.617,-1.6003,-1.562,-1.5365,-1.4915,-1.4329,-1.3742,-1.342,-1.342,-1.2889,-1.2406,-1.1983,-1.1157,-1.0477,0.0,-0.8297,-0.7581,-0.7354,-0.6524,-0.5932,0.0,0.0,0.0,0.0,0.0,-0.4429,-0.4089,-0.4499,-0.4499,-0.4499,-0.4499,-0.4493,-0.4496,-0.4508,-0.5922,-0.8193,-1.1559,-1.2947,-1.4859,-1.8135,-1.8104,-1.7785,-1.7715,-1.6736,-1.5442,-1.3835,-1.2341,-1.3281,-1.7267,-1.6213,-1.6631,-1.8953,-1.9107,-1.953,-2.0312,-2.0312,-2.0312,-2.0312,-2.0312,-2.0312,-2.0312,-2.0312,-2.0312,-2.0312,-2.0312,-1.985,-1.9146,-1.903,-1.7865,-1.6024,-1.4517,-1.3361,-1.2501,-1.1732,-1.1118,-1.1106,-1.4188,0.0,0.0,0.0,0.0,0.0,0.0,0.0,0.0,0.0,0.0,0.0,0.0,0.0,0.0,0.0,0.0,0.0,0.0,0.0,0.0,0.0,0.0,0.0,0.0,-1.369,-1.4316,-1.476,-1.4562,-1.409,-1.3375,-1.3486,-1.3459,-1.304,-1.3195,-1.3546,-1.4135,-1.4236,-1.4727,-1.5731,0.0,0.0,0.0,0.0,-1.4376,-1.3732,-1.3152,-1.29,-1.2851,-1.2447,-1.2263,-1.2105,-1.1106,-1.0229,-0.9259,-0.7914,-0.6865,-0.5994,-0.5272,-0.4969,-0.5027,-0.5654,-0.5472,-0.47,-0.309,-0.2855,-0.2554,-0.4499,-0.4499,-0.4499,-0.4499,-0.4493,-0.4502,-0.4505,-0.5921,-0.8178,-1.1491,-1.3313,-1.539,-1.82,-1.8555,-1.8354,-1.7747,-1.7196,-1.6378,-1.5199,-1.5151,-1.5551,-1.6429,-1.7619,-1.8477,-1.8992,-1.9696,-2.0139,-2.0312,-2.0312,-2.0312,-2.0312,-2.0312,-2.0312,-2.0312,-2.0312,-2.0312,-2.0312,-2.0312,-2.0196,-1.9985,-1.928,-1.8355,-1.727,-1.6298,-1.5824,-1.5542,-1.4686,-1.4756,-1.5293,-1.5815,-1.4999,-1.3677,-1.3093,-1.1084,0.0,0.0,0.0,0.0,0.0,0.0,0.0,0.0,0.0,0.0,0.0,0.0,0.0,0.0,0.0,0.0,0.0,0.0,0.0,-1.383,-1.4311,-1.4804,-1.5415,-1.5052,-1.4504,-1.401,-1.4146,-1.4133,-1.3729,-1.3826,-1.416,-1.4714,-1.5167,-1.5668,-1.6321,-1.6358,-1.591,-1.4926,-1.4744,-1.4201,-1.3055,-1.2968,-1.274,-1.2398,0.0,0.0,-1.0977,-1.0763,-1.0058,-0.8835,-0.7865,-0.71,-0.6488,-0.5658,-0.5277,-0.5319,-0.5078,-0.5009,-0.4807,-0.4235,-0.0841,0.3645,-0.4499,-0.4499,-0.4499,-0.4499,-0.4505,-0.4499,-0.4505,-0.5832,-0.7759,-1.0263,-1.2422,-1.4239,-1.5651,-1.5959,-1.5578,-1.4402,-1.4109,-1.4644,-1.6142,-1.6215,-1.6979,-1.8773,-1.9377,-1.9658,-1.9638,-2.0081,-2.0312,-2.0312,-2.0312,-2.0312,-2.0312,-2.0312,-2.0312,-2.0312,-2.0312,-2.0312,-2.0312,-2.0312,-2.0312,-2.0254,-1.9831,-1.9388,-1.8869,-1.758,-1.7099,-1.6984,-1.6157,-1.6138,-1.6478,-1.6378,-1.5565,-1.4656,-1.4964,-1.334,-1.0905,0.0,0.0,0.0,0.0,0.0,0.0,0.0,0.0,0.0,0.0,0.0,0.0,0.0,0.0,-1.1638,-1.2579,0.0,-1.3594,-1.4459,-1.4944,-1.532,-1.5647,-1.5278,-1.4776,-1.4364,-1.4432,-1.4368,-1.4037,-1.4065,-1.4425,-1.5255,-1.5542,-1.5932,-1.6484,-1.6194,-1.5644,-1.4744,-1.4422,-1.3836,-1.2929,-1.2679,-1.2521,-1.2298,-1.191,-1.1445,-1.0865,-1.026,-0.9426,-0.8359,-0.7472,-0.6698,-0.6009,-0.5554,-0.5432,-0.5355,-0.5155,-0.4555,-0.3883,-0.4698,-0.053,0.5413,-0.4533,-0.4499,-0.4499,-0.4499,-0.4499,-0.4499,-0.4499,-0.5625,-0.7106,-0.8859,-1.0898,-1.2372,-1.2861,-1.2863,-1.236,-1.114,-1.1296,-1.2949,-1.6478,-1.6734,-1.801,-2.0889,-2.0562,-2.0312,-2.0312,-2.0312,-2.0312,-2.0312,-2.0312,-2.0312,-2.0312,-2.0312,-2.0312,-2.0312,-2.0312,-2.0312,-2.0312,-2.0312,-2.0312,-2.0312,-2.0312,-2.0312,-2.0139,-1.8542,-1.785,-1.7561,-1.6599,-1.6228,-1.6215,-1.6247,-1.5802,-1.5368,-1.598,-1.4849,-1.306,-1.1959,-1.0966,0.0,0.0,0.0,0.0,0.0,0.0,0.0,0.0,-0.9863,-1.0265,-1.0456,-1.115,-1.1904,-1.2416,-1.3429,-1.4417,-1.5202,-1.5546,-1.5718,-1.5812,-1.5478,-1.5086,-1.4699,-1.4584,-1.4413,-1.4143,-1.4286,-1.4777,-1.563,-1.5793,-1.6003,-1.6312,-1.5864,-1.5276,-1.456,-1.405,-1.3447,-1.2715,-1.241,-1.2175,-1.198,-1.1399,-1.095,-1.0721,-0.9737,-0.8748,-0.7697,-0.685,-0.6075,-0.5428,-0.5428,-0.5369,-0.5379,-0.5393,-0.4509,-0.322,-0.3293,0.0201,0.4925,-0.4635,-0.4499,-0.4499,-0.4499,-0.4499,-0.4499,-0.4499,-0.5199,-0.6356,-0.8088,-0.9117,-1.0348,-1.203,-1.1585,-1.1259,-1.1496,-1.2724,-1.4106,-1.5573,-1.7557,-1.8854,-1.9261,-1.9946,-2.0312,-2.0312,-2.0312,-2.0312,-2.0312,-2.0312,-2.0312,-2.0312,-2.0312,-2.0312,-2.0312,-2.0312,-2.0312,-2.0312,-2.0312,-2.0312,-2.0312,-2.0312,-2.0312,-2.0188,-1.9227,-1.8369,-1.7484,-1.5907,-1.5261,-1.5195,-1.5306,-1.5245,-1.516,-1.5368,-1.5193,-1.4745,-1.3777,-1.2344,-1.0823,-0.9732,-1.1229,-1.2725,-1.1073,-1.0954,-1.1748,0.0,-1.3047,-1.2398,-1.3742,-1.4635,-1.5144,-1.5095,-1.5501,-1.5978,-1.6431,-1.6037,-1.5819,-1.6164,-1.5922,-1.5593,-1.5233,-1.4896,-1.4533,-1.4145,-1.4979,-1.5567,-1.568,-1.6145,-1.6219,-1.572,-1.5632,-1.5084,-1.3956,-1.3826,-1.3188,-1.1922,-1.2187,-1.1817,-1.0854,-1.1048,-1.0519,-0.9482,-0.9384,-0.842,-0.6785,-0.5947,-0.5491,-0.5428,-0.5372,-0.5376,-0.5379,-0.5403,-0.5272,-0.4314,0.1878,0.3696,0.3215,-0.4567,-0.4499,-0.4499,-0.4499,-0.4499,-0.4499,-0.4499,-0.5132,-0.5859,-0.6598,-0.7701,-0.8555,-0.8912,-0.8275,-0.8093,-0.8806,-1.0938,-1.2828,-1.4232,-1.6788,-1.8465,-1.8972,-1.9357,-1.9773,-2.0292,-2.0312,-2.0312,-2.0312,-2.0312,-2.0312,-2.0312,-2.0312,-2.0312,-2.0312,-2.0312,-2.0312,-2.0312,-2.0312,-2.0312,-2.0312,-2.0312,-2.0004,-1.9446,-1.8581,-1.7734,-1.6901,-1.6117,-1.5496,0.0,-1.5082,-1.4775,-1.4508,-1.5112,-1.4932,-1.4401,-1.3941,-1.3287,-1.2826,-1.3338,-1.3394,-1.3238,-1.2899,-1.3067,-1.345,-1.3969,-1.3829,-1.3954,-1.5318,-1.5821,-1.5945,-1.5612,-1.6046,-1.6433,-1.6407,-1.6357,-1.6327,-1.6309,-1.5782,-1.5266,-1.4879,-1.5015,-1.5114,-1.5055,-1.5429,-1.5831,-1.6145,-1.6384,-1.6238,-1.5632,-1.5276,-1.4687,-1.3815,-1.3034,-1.2355,-1.1814,-1.1497,-1.1161,-1.0686,-1.0792,-1.0552,-1.0047,-0.9005,-0.7572,-0.5947,-0.5557,-0.5428,-0.5428,-0.5432,-0.4761,-0.382,-0.3828,-0.4453,-0.4745,0.0336,0.3094,0.437,-0.4584,-0.4499,-0.4499,-0.4499,-0.4499,-0.4499,-0.4499,-0.4962,-0.5308,-0.5308,-0.6232,-0.6681,-0.6149,-0.5616,-0.563,-0.6465,-0.9051,-1.1359,-1.3024,-1.5922,-1.7903,-1.8607,-1.8876,-1.93,-1.9927,-1.9946,-2.0054,-2.0312,-2.0312,-2.0312,-2.0312,-2.0312,-2.0312,-2.0312,-2.0312,-2.0312,-2.0292,-2.0035,-1.9946,-1.9927,-1.9677,-1.9196,-1.8549,-1.7683,-1.6708,-1.5741,-1.5654,-1.5205,-1.4613,-1.4123,-1.3733,-1.355,-1.405,-1.392,-1.3625,-1.3696,-1.3557,-1.3512,-1.4196,-1.3836,-1.3298,-1.3347,-1.4206,-1.4889,-1.4292,-1.4511,-1.5107,-1.6092,-1.6286,-1.6203,-1.5948,-1.6429,-1.6748,-1.6406,-1.6529,-1.6554,-1.6219,-1.5667,-1.5162,-1.4768,-1.5294,-1.567,-1.5683,-1.5831,-1.6082,-1.6484,-1.6337,-1.6008,-1.5365,-1.4778,-1.4086,-1.3283,-1.2307,-1.1669,-1.137,-1.0934,-1.0616,-1.0538,-1.0554,-1.0498,-1.0174,-0.8415,-0.692,-0.5749,-0.5491,-0.5428,-0.5428,-0.5369,-0.4628,-0.342,-0.2885,-0.3167,-0.3452,0.0135,0.2825,0.4709,-0.4787,-0.4499,-0.4499,-0.4499,-0.4499,-0.4499,-0.4499,-0.4516,-0.4533,-0.4533,-0.4567,-0.4601,-0.4567,-0.455,-0.4827,-0.5569,-0.797,-1.0251,-1.2113,-1.5412,-1.7441,-1.7734,-1.8549,-1.9011,-1.903,-1.9042,-1.9458,-2.0312,-2.0312,-2.0312,-2.0312,-2.0312,-2.0312,-2.0312,-2.0312,-2.0312,-2.0235,-1.94,-1.9042,-1.8972,-1.8126,-1.7753,-1.7645,-1.683,-1.5434,-1.3883,-1.3876,-1.3785,-1.3403,-1.1838,-1.1788,-1.2231,-1.1628,-1.1984,-1.2756,-1.3346,-1.2906,-1.1937,-1.0471,-1.1247,-1.2442,-1.2517,-1.4203,-1.5859,-1.583,-1.5739,-1.5767,-1.6207,-1.6253,-1.629,-1.6612,-1.7015,-1.7166,-1.6834,-1.6512,-1.6191,-1.5856,-1.5799,-1.5653,-1.5302,-1.5749,-1.5995,-1.5711,-1.6183,-1.6497,-1.6522,-1.5952,-1.5365,-1.4744,-1.4143,-1.3236,-1.1913,-1.1814,-1.1345,-1.0346,-1.0572,-1.0501,-1.0107,-1.0477,-1.0174,-0.9268,-0.7502,-0.6719,-0.6588,-0.5752,-0.5428,-0.5428,-0.5386,-0.5396,-0.5125,-0.3374,-0.1687,0.0269,0.3912,0.4172,0.3011,-0.5318,-0.4844,-0.4651,-0.5148,-0.4827,-0.4499,-0.4499,-0.4499,-0.4499,-0.4499,-0.4499,0.0,0.0,0.0,0.0,0.0,-0.8105,-0.9854,-1.0446,-1.4338,-1.6663,-1.6705,-1.8186,-1.928,-1.985,-1.9292,-1.9138,-1.9439,-1.8869,-1.8561,-1.8561,-1.8561,-1.8561,-1.8561,-1.8561,-1.8561,-1.8561,-1.8254,-1.8138,-1.8107,-1.7818,-1.7702,-1.7682,-1.7652,-1.602,-1.3748,0.0,-1.1915,-1.022,-1.0257,-1.0109,-0.9982,-1.0375,-1.0287,-1.0038,-1.0144,-1.0835,-1.1546,-1.1557,-1.2458,-1.3548,-1.4139,-1.5174,-1.6023,-1.6023,-1.6267,-1.6465,-1.6331,-1.6414,-1.647,-1.6323,-1.6818,-1.7053,-1.6474,-1.6524,-1.6436,-1.5885,-1.5551,-1.5334,-1.5296,-1.555,-1.5708,-1.5711,-1.6195,0.0,-1.6522,-1.5952,-1.532,-1.4744,-1.4143,-1.3188,-1.1864,-1.1366,-1.0892,-1.0307,-1.0144,-1.0055,-1.012,-1.0421,-0.9843,-0.842,-0.7832,-0.692,-0.5815,-0.5557,-0.5432,-0.5372,-0.5382,-0.5393,-0.5339,-0.473,-0.2629,0.0472,0.4048,0.4998,0.4582,-0.6046,-0.5616,-0.5362,-0.5562,-0.5199,0.0,0.0,0.0,0.0,0.0,0.0,0.0,0.0,0.0,0.0,0.0,0.0,-0.8778,-0.9143,-1.2617,-1.4701,-1.4771,-1.5937,-1.6823,-1.739,-1.6596,-1.6728,-1.782,-1.7401,-1.7619,-1.8425,-1.8563,-1.8638,-1.8638,-1.8638,-1.8638,-1.8581,-1.7965,-1.7788,-1.7852,-1.6704,-1.6177,-1.6062,-1.5725,-1.3844,0.0,-1.0993,-0.9234,-0.7245,-0.8112,-0.832,-0.8301,-0.8913,-0.9087,-0.9037,-0.8972,-1.0011,-1.1418,-1.2577,-1.3377,-1.4062,-1.492,-1.5608,-1.6092,-1.6052,-1.6267,-1.6447,-1.6314,-1.6046,-1.5757,-1.5663,-1.6023,-1.6294,-1.6182,-1.6544,-1.6696,-1.6275,-1.6165,-1.5935,-1.5363,-1.5775,-1.5969,-1.5737,-1.6195,-1.6423,-1.6182,-1.5644,-1.5005,-1.4422,-1.3569,-1.2599,-1.1466,-1.0813,-1.0339,-1.0106,-0.9809,-0.9886,-1.0281,-1.0147,-0.9524,-0.842,-0.7827,-0.692,-0.5815,-0.5561,-0.5372,-0.5379,-0.5386,-0.5399,-0.5276,-0.3981,-0.202,0.0269,0.2622,0.4314,0.541,-0.6892,-0.6715,-0.6487,0.0,0.0,0.0,0.0,0.0,0.0,0.0,0.0,0.0,0.0,0.0,0.0,0.0,0.0,0.0,-0.8187,-1.0348,-1.1736,-1.2049,-1.2185,-1.2241,-1.2211,-1.1515,-1.2584,-1.5524,-1.585,-1.7147,-1.9307,-1.9687,-1.9892,-1.9892,-1.9892,-1.9892,-1.9777,-1.8124,-1.7655,-1.7751,-1.469,-1.3301,-1.2937,-1.1496,-0.9374,-0.7176,-0.7259,-0.6129,-0.4739,-0.5602,-0.6581,-0.7448,-0.7488,-0.8557,-0.9798,-0.9856,-1.0482,-1.1576,-1.3386,-1.3878,-1.4079,-1.4871,-1.5586,-1.6053,-1.5892,-1.5764,-1.5786,-1.6078,-1.5083,-1.4253,-1.4553,-1.4719,-1.5079,-1.5838,-1.6511,-1.6971,-1.7004,-1.7555,-1.7311,-1.5613,-1.6395,-1.6727,-1.5812,-1.6208,-1.6238,-1.5588,0.0,-1.4422,-1.3815,-1.255,-1.1516,-1.0813,-1.0167,-0.9821,-0.9679,-0.9713,-1.0007,-1.0561,-0.9786,-0.9338,-0.9204,-0.7502,-0.6719,-0.6593,-0.5763,-0.5379,-0.5382,-0.5403,-0.5276,-0.4797,-0.1347,-0.0,-0.0,-0.0,0.2147,0.5135,0.0,0.0,0.0,0.0,0.0,0.0,0.0,0.0,0.0,0.0,0.0,0.0,0.0,0.0,0.0,0.0,0.0,0.0,-0.6295,-0.8771,-1.0212,-1.0194,-1.2098,-1.2908,-1.2367,-1.206,-1.2305,-1.309,-1.2535,-1.2877,-1.4036,-1.4145,-1.4179,-1.4179,-1.4179,-1.4179,-1.416,-1.3718,-1.3261,-1.2732,-1.1922,-1.1617,-1.1614,-1.147,-1.003,-0.8113,-0.8365,-0.6804,-0.4739,-0.5602,-0.743,-0.9429,-1.0139,-1.0645,-1.0954,-1.0866,-1.1503,-1.2594,-1.4304,-1.4815,-1.5042,-1.5895,-1.61,-1.5932,-1.5301,-1.5436,-1.5356,-1.4154,-1.3823,-1.3401,-1.2183,-1.3675,-1.4885,-1.4259,-1.6085,-1.7486,-1.7252,-1.7284,-1.7158,-1.6706,-1.6639,-1.6573,-1.63,-1.6434,-1.6064,-1.5017,-1.4789,-1.4422,-1.3815,-1.3035,-1.2049,-1.0864,-1.061,-1.028,-0.9679,-1.0181,-1.0477,-1.0624,-1.0364,-0.9588,-0.8291,-0.7897,-0.699,-0.5701,-0.5509,-0.5389,-0.5403,-0.541,-0.3845,-0.128,-0.0337,-0.0,-0.0,-0.0,0.0606,0.1616,0.0,0.0,0.0,0.0,0.0,0.0,0.0,0.0,0.0,0.0,0.0,0.0,0.0,0.0,0.0,0.0,0.0,0.0,0.0,-0.6863,-0.7863,-0.7799,-0.922,-0.985,-0.9428,-0.903,-0.9287,-1.0266,-0.9957,-1.0528,-1.193,-1.2143,-1.2233,-1.2233,-1.2233,-1.2233,-1.2215,-1.1832,-1.1512,0.0,0.0,-0.9725,-0.9597,-0.9135,-0.8015,-0.6712,-0.6907,-0.6921,-0.7079,-0.8403,-0.9863,-1.1179,-1.1356,-1.1615,-1.1868,-1.1828,-1.2438,-1.3513,-1.5248,-1.568,-1.5744,-1.6208,-1.6166,-1.5704,-1.4518,-1.4476,-1.4213,-1.2451,-1.2329,-1.1996,-1.019,-1.2349,-1.4192,-1.3566,-1.6052,-1.8008,-1.7836,-1.8124,-1.8022,-1.72,-1.7174,-1.7036,-1.657,-1.6522,-1.602,-1.4789,-1.4698,-1.434,-1.3467,-1.2793,-1.2039,-1.1266,-1.0669,-1.0128,-0.9679,-1.0329,-1.0624,-1.0624,-1.0238,-0.9524,-0.8549,-0.7762,-0.6924,-0.5888,0.0,-0.4431,-0.4172,-0.3362,-0.1816,-0.0,-0.0,-0.0,-0.0,-0.0,-0.0,0.0202,0.0,0.0,0.0,0.0,0.0,0.0,0.0,0.0,0.0,-0.5277,-0.4888,-0.4651,-0.4651,-0.4567,0.0,0.0,0.0,0.0,0.0,0.0,-0.546,-0.546,-0.5545,-0.5562,-0.546,-0.4928,-0.5599,-0.7544,-0.7875,-0.9026,-1.0951,-1.1421,-1.1638,-1.1638,-1.1638,-1.1638,-1.1601,-1.0834,-1.0687,-1.0799,-0.8749,-0.771,-0.7222,0.0,-0.5064,-0.4522,-0.4635,-0.6891,-1.0096,-1.1977,-1.2848,-1.3,-1.2302,-1.2534,-1.3058,-1.3103,-1.36,-1.4545,-1.6347,-1.6536,-1.6236,-1.627,-1.6015,-1.5333,-1.378,-1.3323,-1.2745,-1.1041,-1.0785,-1.033,-0.861,-1.0906,-1.3117,-1.3277,-1.5985,-1.8179,-1.8493,-1.9183,-1.9059,-1.7423,-1.7658,-1.7585,-1.6595,-1.6522,-1.602,-1.4789,-1.4698,-1.4154,-1.2968,-1.2295,-1.1913,-1.1814,-1.0608,-1.0019,-1.0013,-1.0465,-1.0703,-1.0744,-0.9913,-0.9402,-0.9268,-0.7632,-0.6715,-0.6453,0.0,0.0,-0.2947,-0.1138,-0.0201,-0.0,-0.0,-0.0,-0.0,-0.0,-0.0,-0.0,0.0,0.0,0.0,0.0,0.0,0.0,0.0,0.0,0.0,0.0,-0.6918,-0.5409,0.0,0.0,0.0,0.0,0.0,0.0,0.0,0.0,0.0,-0.4685,-0.5267,-0.5324,-0.4702,-0.5165,-0.5673,-0.6225,-0.6132,-0.6358,-0.6914,-0.7438,-0.7681,-0.7681,-0.7681,-0.7681,-0.7681,-0.7524,-0.716,-0.6635,-0.6223,-0.5675,-0.5041,-0.4787,0.0,0.0,-0.5383,-0.7443,-1.0096,-1.1977,-1.4075,-1.5882,-1.575,-1.5791,-1.5879,-1.5845,-1.5917,-1.6399,-1.81,-1.7451,-1.6448,-1.7153,-1.6102,-1.4672,-1.3776,-1.2915,-1.1913,-1.0438,-0.9598,-0.8847,-0.7914,-0.9658,-1.1589,-1.2651,-1.4798,-1.6913,-1.8535,-1.8452,-1.8158,-1.7949,-1.7639,-1.7188,-1.6552,-1.6522,-1.602,-1.4789,-1.4698,-1.4154,-1.2968,-1.2774,-1.2452,-1.1814,-1.1318,-1.1204,-1.1503,-1.1167,-1.1199,-1.1593,-1.073,-0.9983,-0.9274,-0.8221,-0.6972,-0.5595,-0.5223,0.0,-0.4779,-0.2948,-0.1338,-0.0,-0.0,-0.0,-0.0,-0.0,-0.0,-0.0,0.0,0.0,0.0,0.0,0.0,0.0,0.0,-0.8734,-0.9798,-1.2045,-1.1113,-0.9489,-0.7529,-0.5978,-0.4911,0.0,0.0,0.0,0.0,0.0,0.0,-0.4499,0.0,0.0,-0.4516,-0.4844,-0.5081,-0.5176,0.0,-0.5081,-0.5176,-0.544,-0.5558,-0.5558,-0.5558,-0.5558,-0.5558,-0.5558,-0.5345,-0.503,-0.503,-0.4827,-0.4499,0.0,0.0,0.0,-0.6031,-0.7954,-1.0058,-1.1368,-1.3649,-1.6002,-1.6494,-1.6327,-1.6007,-1.6382,-1.6495,-1.6869,-1.8542,-1.7987,-1.703,-1.7404,-1.6413,-1.4794,-1.2763,-1.1899,-1.0876,-0.8555,-0.8111,-0.7749,-0.6523,-0.8763,-1.0841,-1.1018,-1.378,-1.6149,-1.6846,-1.7496,-1.7752,-1.7338,-1.729,-1.7076,-1.6552,-1.6238,-1.5644,-1.4744,-1.4422,-1.3826,-1.2978,-1.2881,-1.2559,-1.1814,-1.18,-1.1724,-1.1614,-1.1138,-1.1071,-1.145,-1.0684,-1.022,-0.9913,-0.9069,-0.7957,-0.6711,-0.6272,0.0,-0.5319,-0.4431,-0.362,-0.2614,-0.0737,-0.0,-0.0,-0.0,-0.0,-0.0,0.0,0.0,0.0,0.0,0.0,0.0,0.0,-1.0978,-1.2348,-1.5088,-1.5037,-1.3549,-1.0449,-0.7824,-0.5884,0.0,0.0,0.0,0.0,0.0,0.0,0.0,0.0,0.0,0.0,0.0,0.0,-0.4499,-0.4499,0.0,0.0,0.0,0.0,0.0,-0.4499,-0.4499,-0.4499,-0.4499,-0.4499,0.0,0.0,-0.4499,0.0,0.0,0.0,0.0,0.0,-0.8056,-0.951,-1.0709,-1.2573,-1.4569,-1.5527,-1.5558,-1.5414,-1.6219,-1.6459,-1.6794,-1.8313,-1.8007,-1.7223,-1.7178,-1.6523,-1.5056,-1.1858,-1.1051,-1.0103,-0.6942,-0.6694,-0.6691,-0.5559,-0.7812,-0.9824,-0.9777,-1.2548,-1.4873,-1.5395,-1.6481,-1.7107,-1.6786,-1.6956,-1.6951,-1.6552,-1.6051,-1.5543,-1.4926,-1.419,0.0,-1.292,-1.2881,-1.2618,-1.203,-1.231,-1.22,-1.179,-1.1272,-1.1195,-1.146,-1.0656,-1.0417,-1.0642,-0.9623,-0.889,-0.8221,-0.7177,0.0,0.0,-0.5505,-0.5382,-0.5116,-0.2277,-0.0937,-0.0536,-0.0134,-0.0,-0.0,0.0,0.0,0.0,0.0,0.0,0.0,0.0,-1.2145,-1.3701,-1.7929,-1.6745,-1.5105,-1.4107,-1.0758,-0.7766,0.0,0.0,0.0,0.0,0.0,0.0,0.0,0.0,0.0,0.0,0.0,0.0,-0.4499,-0.4499,0.0,0.0,0.0,0.0,0.0,0.0,-0.4499,-0.4499,-0.4499,0.0,0.0,0.0,0.0,0.0,0.0,0.0,0.0,0.0,-0.7244,-0.7824,-1.0273,-1.1264,-1.1661,-1.2653,-1.3965,-1.5272,-1.6077,-1.6315,-1.6545,-1.7561,-1.7133,-1.6418,-1.6391,-1.6149,-1.5066,-1.1913,-1.1094,-1.0105,-0.6947,-0.5733,-0.5436,-0.6076,-0.6477,-0.7582,-1.0258,-1.0756,-1.2096,-1.578,-1.5548,-1.5635,-1.7313,-1.6956,-1.6552,-1.6522,-1.6466,-1.6194,-1.5543,0.0,0.0,-1.292,-1.2881,-1.2881,-1.2774,-1.2812,-1.2966,-1.3292,-1.2543,-1.2324,-1.2692,-1.1285,-1.0777,-1.1025,-0.9505,-0.897,-0.9075,-0.7437,0.0,0.0,-0.5752,-0.5369,-0.5379,-0.504,-0.3887,-0.2275,-0.0603,-0.0,-0.0,0.0,0.0,0.0,0.0,0.0,0.0,-1.3143,-1.3244,-1.4734,-1.9646,-1.9096,-1.798,-1.7236,-1.3819,-0.9992,-0.5952,0.0,0.0,0.0,0.0,0.0,0.0,0.0,0.0,0.0,0.0,-0.4499,-0.4499,-0.4499,0.0,0.0,0.0,0.0,0.0,0.0,-0.4499,-0.4499,-0.4499,0.0,0.0,0.0,0.0,0.0,0.0,0.0,0.0,0.0,0.0,-0.8222,-0.9754,-1.0628,-1.1142,-1.1373,-1.2363,-1.3714,-1.5195,-1.5945,-1.6503,-1.749,-1.7093,-1.6397,-1.6319,-1.5457,-1.3914,-1.1119,-0.9998,-0.8796,-0.6134,-0.5275,-0.5122,-0.5514,-0.5963,-0.6872,-0.8588,-0.9676,-1.0766,-1.2115,-1.3126,-1.3984,-1.4627,-1.5209,-1.5796,-1.6426,-1.6194,-1.5732,-1.5096,0.0,0.0,-1.3978,-1.3286,-1.3065,-1.342,-1.3104,-1.3144,-1.3675,-1.257,-1.2171,-1.252,-1.1535,-1.1217,-1.1433,-1.0392,-0.9787,-0.9562,-0.8441,0.0,0.0,-0.6334,-0.5885,-0.5369,-0.5376,-0.497,-0.4225,-0.3489,-0.2546,-0.1472,0.0,0.0,0.0,0.0,0.0,-1.0094,-1.3633,-1.3921,-1.5274,-1.9621,-1.9705,-1.9056,-1.8318,-1.4751,-1.0924,-0.7232,-0.543,0.0,0.0,0.0,0.0,0.0,0.0,0.0,0.0,0.0,-0.4827,-0.4827,-0.5041,-0.5152,0.0,0.0,-0.4827,-0.4827,0.0,0.0,0.0,0.0,0.0,0.0,0.0,0.0,0.0,0.0,0.0,0.0,0.0,0.0,0.0,0.0,0.0,-1.0581,-1.0393,-1.0993,-1.215,-1.4063,-1.5248,-1.6068,-1.6774,-1.6929,-1.6798,-1.6455,-1.5408,-1.3768,-1.1015,-0.962,-0.8184,-0.5607,-0.5029,-0.5011,-0.5087,-0.5538,-0.6283,-0.7408,-0.8671,-0.97,-1.0249,-1.1695,-1.2773,-1.3049,-1.3897,-1.4871,-1.5918,-1.5927,-1.5688,0.0,0.0,0.0,0.0,-1.3978,-1.361,-1.405,-1.3467,-1.3372,-1.3815,-1.2706,-1.2236,-1.2489,-1.1783,-1.1604,-1.1856,-1.1193,-1.058,-1.0052,0.0,0.0,0.0,-0.7149,-0.6593,-0.5752,-0.576,-0.5634,-0.5376,-0.5386,-0.457,-0.3349,0.0,0.0,0.0,0.0,0.0,0.0,-1.2956,-1.4022,-1.5288,-1.7557,-1.7845,-1.754,-1.68,-1.272,-1.0018,-0.995,-0.6605,0.0,0.0,0.0,0.0,0.0,0.0,0.0,0.0,0.0,-0.5596,-0.5596,-0.6318,-0.6681,-0.6664,-0.5928,-0.5596,-0.5562,0.0,0.0,0.0,0.0,0.0,0.0,0.0,0.0,0.0,0.0,0.0,0.0,0.0,0.0,0.0,0.0,0.0,0.0,0.0,-0.9968,-1.0887,-1.2772,-1.411,-1.5015,-1.5035,-1.6383,-1.7583,-1.6701,-1.6289,-1.5241,-1.2017,-1.0454,-0.8789,-0.5648,-0.4995,-0.5011,-0.5087,-0.5055,-0.5586,-0.7312,-0.7609,-0.8665,-1.1657,-1.1866,-1.2206,-1.3535,-1.3521,-1.3814,-1.4805,-1.5853,-1.6479,0.0,0.0,0.0,0.0,-1.5017,-1.4698,-1.4709,-1.4097,-1.3768,-1.3815,-1.319,-1.2881,-1.2881,-1.2138,-1.1989,-1.2245,-1.1595,-1.1083,0.0,0.0,0.0,0.0,-0.8185,-0.7502,-0.6719,-0.6719,-0.6141,-0.5428,-0.5376,-0.5379,-0.5382,0.0,0.0,0.0,0.0,0.0,0.0,0.0,-1.1603,-1.2416,-1.517,-1.5105,-1.4902,-1.5172,-1.2094,-0.9798,-0.9298,-0.6343,0.0,0.0,0.0,0.0,0.0,0.0,0.0,0.0,0.0,-0.6342,-0.7851,-0.8095,-0.8214,-0.8197,-0.796,-0.7054,-0.5596,-0.5358,-0.4979,0.0,0.0,0.0,0.0,0.0,0.0,0.0,0.0,0.0,0.0,0.0,0.0,0.0,0.0,0.0,0.0,0.0,0.0,0.0,-1.1068,-1.217,-1.3046,-1.3138,-1.3612,-1.4035,-1.3776,-1.3221,-1.2185,-1.0014,-0.8801,-0.7528,-0.544,-0.4959,-0.4947,-0.5014,-0.5014,-0.5554,-0.7254,-0.7528,-0.8096,-0.9695,-1.1102,-1.2371,-1.3432,-1.5634,-1.7206,-1.7512,0.0,0.0,0.0,0.0,0.0,0.0,-1.6574,-1.6145,-1.532,-1.4744,-1.4595,-1.5039,-1.4422,-1.3931,-1.3505,-1.3294,-1.2988,-1.2669,-1.1989,0.0,0.0,0.0,0.0,0.0,-0.8815,-0.8202,-0.7502,-0.6915,-0.6523,-0.6203,-0.5627,-0.5432,-0.5369,0.0,0.0,0.0,0.0,0.0,0.0,0.0,-1.0538,-1.1096,-1.2973,-1.2821,-1.2821,-1.3599,-1.0727,-0.8903,-0.9269,-0.6622,0.0,0.0,0.0,0.0,0.0,0.0,0.0,-0.5579,-0.5877,-0.7232,-0.9738,-1.0026,-1.0331,-1.0585,-1.0314,-0.8993,-0.6817,-0.6266,-0.5606,0.0,0.0,0.0,0.0,0.0,0.0,-0.7713,0.0,0.0,0.0,0.0,0.0,0.0,0.0,0.0,0.0,0.0,0.0,0.0,0.0,-0.9796,-1.0439,-1.1786,-1.273,-1.3263,-1.29,-1.1975,-1.0817,-0.9462,-0.7972,-0.6505,-0.5223,-0.4931,-0.4925,-0.4983,-0.5008,-0.5439,-0.6782,-0.7291,-0.7991,-0.9393,-1.1026,-1.2594,-1.3939,-1.6651,-1.8379,0.0,-1.828,0.0,0.0,0.0,0.0,0.0,-1.7585,-1.7162,-1.6275,-1.5454,-1.5231,-1.5588,-1.5017,-1.4376,-1.3815,-1.3815,-1.3457,-1.2881,-1.2421,0.0,0.0,0.0,0.0,0.0,-0.9551,-0.8959,-0.842,-0.7892,-0.7307,-0.6645,-0.6005,-0.5596,-0.5277,0.0,0.0,0.0,0.0,0.0,0.0,0.0,-1.0504,-1.0944,-1.0944,-1.0893,-1.1147,-1.1891,-0.8818,-0.7534,-0.9578,0.0,0.0,0.0,0.0,0.0,0.0,0.0,0.0,-0.5664,-0.6461,-0.8295,-1.1248,-1.2111,-1.2906,-1.3616,-1.299,-1.1383,-0.8993,-0.7628,-0.6495,0.0,0.0,0.0,0.0,0.0,-0.6368,0.0,0.0,0.0,0.0,0.0,0.0,0.0,0.0,0.0,0.0,0.0,0.0,0.0,0.0,0.0,0.0,0.0,-1.291,-1.414,-1.3272,-1.1922,-1.062,-0.9807,-0.7744,0.0,-0.5041,-0.489,-0.4941,-0.505,-0.5024,-0.5279,-0.6143,-0.6972,-0.8247,-1.0407,-1.1761,-1.3252,-1.5245,-1.7008,-1.7914,-1.7513,0.0,0.0,0.0,0.0,0.0,0.0,-1.8185,-1.7907,-1.7394,-1.6318,-1.5752,-1.5676,-1.5107,-1.4514,-1.3909,-1.3909,-1.36,-1.3017,-1.3017,0.0,0.0,0.0,0.0,0.0,-1.0429,-1.0008,-0.9582,-0.9436,-0.8447,-0.6992,-0.6615,-0.5923,-0.5238,0.0,0.0,0.0,0.0,0.0,0.0,0.0,0.0,0.0,0.0,-0.8925,-0.8643,-0.8829,-0.7568,-0.6901,0.0,0.0,0.0,0.0,0.0,0.0,0.0,0.0,0.0,-0.6419,-0.7713,-0.9857,-1.2871,-1.4174,-1.5189,-1.5937,-1.6323,-1.4394,-1.0568,-1.0216,-0.839,0.0,0.0,0.0,0.0,-0.5064,-0.5301,0.0,0.0,0.0,0.0,-0.6536,-0.7088,0.0,0.0,0.0,0.0,0.0,0.0,0.0,0.0,-0.7381,-0.6918,-0.7715,0.0,-0.8899,-0.8716,-0.8403,-0.7903,0.0,-0.6441,-0.5777,-0.4982,-0.486,-0.5085,-0.5655,-0.5349,-0.5471,-0.6895,-0.7323,-0.8247,-1.0407,-1.4157,-1.7329,-1.9019,-2.009,-2.0544,-2.0157,0.0,0.0,0.0,0.0,0.0,0.0,-1.8688,-1.8458,-1.7947,-1.7639,-1.712,-1.6281,-1.6151,-1.5776,-1.5186,-1.5186,-1.4869,-1.4294,-1.4294,0.0,0.0,0.0,0.0,-1.2363,-1.2231,-1.2141,-1.2043,-1.1088,-1.0423,-0.9825,-0.7647,-0.6736,-0.6379,0.0,0.0,0.0,0.0,0.0,0.0,0.0,0.0,0.0,0.0,0.0,-0.7679,-0.7332,-0.6647,0.0,0.0,0.0,0.0,0.0,0.0,0.0,0.0,0.0,-0.6444,-0.718,-0.7984,-1.0199,-1.3904,-1.4699,-1.5984,-1.7715,-1.7422,-1.546,-1.2075,-0.9996,-0.7781,0.0,0.0,0.0,-0.5528,-0.4793,0.0,0.0,0.0,0.0,0.0,-0.6166,-0.6757,0.0,-0.8421,-0.9001,-0.9046,0.0,0.0,0.0,0.0,-0.632,-0.5693,-0.5693,-0.6573,-0.7513,-0.7561,-0.7344,-0.6995,-0.6603,-0.5929,-0.5283,-0.4881,-0.4824,-0.4975,-0.5415,-0.582,-0.6263,-0.6765,-0.8372,-1.0309,-1.2459,-1.538,-1.7983,-1.9774,-2.0634,-2.114,0.0,0.0,0.0,0.0,0.0,0.0,0.0,-1.9528,-1.92,-1.8496,-1.8458,-1.8066,-1.7229,-1.6993,-1.6557,-1.5959,-1.572,-1.5276,-1.4698,-1.4698,-1.4514,0.0,0.0,0.0,-1.3385,-1.2777,-1.2657,-1.2738,-1.1773,-1.111,-1.0596,-0.9067,-0.8222,-0.7652,0.0,0.0,0.0,0.0,0.0,0.0,0.0,0.0,0.0,0.0,0.0,0.0,0.0,0.0,0.0,0.0,0.0,0.0,0.0,0.0,0.0,0.0,0.0,-0.7264,-0.8119,-0.8136,-1.0166,-1.4344,-1.4765,-1.6289,-1.8724,-1.8031,-1.6241,-1.3379,-0.8999,-0.6495,0.0,0.0,-0.4848,-0.5355,-0.4718,0.0,0.0,0.0,0.0,0.0,0.0,0.0,0.0,-0.8112,-0.8637,-0.8603,-0.7865,0.0,0.0,0.0,0.0,0.0,-0.4635,-0.641,-0.8102,-0.7587,-0.7137,-0.6782,-0.6735,-0.5676,-0.4723,-0.4769,-0.4785,-0.4941,-0.5364,-0.6421,-0.7117,-0.6807,-0.9883,-1.3147,-1.5451,-1.6601,-1.7858,-1.9591,-2.0383,0.0,0.0,0.0,0.0,0.0,0.0,0.0,0.0,-2.0416,-2.0024,-1.9251,-1.914,-1.8902,-1.843,-1.7693,-1.7079,-1.6634,-1.6015,-1.5499,-1.5096,-1.5017,-1.4926,0.0,0.0,0.0,-1.4322,-1.3355,-1.3069,-1.3168,-1.2581,-1.1799,-1.0905,-1.0515,-0.9857,-0.8984,0.0,0.0,0.0,0.0,0.0,0.0,0.0,0.0,0.0,0.0,0.0,0.0,0.0,0.0,0.0,0.0,0.0,0.0,0.0,0.0,0.0,-0.857,-0.7967,-0.8271,-0.9629,-0.9663,-1.0944,-1.3583,-1.6069,-1.754,-1.8031,-2.0991,-1.9502,-1.4174,-1.0284,-0.7452,-0.5545,-0.481,-0.4503,-0.4481,-0.4382,0.0,0.0,0.0,0.0,0.0,0.0,0.0,0.0,-0.674,-0.7459,-0.7831,-0.7095,0.0,0.0,0.0,0.0,0.0,-0.5274,-0.7315,-0.8591,-0.5752,-0.5475,-0.5732,-0.5118,-0.4835,-0.471,-0.4719,-0.4761,-0.5438,-0.7549,-0.7084,-0.7003,-0.8934,-1.1835,-1.4934,-1.7985,-1.9793,-2.1028,-2.1609,0.0,0.0,0.0,0.0,0.0,0.0,0.0,0.0,0.0,-2.0894,-2.0829,-2.0682,-2.0299,-2.0058,-1.9974,-1.8168,-1.7463,-1.7854,-1.6854,-1.657,-1.6883,-1.6441,-1.5964,0.0,0.0,-1.5997,-1.5892,-1.6219,-1.6184,-1.5874,-1.542,-1.4557,-1.3338,-1.1769,-1.0938,-1.0143,0.0,0.0,0.0,0.0,0.0,0.0,0.0,0.0,0.0,0.0,0.0,0.0,0.0,0.0,0.0,0.0,0.0,0.0,0.0,0.0,0.0,-1.0686,-1.0402,-1.0256,-1.0326,-1.0676,-1.2389,-1.5504,-1.6937,-1.8524,-2.023,-1.9519,-1.6847,-1.2517,-0.9201,-0.6927,-0.5545,-0.481,-0.4431,-0.4302,0.0,0.0,0.0,0.0,0.0,0.0,0.0,0.0,0.0,0.0,-0.718,-0.7595,-0.6461,0.0,0.0,0.0,0.0,0.0,-0.4911,-0.6456,-0.7767,-0.6833,-0.8304,-0.9887,-0.9581,-0.9237,-0.8677,-0.7668,-0.7476,-0.7683,-0.8282,-0.8997,-1.0705,-1.4381,-1.5149,-1.632,-1.929,-1.9808,-2.0275,0.0,0.0,0.0,0.0,0.0,0.0,0.0,0.0,0.0,0.0,0.0,-2.1213,-2.1007,-2.0797,-2.0682,-2.0682,-1.9474,-1.8754,-1.8535,-1.7747,-1.7353,-1.7312,-1.7034,-1.6612,-1.612,0.0,-1.6934,-1.6812,-1.6741,-1.6613,-1.6327,-1.5196,-1.4447,-1.3791,-1.2622,-1.1589,-1.063,0.0,0.0,0.0,0.0,0.0,0.0,0.0,0.0,0.0,0.0,0.0,0.0,0.0,0.0,0.0,0.0,0.0,0.0,0.0,0.0,-0.9755,-1.1688,-1.2111,-1.2239,-1.2147,-1.259,-1.4406,-1.759,-1.8178,-1.9782,-2.217,-1.7746,-1.4098,-1.1114,-0.8219,-0.6344,-0.5308,-0.4736,-0.4419,-0.4273,0.0,0.0,0.0,0.0,0.0,0.0,0.0,0.0,0.0,0.0,0.0,0.0,0.0,0.0,0.0,-0.5338,-0.4863,-0.4787,-0.4973,-0.6162,-0.7572,-0.8452,-1.0339,-1.223,-1.3189,-1.2507,-1.1421,-1.0621,-1.047,-1.0221,-0.9374,-1.1205,-1.4137,-1.8007,-1.7917,-1.8229,-2.069,-2.0278,-2.0212,0.0,0.0,0.0,0.0,0.0,0.0,0.0,0.0,0.0,0.0,0.0,-2.1628,-2.1323,-2.1197,-2.115,-2.115,-2.0635,-2.0032,-1.9383,-1.8707,-1.8246,-1.7958,-1.7746,-1.7368,-1.6879,-1.7224,-1.7384,-1.7375,-1.6871,-1.6596,-1.6409,-1.5085,-1.4307,-1.3878,-1.3143,-1.2012,-1.0789,0.0,0.0,0.0,0.0,0.0,0.0,0.0,0.0,0.0,0.0,0.0,0.0,0.0,0.0,0.0,0.0,0.0,0.0,0.0,0.0,-0.9281,-1.0119,-1.1536,-1.3692,-1.6651,-1.6597,-1.7157,-1.8401,-2.0429,-2.1639,-2.202,-1.7828,-1.436,-1.1548,-0.8833,-0.6496,-0.4584,-0.4516,-0.4385,-0.4201,-0.4201,0.0,0.0,0.0,0.0,0.0,0.0,0.0,0.0,0.0,0.0,0.0,0.0,0.0,-0.7532,-0.6549,-0.5921,-0.5673,-0.6352,-0.7895,-0.9331,-0.9488,-0.8344,-0.8132,-1.1684,-1.0613,-0.9562,-1.1907,-1.2452,-1.2361,-1.1989,-1.3344,-1.4924,-1.6146,-1.8866,-2.1407,-2.3037,0.0,0.0,0.0,0.0,0.0,0.0,0.0,0.0,0.0,0.0,0.0,0.0,0.0,0.0,-2.2209,-2.1794,-2.1552,-2.1552,-2.115,-2.0926,-2.0829,-1.9782,-1.9557,-1.9951,-1.9097,-1.8398,-1.7851,-1.7489,-1.7338,-1.7388,-1.733,-1.7223,-1.7049,-1.6916,-1.586,-1.4247,-1.3253,-1.2012,-1.0789,0.0,0.0,0.0,0.0,0.0,0.0,0.0,0.0,0.0,0.0,0.0,0.0,0.0,0.0,0.0,0.0,0.0,0.0,0.0,-0.844,-0.9517,-1.1581,-1.2646,-1.4092,-1.6046,-1.7702,-1.9342,-2.093,-2.1618,-2.0972,-1.9059,-1.5975,-1.2802,-0.963,-0.7693,-0.6168,-0.5029,-0.4536,-0.4528,-0.4836,-0.4334,-0.4067,0.0,0.0,0.0,0.0,0.0,0.0,0.0,0.0,-0.54,-0.6236,-0.5264,-0.6189,-0.7351,-0.6038,-0.5626,-0.5642,-0.5797,-0.7623,-0.9515,-0.9532,-0.9328,-1.0155,-1.4063,-1.4581,-1.4529,-1.5509,-1.5754,-1.539,-1.4009,-1.6152,-1.8161,-1.8314,-2.0853,-2.3176,-2.4171,0.0,0.0,0.0,0.0,0.0,0.0,0.0,0.0,0.0,0.0,0.0,0.0,0.0,0.0,-2.2537,-2.2215,-2.2032,-2.2032,-2.1886,-2.1811,-2.1781,-2.0863,-2.0322,-2.0206,-1.9847,-1.9007,-1.7899,-1.8495,-1.8358,-1.7792,-1.8179,-1.814,-1.7667,-1.6578,-1.5498,-1.4486,-1.3757,-1.314,-1.2609,0.0,0.0,0.0,0.0,0.0,0.0,0.0,0.0,0.0,0.0,0.0,0.0,0.0,0.0,0.0,0.0,0.0,0.0,-0.8387,-0.8403,-0.9388,-1.1575,-1.2574,-1.368,-1.499,-1.7981,-2.0104,-2.1234,-2.151,-1.9981,-1.6765,-1.4272,-1.1753,-0.9195,-0.7126,-0.6217,-0.6165,-0.5015,-0.4785,-0.5168,-0.4412,-0.4012,0.0,0.0,0.0,0.0,0.0,0.0,0.0,0.0,-0.5112,-0.5851,-0.5251,-0.6166,-0.7249,-0.615,-0.6187,-0.6504,-0.6152,-0.7493,-0.9104,-0.97,-1.022,-1.1618,-1.554,-1.6413,-1.6872,-1.8556,-1.8656,-1.7975,-1.638,-1.8549,-2.0513,-2.0324,-2.2559,-2.4481,0.0,0.0,0.0,0.0,0.0,0.0,0.0,0.0,0.0,0.0,0.0,0.0,0.0,0.0,0.0,0.0,-2.2527,-2.2269,-2.1955,-2.2192,-2.2192,-2.1955,-2.1576,-2.1228,-2.0863,-2.0464,-1.9617,-1.8435,-1.8972,-1.8731,-1.791,-1.8425,-1.8356,-1.7751,-1.6205,-1.5365,-1.4926,-1.4329,-1.3956,-1.3732,0.0,0.0,0.0,0.0,0.0,0.0,0.0,0.0,0.0,0.0,0.0,0.0,0.0,0.0,0.0,0.0,0.0,0.0,-0.8374,-0.8403,-0.8733,-0.9448,-1.0897,-1.2457,-1.4115,-1.7541,-1.9111,-1.8702,-2.0034,-1.8972,-1.5694,-1.3032,-1.1508,-1.0822,-0.7509,-0.6791,-0.7962,-0.6019,-0.5173,-0.506,-0.4384,-0.4027,-0.3906,0.0,0.0,0.0,0.0,0.0,0.0,0.0,-0.5031,-0.5399,-0.6537,-0.7128,-0.7371,-0.7222,-0.7891,-0.8523,-0.785,-0.7765,-0.8285,-1.0132,-1.0621,-1.1652,-1.5464,-1.4948,-1.5182,-2.0594,-2.0881,-1.9929,-1.9246,-2.0384,-2.1465,-2.1582,-2.375,0.0,0.0,0.0,0.0,0.0,0.0,0.0,0.0,0.0,0.0,0.0,0.0,0.0,0.0,0.0,0.0,0.0,-2.2695,-2.2211,-2.1221,-2.1921,-2.1921,-2.1221,-2.1938,-2.231,-2.2248,-2.1059,-2.0212,-1.9668,-1.8791,-1.8104,-1.7632,-1.7971,-1.7787,-1.7175,-1.6058,-1.5632,-1.5543,-1.4926,-1.4329,-1.3815,0.0,0.0,0.0,0.0,0.0,0.0,0.0,0.0,0.0,0.0,0.0,0.0,0.0,0.0,0.0,0.0,0.0,0.0,-0.804,-0.804,-0.836,-0.905,-0.9958,-1.0461,-1.0458,-1.2355,-1.5113,-1.8702,-1.8145,-1.595,-1.2284,-1.1954,-1.0477,-0.8109,-0.8063,-0.7828,-0.735,-0.57,-0.5602,-0.6463,-0.5182,-0.4642,-0.4608,0.0,0.0,0.0,0.0,0.0,0.0,0.0,0.0,0.0,-0.5391,-0.631,-0.7128,-0.6481,-0.663,-0.6839,-0.6089,-0.8329,-1.0719,-0.9944,-1.2599,-1.5845,-1.7591,-1.7616,-1.8275,-2.1872,-2.2353,-2.1668,-2.0098,-2.1759,-2.2949,-2.1679,-2.3728,0.0,0.0,0.0,0.0,0.0,0.0,0.0,0.0,0.0,0.0,0.0,0.0,0.0,0.0,0.0,0.0,0.0,-2.2643,-2.2297,-2.1421,-2.1487,-2.1667,-2.1972,-2.1667,-2.1803,-2.2248,-2.1389,-2.0739,-2.0303,-1.9719,-1.9227,-1.8842,-1.8716,-1.8341,-1.7773,-1.7079,-1.6557,-1.6151,-1.5555,-1.5231,-1.4994,0.0,0.0,0.0,0.0,0.0,0.0,0.0,0.0,-0.7899,-0.7899,-0.7899,-0.7899,0.0,0.0,0.0,-0.7899,-0.7899,0.0,-0.7899,-0.7899,-0.8079,-0.8484,-0.8889,-0.9278,-0.9653,-1.0922,-1.2777,-1.5201,-1.5186,-1.3531,-1.0473,-1.164,-1.0997,-0.8887,-0.9698,-0.9527,-0.8514,-0.6824,-0.6318,-0.6595,-0.5667,-0.5287,-0.5257,0.0,0.0,0.0,0.0,0.0,0.0,0.0,0.0,0.0,-0.4818,-0.5535,-0.6306,-0.6422,-0.7005,-0.7665,-0.7961,-1.0153,-1.2445,-1.2844,-1.4926,-1.7404,-1.9371,-2.0109,-2.0781,-2.2169,-2.2716,-2.2605,-2.1464,-2.2918,0.0,0.0,0.0,0.0,0.0,0.0,0.0,0.0,0.0,0.0,0.0,0.0,0.0,0.0,0.0,0.0,0.0,0.0,0.0,0.0,-2.3051,-2.2652,-2.1755,-2.1915,-2.1901,-2.1738,-2.1499,-2.1438,-2.1523,-2.0976,-2.0598,-2.0339,-2.0019,-1.9846,-1.969,-1.9141,-1.8688,-1.838,-1.7827,-1.7312,-1.6782,-1.6416,-1.5971,-1.5543,0.0,0.0,0.0,0.0,0.0,0.0,0.0,-0.7899,-0.7899,-0.7899,-0.7899,-0.7899,0.0,0.0,0.0,-0.7899,-0.7899,-0.7899,-0.7899,-0.7899,-0.7899,-0.7899,-0.7899,-0.8753,-1.0588,-1.17,-1.1407,-0.962,-1.1647,-1.1602,-0.9665,-1.1811,-1.2351,-1.155,-1.1775,-1.1386,-1.0409,-0.8513,-0.7047,-0.5993,-0.5933,-0.5903,-0.5829,-0.5222,0.0,0.0,0.0,0.0,0.0,0.0,0.0,0.0,-0.4683,-0.4901,-0.5188,-0.6652,-0.825,-0.9905,-1.161,-1.2476,-1.3699,-1.7108,-1.7192,-1.7348,-2.074,-2.21,-2.2511,-2.1945,-2.2456,-2.303,-2.3096,-2.3738,-2.4525,0.0,0.0,0.0,0.0,0.0,0.0,0.0,0.0,0.0,0.0,0.0,0.0,0.0,0.0,0.0,0.0,0.0,0.0,0.0,-2.3699,-2.3207,-2.2162,-2.2698,-2.2304,0.0,-2.1266,-2.1025,-2.0384,-2.011,-2.001,-2.0043,-2.001,-2.0114,-2.023,-1.9325,-1.893,-1.8855,-1.838,-1.7867,-1.7394,-1.7394,-1.6701,-1.5752,0.0,0.0,0.0,0.0,0.0,0.0,-0.7899,-0.7899,-0.7899,-0.7899,-0.7899,-0.7899,-0.7899,-0.7899,0.0,-0.7899,-0.7899,-0.7899,-0.7899,-0.7899,-0.7899,-0.7899,-0.7899,-0.8334,-0.9278,-0.8558,-0.796,-0.7556,-1.0024,-0.998,-0.7631,-1.1152,-1.1632,-0.9608,-1.1677,-1.1077,-0.8423,-0.6944,-0.6467,-0.6631,-0.6112,-0.5903,-0.5888,-0.5739,-0.5024,0.0,0.0,0.0,0.0,0.0,0.0,0.0,-0.4683,-0.4901,-0.497,-0.5322,-0.7114,-0.8936,-0.884,-1.1866,-1.5079,-1.5266,-1.7301,-1.9648,-2.1152,-2.1658,-2.2128,-2.3328,-2.3703,-2.3852,-2.3935,-2.3545,0.0,0.0,0.0,0.0,0.0,0.0,0.0,0.0,0.0,0.0,0.0,0.0,0.0,0.0,0.0,0.0,0.0,0.0,0.0,-2.3412,-2.3593,-2.3292,-2.2416,-2.1743,-2.1525,0.0,-2.0441,-1.9999,-2.0384,-2.011,-2.0133,-2.0428,-2.0649,-2.0589,-2.0246,-1.9752,-1.9281,-1.8893,-1.8765,-1.8419,-1.7947,-1.7947,-1.7504,-1.6925,0.0,0.0,0.0,0.0,0.0,0.0,0.0,0.0,-0.7899,-0.7899,-0.7899,-0.7779,-0.7451,-0.7421,0.0,0.0,-0.7241,-0.7421,-0.7421,-0.7719,-0.7899,-0.7899,-0.8199,-0.8229,-0.7944,-0.7584,-0.7062,-0.6422,-0.8109,-0.8409,-0.7436,-1.0443,-1.1117,-0.9875,-1.1565,-1.0672,-0.7869,-0.7496,-0.6987,-0.6422,-0.6392,-0.6377,-0.6317,-0.566,-0.4988,-0.4331,-0.401,0.0,0.0,0.0,0.0,0.0,0.0,0.0,-0.4573,-0.5343,-0.6766,-0.8471,-1.029,-1.3022,-1.5626,-1.667,-1.8456,-2.0106,-2.0651,-2.11,-2.1693,-2.2649,-2.2543,-2.2414,-2.2837,0.0,0.0,0.0,0.0,0.0,0.0,0.0,0.0,0.0,0.0,0.0,0.0,0.0,0.0,0.0,0.0,0.0,0.0,-2.4439,-2.4084,-2.3878,-2.3216,-2.3013,-2.3299,-2.2001,-2.1526,-2.1902,-2.0303,-1.976,-2.0208,-2.045,-2.0666,-2.0861,-2.115,-2.1039,-2.0583,-2.0158,-1.9717,-1.9281,-1.9281,-1.8968,-1.8458,-1.8185,-1.7747,-1.7271,0.0,0.0,0.0,0.0,0.0,0.0,0.0,0.0,0.0,-0.7899,-0.7899,-0.7644,-0.6972,-0.6912,-0.6631,0.0,0.0,0.0,-0.6897,-0.754,-0.7944,-0.8064,-0.8394,-0.8094,-0.7092,-0.7285,-0.6897,-0.5903,-0.6452,-0.7182,-0.8109,-0.995,-1.0678,-1.0503,-1.1176,-1.0069,-0.7749,-0.8079,-0.7255,-0.5769,-0.6332,-0.6553,-0.6434,-0.5311,-0.4818,-0.4653,-0.4107,-0.3906,-0.3906,-0.3906,0.0,0.0,0.0,0.0,-0.4167,-0.5497,-0.6602,-0.8237,-1.2103,-1.4428,-1.636,-1.8948,-1.957,-1.9632,-1.9905,-2.0546,-2.111,-2.1222,-2.0853,-2.0716,0.0,0.0,0.0,0.0,0.0,0.0,0.0,0.0,0.0,0.0,0.0,0.0,0.0,0.0,0.0,0.0,0.0,0.0,-2.5167,-2.4298,-2.3986,-2.4382,-2.2834,-2.2597,-2.3805,-2.2317,-2.1565,-2.1565,-2.0532,-2.0145,-2.0306,-2.1113,-2.1443,-2.1414,-2.1529,-2.1399,-2.1055,-2.0616,-2.0227,-1.9925,-1.9854,-1.9536,-1.908,-1.8701,-1.8138,-1.754,0.0,0.0,0.0,0.0,0.0,0.0,0.0,0.0,0.0,0.0,-0.7899,-0.7644,-0.6972,-0.6912,-0.6631,-0.5963,-0.5978,-0.6287,-0.6867,0.0,0.0,-0.874,-0.7749,-0.7346,-0.7764,-0.6146,-0.5506,-0.5903,-0.5993,-0.6972,-0.88,-1.0159,-1.0219,-0.919,-0.9863,-0.8992,-0.6972,-0.5891,-0.5276,-0.5042,-0.5132,-0.5162,-0.5156,-0.4976,-0.4533,-0.4032,-0.3935,-0.3906,-0.3906,-0.3906,-0.3906,0.0,0.0,0.0,-0.3943,-0.4167,-0.5896,-0.8031,-0.9383,-1.4152,-1.8867,-1.9448,-1.9082,-1.8802,-1.9639,-2.0017,-2.0184,-2.0203,-2.0802,0.0,0.0,0.0,0.0,0.0,0.0,0.0,0.0,0.0,0.0,0.0,0.0,0.0,0.0,0.0,0.0,0.0,0.0,0.0,-2.5352,-2.4369,-2.3831,-2.3878,-2.2651,-2.2086,-2.2277,-2.1226,-2.0668,-2.0668,-2.097,-2.1217,-2.1416,-2.2159,-2.2373,-2.213,-2.1744,-2.1552,-2.1491,-2.1086,-2.0862,-2.0797,-2.0398,-2.0177,-2.0135,-2.0281,-1.9649,-1.8672,0.0,0.0,0.0,0.0,0.0,0.0,0.0,0.0,0.0,0.0,0.0,-0.7644,-0.6972,-0.6571,-0.6078,-0.5391,-0.5332,-0.578,-0.6838,-0.7074,-0.7474,-0.8136,-0.717,-0.6581,-0.6507,-0.5402,-0.5174,-0.5848,-0.5505,-0.6565,-0.8905,-0.9098,-0.9276,-0.9428,-0.8588,-0.7526,-0.6302,-0.572,-0.5252,-0.4901,-0.4901,-0.5941,-0.7245,-0.5142,-0.5226,-0.6251,-0.4524,-0.3906,-0.3906,-0.3906,-0.3906,-0.3906,-0.3906,0.0,0.0,0.0,-0.4985,-0.6898,-1.0174,-1.4054,-1.754,-1.9062,-1.8832,-1.848,-1.9469,-1.9381,-1.9246,-1.9785,0.0,0.0,0.0,0.0,0.0,0.0,0.0,0.0,0.0,0.0,0.0,0.0,0.0,0.0,0.0,0.0,0.0,0.0,0.0,-2.5294,-2.481,-2.3833,-2.3228,-2.308,-2.1649,-2.1234,-2.199,-2.0667,-2.0108,-2.0334,-2.0987,-2.1419,-2.1628,-2.2348,-2.2563,-2.2282,-2.2077,-2.1823,-2.1582,-2.1399,-2.1213,-2.0959,-2.0748,-2.0516,-2.0323,-2.0533,-2.0089,-1.9484,0.0,0.0,0.0,0.0,0.0,0.0,0.0,0.0,0.0,0.0,0.0,-0.7584,-0.6735,0.0,0.0,0.0,-0.4638,-0.5147,-0.6314,-0.6419,-0.6635,-0.7127,-0.6402,-0.575,-0.5204,-0.4742,-0.4819,-0.5501,-0.5183,-0.6422,-0.908,-0.8392,-0.8914,-1.0294,-0.8124,-0.678,-0.6127,-0.5784,-0.5361,-0.4946,-0.5456,-0.7042,-0.8847,-0.6531,-0.7092,-0.8693,-0.5722,-0.466,-0.4585,-0.407,-0.3906,-0.3906,-0.3906,-0.3906,0.0,0.0,0.0,-0.5493,-0.9348,-1.2412,-1.5111,-1.7691,-1.787,-1.7803,-1.9207,-1.9104,-1.8902,0.0,0.0,0.0,0.0,0.0,0.0,0.0,0.0,0.0,0.0,0.0,0.0,0.0,0.0,0.0,0.0,0.0,0.0,0.0,0.0,-2.4982,-2.4335,-2.3195,-2.247,-2.2257,-2.0785,-2.0467,-2.1428,-2.0373,-2.0086,-2.0608,-2.1369,-2.187,-2.2148,-2.2709,-2.2755,-2.2415,-2.2321,-2.2106,-2.1794,-2.1794,-2.1598,-2.1323,-2.1103,-2.0797,-2.0509,-2.0721,-2.0494,-2.0163,0.0,0.0,0.0,0.0,0.0,0.0,0.0,0.0,0.0,0.0,0.0,-0.7391,-0.6097,-0.5918,-0.5381,-0.407,-0.395,-0.4256,-0.4961,-0.559,-0.5918,-0.5892,-0.5246,0.0,-0.4649,-0.4003,-0.3998,-0.4669,-0.5143,-0.6856,-0.9644,-0.892,-0.9677,-1.1595,-0.9008,-0.7466,-0.6778,-0.5491,-0.4931,-0.5066,-0.697,-0.7839,-0.8169,-0.9815,-1.0548,-1.0328,-0.769,-0.6748,-0.6452,-0.454,-0.3906,-0.3906,-0.3906,-0.3906,-0.3906,0.0,0.0,0.0,-0.4288,-0.8008,-1.243,-1.5039,-1.5678,-1.6269,-1.8757,-1.9434,-1.9559,-1.9609,0.0,0.0,0.0,0.0,0.0,0.0,0.0,0.0,0.0,0.0,0.0,0.0,0.0,0.0,0.0,0.0,0.0,0.0,0.0,-2.4355,-2.4296,-2.2627,-2.1622,-2.1554,-2.0546,-1.9981,-1.9929,-2.0278,-2.0886,-2.173,-2.2538,-2.3138,-2.3577,-2.3631,-2.33,-2.266,-2.2398,-2.2282,-2.2254,-2.2254,-2.2254,-2.2152,-2.1323,-2.1007,-2.1037,-2.147,-2.1215,-2.0766,0.0,0.0,0.0,0.0,0.0,0.0,0.0,0.0,0.0,0.0,0.0,0.0,0.0,-0.5526,-0.5072,-0.4578,-0.4152,-0.4182,-0.4856,-0.5003,-0.5242,-0.5662,-0.4907,-0.4467,-0.4416,-0.3836,-0.3867,-0.4534,-0.4341,-0.5603,-0.8206,-0.7511,-0.8105,-0.9677,-0.799,-0.7361,-0.7391,-0.5192,-0.4503,-0.51,-0.7371,-0.9471,-1.1253,-1.1244,-1.2613,-1.4015,-1.0191,-0.8134,-0.7078,-0.6152,-0.4973,-0.3906,-0.3906,-0.3906,-0.3742,-0.2922,-0.2683,-0.2683,-0.2683,-0.5845,-0.9515,-1.1008,-1.3076,-1.5101,-1.6538,-1.7381,-1.8158,-1.9191,0.0,0.0,0.0,0.0,0.0,0.0,0.0,0.0,0.0,0.0,0.0,0.0,0.0,0.0,0.0,0.0,0.0,0.0,0.0,0.0,-2.268,-2.2012,-2.1382,-2.0754,-2.0387,-2.0308,-2.057,-2.0653,-2.133,-2.2575,-2.2868,-2.3249,-2.3692,-2.3692,-2.3346,-2.2695,-2.2599,-2.2463,-2.231,-2.231,-2.231,-2.2282,-2.1961,-2.1955,-2.2134,-2.2413,-2.2501,-2.2496,0.0,0.0,0.0,0.0,0.0,0.0,0.0,0.0,-0.681,-0.6586,0.0,0.0,0.0,0.0,-0.5386,-0.4946,-0.4286,-0.4092,-0.4533,-0.4418,-0.4519,-0.491,-0.4353,-0.4035,-0.4035,-0.3637,-0.3677,-0.4169,-0.3903,-0.4923,-0.7126,-0.6856,-0.7555,-0.897,-0.7545,-0.7271,-0.7764,-0.576,-0.5167,-0.5822,-0.8767,-1.1034,-1.2678,-1.2869,-1.4203,-1.5544,-1.2026,-0.9903,-0.8761,-0.8928,-0.7929,-0.6303,-0.4478,-0.3294,-0.243,-0.1577,-0.1949,-0.2639,-0.2639,-0.4518,-0.6705,-0.7592,-0.9321,-1.1692,-1.5071,-1.6128,-1.6991,-1.8904,0.0,0.0,0.0,0.0,0.0,0.0,0.0,0.0,0.0,0.0,0.0,0.0,0.0,0.0,0.0,0.0,0.0,0.0,0.0,0.0,-2.1809,-2.1438,-2.0963,-2.0312,-2.0233,-2.0461,-2.0985,-2.1139,-2.1819,-2.2997,-2.3272,-2.3562,-2.3876,-2.4148,-2.3755,-2.2908,-2.3414,-2.3273,-2.2682,-2.2682,-2.2818,-2.3021,-2.2589,-2.2715,-2.3095,-2.3047,-2.3296,-2.3693,0.0,0.0,0.0,0.0,0.0,0.0,0.0,0.0,-0.6661,-0.6022,0.0,0.0,0.0,0.0,0.0,-0.5042,-0.4316,-0.3921,-0.3906,-0.3832,-0.3741,-0.362,-0.3544,-0.35,-0.35,-0.3378,-0.337,-0.3492,-0.3879,-0.4915,-0.6541,-0.7055,-0.8181,-0.9677,-0.7721,-0.7213,-0.7794,-0.7107,-0.6838,-0.7212,-1.1167,-1.2404,-1.2163,-1.4866,-1.5525,-1.4807,-1.3255,-1.2202,-1.1732,-1.2813,-1.2606,-1.095,-0.5549,-0.2072,0.0,0.0,-0.1804,-0.3801,0.0,0.0,0.0,-0.4925,-0.4557,-0.6093,-1.4266,-1.5868,-1.6287,-1.8687,0.0,0.0,0.0,0.0,0.0,0.0,0.0,0.0,0.0,0.0,0.0,0.0,0.0,0.0,0.0,0.0,0.0,0.0,0.0,-2.1794,-2.1761,-2.0883,-2.0371,-2.0292,-2.0134,-2.038,-2.1042,-2.1718,-2.2377,-2.3052,-2.3841,-2.4226,-2.4226,-2.5072,-2.4638,-2.3336,-2.4853,-2.4749,-2.349,-2.3456,-2.3849,-2.436,-2.3217,-2.3241,-2.3902,-2.3361,-2.3619,-2.4328,0.0,0.0,0.0,0.0,0.0,-0.7839,-0.7659,-0.7212,-0.6825,0.0,0.0,0.0,-0.5252,-0.5341,-0.5506,-0.5615,-0.5003,-0.4429,-0.3935,-0.3884,-0.3855,-0.3818,-0.3749,-0.3678,-0.3579,-0.3487,-0.3412,-0.3349,-0.3467,-0.3956,-0.4803,-0.495,-0.5565,-0.6547,-0.6037,-0.6019,-0.6306,-0.5208,-0.5302,-0.6505,-1.0337,-1.2506,-1.3815,-1.6934,-1.8663,-1.925,-1.7747,-1.6336,-1.5156,-1.5244,-1.2695,-0.8661,-0.4,-0.1369,0.0,0.0,-0.0507,-0.1491,-0.3384,0.0,0.0,0.0,0.0,0.0,-0.7078,-1.3022,-1.7943,-1.6789,0.0,0.0,0.0,0.0,0.0,0.0,0.0,0.0,0.0,0.0,0.0,0.0,0.0,0.0,0.0,0.0,0.0,0.0,-2.1934,-2.152,-2.0882,-2.0519,-2.0314,-2.0292,-2.0798,-2.1407,-2.208,-2.2758,-2.3416,-2.4094,-2.4745,-2.4759,-2.4245,-2.564,-2.5597,-2.4459,-2.5184,-2.5632,-2.5775,-2.4663,-2.4337,-2.4458,-2.413,-2.4454,-2.5061,-2.4526,-2.4846,-2.5464,0.0,0.0,-0.7899,-0.7899,-0.8124,-0.8124,-0.757,-0.7391,-0.7122,0.0,0.0,0.0,-0.6161,-0.64,-0.6505,-0.6332,-0.5446,-0.4728,-0.4346,-0.4025,-0.3862,-0.3862,-0.3772,-0.3711,-0.3681,-0.3592,-0.3498,-0.3427,-0.3399,-0.3545,-0.3857,-0.4159,-0.4556,-0.5002,-0.511,-0.5228,-0.531,-0.4224,-0.4767,-0.6697,-1.097,-1.3147,-1.4173,-1.7355,-1.9149,-1.986,-1.9131,-1.8476,-1.8004,-1.8518,-1.4437,-0.8771,-0.6514,-0.3512,-0.0729,-0.0164,-0.0775,-0.1953,-0.3488,-0.3101,-0.2281,-0.243,0.0,0.0,-0.6475,-1.1044,0.0,0.0,0.0,0.0,0.0,0.0,0.0,0.0,0.0,0.0,0.0,0.0,0.0,0.0,0.0,0.0,0.0,0.0,0.0,0.0,-2.1201,-2.0989,-2.0494,-2.0374,-2.0326,-2.0292,-2.1081,-2.1818,-2.2498,-2.3145,-2.3844,-2.4495,-2.4856,-2.4727,-2.4245,-2.5611,-2.5745,-2.4956,-2.5846,-2.6445,-2.6747,-2.6156,-2.5807,-2.5637,-2.5162,-2.5406,-2.5982,-2.5364,-2.5629,-2.6262,0.0,0.0,-0.7929,-0.7989,-0.8574,-0.8619,-0.7511,-0.778,-0.7735,0.0,-0.7004,-0.7616,-0.8364,-0.8725,-0.8454,-0.7331,-0.5865,-0.4982,-0.4901,-0.4221,-0.3809,-0.3809,-0.3696,-0.3681,-0.3779,-0.3665,-0.3597,-0.3573,-0.3503,-0.3475,-0.3488,-0.4162,-0.4466,-0.4466,-0.4609,-0.4664,-0.4603,-0.3922,-0.4998,-0.7589,-1.2198,-1.3829,-1.3828,-1.7065,-1.8486,-1.8825,-1.9101,-1.9647,-2.036,-2.1427,-1.7104,-1.118,-1.0511,-0.6942,-0.2669,-0.094,-0.1983,-0.3727,-0.3861,-0.3339,-0.322,-0.5188,-0.4681,0.0,-0.8994,-0.9792,-1.1481,0.0,0.0,0.0,0.0,0.0,0.0,0.0,0.0,0.0,0.0,0.0,0.0,0.0,0.0,0.0,0.0,0.0,-2.0407,-2.0301,-2.0361,-2.0417,-2.0409,-2.0391,-2.0415,-2.045,-2.1224,-2.1981,-2.2683,-2.3335,-2.3963,-2.4559,-2.4622,-2.4484,-2.4284,-2.5412,-2.5628,-2.5163,-2.667,-2.7223,-2.7077,-2.767,-2.7678,-2.7265,-2.6221,-2.6182,-2.6673,-2.5964,-2.6133,-2.6691,-0.7899,-0.7899,-0.8064,-0.8619,-0.9263,-0.977,-0.9991,-0.974,-0.9785,-1.0548,-1.029,-1.0503,-1.1721,-1.0073,-0.9025,-0.9291,-0.7094,-0.5481,-0.4937,-0.4255,-0.3877,-0.3877,-0.3862,-0.3773,-0.3636,-0.3612,-0.3525,-0.3353,-0.3349,-0.334,-0.334,-0.3589,-0.3651,-0.3568,-0.3809,-0.385,-0.3768,-0.3824,-0.5837,-0.9157,-1.1122,-1.2739,-1.4415,-1.8539,-2.1043,-2.2399,-2.2456,-2.2586,-2.2299,-1.9504,-1.8653,-1.7148,-0.8143,-0.7152,-0.8505,-0.4356,-0.2773,-0.2589,-0.3622,-0.3771,-0.3757,-0.4189,-0.3324,0.0,-0.4794,-0.9317,-1.2775,0.0,0.0,0.0,0.0,0.0,0.0,0.0,0.0,0.0,0.0,0.0,0.0,0.0,0.0,0.0,0.0,0.0,-2.1005,-2.034,-2.0418,-2.0483,-2.0484,-2.0432,-2.0687,-2.1333,-2.2122,-2.2957,-2.3784,-2.4404,-2.4765,-2.4911,-2.5279,-2.5112,-2.4501,-2.648,-2.6982,-2.6322,-2.7616,-2.8304,-2.8549,-2.8094,-2.7869,-2.7736,-2.7191,-2.7057,-2.7129,-2.6655,-2.6573,-2.6691,-0.7899,-0.7899,-0.8214,-0.9218,-0.992,-1.0563,-1.1206,-1.1326,-1.1467,-1.176,-1.2104,-1.2179,-1.1835,-1.0942,-0.9953,-0.8993,-0.7376,-0.6123,-0.5436,-0.4764,-0.4256,-0.3921,-0.3906,-0.3847,-0.3751,-0.3751,-0.3651,-0.3452,-0.3452,-0.3394,-0.3306,-0.3432,-0.4154,-0.5274,-0.3597,-0.3872,-0.5517,-0.4314,-0.5889,-0.9406,-1.1747,-1.4047,-1.6471,-2.0483,-2.2672,-2.3689,-2.3874,-2.3697,-2.3105,-2.1174,-1.9185,0.0,-1.3422,-1.1395,-1.006,-0.8844,-0.6917,-0.4984,-0.4047,-0.3825,-0.3862,-0.3891,-0.3414,0.0,0.0,-1.0182,-1.249,-1.1164,-1.1263,0.0,0.0,0.0,0.0,0.0,0.0,0.0,0.0,0.0,0.0,0.0,0.0,0.0,0.0,0.0,-2.0757,-2.0376,-2.0418,-2.0458,-2.0492,-2.0435,-2.0769,-2.1565,-2.2389,-2.3225,-2.4091,-2.4698,-2.522,-2.5647,-2.5897,-2.597,-2.5928,-2.7009,-2.7436,-2.7391,-2.7876,-2.8432,-2.8952,-2.8601,-2.8456,-2.836,-2.7619,-2.7303,-2.7241,-2.6841,-2.6691,-2.6691,-0.7869,-0.7899,-0.8289,-0.9503,-1.0324,-1.1022,-1.17,-1.2254,-1.2471,-1.2044,-1.3271,-1.3615,-1.2097,-1.2515,-1.2029,-0.9785,-0.8992,-0.8064,-0.6765,-0.6045,-0.5381,-0.4704,-0.4182,-0.4129,-0.4608,-0.4113,-0.3751,-0.3573,-0.3557,-0.3477,-0.3336,-0.3452,-0.4634,-0.6603,-0.5256,-0.5618,-0.7137,-0.5639,-0.6983,-1.0354,-1.2885,-1.5823,-1.9012,-2.2241,-2.3942,-2.4663,-2.4702,-2.4323,-2.3714,-2.2958,-1.937,-1.5629,-1.8061,-1.5337,-1.1336,-1.163,-1.0651,-0.8717,-0.5102,-0.4164,-0.4182,-0.4114,-0.4137,-0.5088,0.0,0.0,0.0,0.0,0.0,0.0,0.0,0.0,0.0,0.0,0.0,0.0,0.0,0.0,0.0,0.0,0.0,0.0,0.0,0.0,-2.0385,-2.0618,-2.0508,-2.0521,-2.0737,-2.0522,-2.0852,-2.1842,-2.2474,-2.337,-2.4572,-2.4903,-2.5581,-2.6612,-2.6397,-2.6681,-2.7369,-2.7358,-2.7639,-2.809,-2.8046,-2.8411,-2.8994,-2.8994,-2.8994,-2.8905,-2.7823,-2.7426,-2.7365,-2.6873,-2.6691,-2.6691,-0.7779,-0.7899,-0.8139,-0.889,-0.9994,-1.1022,-1.17,-1.1865,-1.2089,-1.2621,-1.4375,-1.568,-1.601,-1.6622,-1.6667,-1.5786,-1.5141,-1.328,-0.968,-0.8814,-0.8154,-0.748,-0.5177,-0.4929,-0.7127,-0.4851,-0.3595,-0.3508,-0.3391,-0.3378,-0.3477,-0.3493,-0.3685,-0.4328,-1.1168,-1.1017,-0.576,-0.8542,-1.1565,-1.4422,-1.3563,-1.6351,0.0,-2.2996,-2.5179,-2.7197,-2.5931,-2.5423,-2.4816,0.0,-1.9738,-1.8276,-1.3252,-1.4413,-1.621,-0.8863,-0.9918,-1.2318,-0.7076,-0.5658,-0.552,-0.4937,-0.4961,-0.5067,-0.4749,0.0,-0.4144,-0.1896,0.0,0.0,0.0,0.0,0.0,0.0,0.0,0.0,0.0,0.0,0.0,0.0,0.0,0.0,0.0,0.0,0.0,-2.1417,-2.0858,-2.0828,-2.1602,-2.0863,-2.1141,-2.28,-2.2813,-2.3928,-2.6294,-2.562,-2.61,-2.7715,-2.6752,-2.6734,-2.7578,-2.7877,-2.8035,-2.8127,-2.8633,-2.8925,-2.8994,-2.8994,-2.8994,-2.8929,-2.8147,-2.784,-2.7754,-2.7004,-2.6691,-2.6691,-0.7182,-0.7644,-0.8229,-0.9293,-0.992,-1.0758,-1.2149,-1.3385,-1.4225,-1.4509,-1.5575,-1.6293,-1.6189,-1.6084,-1.62,-1.6676,-1.6135,-1.4576,0.0,-1.0944,-0.9426,-0.684,-0.5296,-0.496,-0.6017,-0.4546,-0.3698,-0.3555,-0.3501,-0.3444,-0.3373,-0.2939,-0.3883,-0.6181,-1.2037,-1.2712,-0.9562,-1.0739,-1.2391,-1.4234,0.0,-1.7562,0.0,-2.3616,-2.5412,-2.708,-2.6454,-2.5964,-2.534,0.0,-2.0743,0.0,-1.7926,-1.6398,-1.4014,-1.1415,-1.1253,-1.1009,-0.6949,-0.687,-0.7453,-0.5451,-0.6539,-0.7146,-0.3607,-0.3369,-0.3384,-0.1533,0.0,0.0,0.0,0.0,0.0,0.0,-0.265,0.0,0.0,0.0,0.0,0.0,0.0,0.0,0.0,0.0,0.0,0.0,0.0,-2.2247,-2.1888,-2.1455,-2.176,-2.2965,-2.2908,-2.4066,-2.6582,-2.6236,-2.6909,-2.8582,-2.8142,-2.8307,-2.9003,-2.9015,-2.8971,-2.8852,-2.8946,-2.8994,-2.8994,-2.8994,-2.8994,-2.8952,-2.8412,-2.8075,-2.784,-2.7272,-2.6906,-2.6691,-0.6526,-0.7167,-0.8004,-0.9142,-0.9518,-1.0223,-1.1969,-1.3505,-1.4644,-1.5184,-1.5635,-1.601,-1.6278,-1.6698,-1.7392,-1.8489,-1.9014,-1.7926,0.0,-1.3673,-1.186,-0.899,-0.6496,-0.5765,-0.7006,-0.5139,-0.3985,-0.3658,-0.3597,-0.3501,-0.334,-0.2849,-0.4,-0.6655,-1.0816,-1.2212,-1.1527,-1.2439,-1.3922,-1.5727,-1.6466,-1.9211,-2.3129,-2.5244,-2.6302,-2.6725,-2.6928,-2.6539,-2.5778,-2.4886,-2.1563,0.0,-2.0653,-1.7904,-1.384,-1.4262,-1.3674,-1.204,-0.815,-0.8513,-0.9211,-0.591,-0.6754,-0.7362,-0.3417,-0.3808,-0.4525,-0.2862,0.0,0.0,0.0,0.0,0.0,0.0,0.0,-0.337,0.0,0.0,0.0,0.0,0.0,0.0,0.0,0.0,0.0,0.0,0.0,0.0,-2.1925,-2.1813,-2.2051,-2.2634,-2.3011,-2.432,-2.6582,-2.6832,-2.7794,-2.9448,-2.9198,-2.9447,-3.0089,-2.9832,-2.9626,-2.9455,-2.9138,-2.8994,-2.8994,-2.8994,-2.8994,-2.8952,-2.8682,-2.8342,-2.7964,-2.747,-2.7115,-2.6841,-0.5933,-0.6467,-0.7152,-0.7839,-0.8514,-0.9368,-1.0663,-1.0917,-1.1649,-1.3615,-1.3885,-1.483,-1.7354,-2.047,-2.2623,-2.3311,-2.622,-2.5543,-1.9767,0.0,-1.6487,-1.6368,-0.9615,-0.7931,-1.2348,-0.74,-0.4447,-0.3786,-0.3603,-0.3501,-0.3501,-0.3608,-0.3642,-0.3812,-0.7986,-0.9452,-0.9102,-1.3517,-1.7626,-2.107,-2.015,-2.1399,-2.4298,0.0,-2.8586,-2.6793,-2.752,0.0,0.0,-2.316,-2.1965,0.0,0.0,0.0,0.0,0.0,0.0,0.0,0.0,0.0,0.0,-0.6335,0.0,0.0,0.0,0.0,-0.703,-0.4391,-0.2832,0.0,0.0,0.0,0.0,0.0,0.0,0.0,0.0,0.0,0.0,0.0,0.0,0.0,0.0,0.0,0.0,0.0,0.0,0.0,-2.1854,-2.1777,-2.1781,-2.1744,-2.3243,-2.488,-2.6582,-2.7448,-2.8698,-3.034,-2.9506,-2.9544,-3.0367,-2.9896,-2.9696,-2.9661,-2.9206,-2.8994,-2.8994,-2.8994,-2.8994,-2.8994,-2.8994,-2.8749,-2.8298,-2.7572,-2.7303,-2.7241,-0.6482,-0.6735,-0.7107,-0.7779,-0.8079,-0.8829,-1.0529,-1.1191,-1.2803,-1.6471,-1.6977,0.0,0.0,-2.3179,-2.4632,0.0,0.0,-2.5995,-2.1795,-1.9284,0.0,-1.6741,-1.0198,-0.8483,-1.2607,-0.7511,-0.4697,-0.4462,-0.3861,-0.3573,-0.3573,-0.362,-0.3665,-0.388,-0.79,-1.0678,-1.2463,-1.4263,-1.7114,-2.0345,0.0,-2.1052,-2.3664,0.0,0.0,-2.6449,-2.7449,-2.762,0.0,-2.5628,-2.3698,-2.2061,-2.2324,-2.012,-1.7524,-1.8044,-1.7489,0.0,0.0,0.0,-1.4529,-0.714,0.0,0.0,0.0,0.0,0.0,0.0,0.0,0.0,0.0,-0.2938,0.0,0.0,0.0,0.0,0.0,0.0,0.0,0.0,0.0,0.0,0.0,0.0,0.0,0.0,0.0,0.0,0.0,-2.2655,-2.2875,-2.3344,-2.4436,-2.5805,-2.7428,-2.8275,-2.9275,-3.0398,-3.0102,-3.0023,-3.0136,-2.9969,-2.9829,-2.9696,-2.9533,-2.9395,-2.9267,-2.9267,-2.9156,-2.8994,-2.8994,-2.8929,-2.8725,-2.7964,-2.7695,-2.7678,-0.6867,-0.7092,-0.7391,-0.7824,-0.8094,-0.8754,-1.0264,-1.1431,0.0,0.0,-1.8458,0.0,-2.4061,0.0,-2.599,0.0,-2.858,-2.6962,-2.2753,-2.1566,0.0,-1.8181,-1.378,-1.2902,-1.611,-1.0558,-0.7388,-0.6945,-0.4977,-0.3884,-0.3605,-0.3579,-0.3616,-0.3827,-0.688,-1.0349,-1.3994,-1.5192,-1.8063,-2.176,0.0,-2.1907,0.0,0.0,-2.5499,-2.5345,0.0,-2.8467,-2.8163,-2.7672,-2.5982,-2.4301,-2.5576,-2.3009,-1.9794,-2.1082,-2.0207,-1.8585,-1.7455,-1.8293,0.0,-1.1336,-1.0229,0.0,-0.2244,0.0,-0.7745,0.0,0.0,0.0,0.0,0.0,0.0,0.0,0.0,0.0,0.0,-0.2609,0.0,0.0,0.0,0.0,0.0,0.0,0.0,0.0,0.0,0.0,0.0,0.0,-2.333,-2.3757,-2.4909,-2.6125,-2.7428,-2.8544,-2.9544,-3.0398,-3.0398,-3.0311,-3.0136,-3.0028,-2.9939,-2.9796,-2.9731,-2.9644,-2.9494,-2.9434,-2.9289,-2.9134,-2.904,-2.8994,-2.8929,-2.8308,-2.7992,-2.7897,-0.7077,-0.7481,-0.7944,-0.7944,-0.8454,0.0,0.0,0.0,-1.3937,0.0,-1.8392,-2.0336,-2.4376,-2.587,-2.7064,-2.8334,-3.0135,-2.8803,-2.3096,-2.4414,0.0,0.0,-2.0023,-2.048,-2.2622,-1.6093,-1.2097,-1.0893,-0.6802,-0.4403,-0.3662,-0.3566,-0.3517,-0.3578,-0.4991,-0.8515,-1.3557,-1.6068,-2.0235,-2.5077,-2.4036,-2.3872,-2.4313,-2.5222,-2.4554,-2.3838,-2.8429,-2.9651,-2.9025,-2.8991,-2.8484,-2.7757,-2.7029,-2.6285,-2.5524,-2.4797,-2.505,-2.4596,-2.0305,-2.0127,-2.0649,-1.837,0.0,0.0,0.0,0.0,-1.1171,0.0,0.0,0.0,0.0,0.0,0.0,0.0,0.0,0.0,0.0,0.0,0.0,0.0,0.0,0.0,0.0,0.0,0.0,0.0,0.0,0.0,0.0,0.0,-2.3195,-2.3139,-2.4715,-2.5919,-2.6659,-2.8275,-2.9544,-3.0398,-3.0398,-3.0398,-3.0398,-3.0136,-3.0013,-3.0013,-2.9813,-2.9731,-2.9696,-2.9513,-2.9414,-2.9392,-2.9134,-2.9017,-2.8952,-2.8565,-2.821,-2.7926,-0.7674,-0.8184,-0.8649,-0.8649,-0.8379,-0.8874,0.0,0.0,0.0,0.0,-2.139,-2.3538,-2.8896,-2.9753,-3.0061,-3.0448,-3.0915,0.0,0.0,0.0,0.0,-2.5654,-2.1709,-2.1118,-2.458,-1.675,-1.2475,-1.2211,-0.724,-0.4716,-0.4555,-0.4036,-0.3795,-0.3861,-0.5228,-0.8711,-1.359,-1.4381,-1.8018,-2.3348,-2.3888,-2.3645,0.0,0.0,-2.6405,-2.5262,-2.8817,-2.9989,-2.9736,-2.9161,-2.8839,-2.8653,-2.845,-2.7486,-2.637,-2.6184,-2.5473,-2.4644,-2.4022,-2.3718,-2.2924,-2.006,-2.0346,-1.9976,0.0,0.0,0.0,0.0,0.0,0.0,0.0,0.0,0.0,0.0,0.0,0.0,0.0,0.0,0.0,0.0,0.0,0.0,0.0,0.0,0.0,0.0,0.0,0.0,0.0,0.0,0.0,-2.4832,-2.5906,-2.6817,-2.7563,-2.8582,-2.9544,-3.0398,-3.0398,-3.0398,-3.0398,-3.0323,-3.0299,-3.0299,-3.0241,-3.0095,-2.9924,-2.9861,-2.9765,-2.9607,-2.9394,-2.9178,-2.8994,-2.8887,-2.8608,-2.8406,-0.7959,-0.8679,-0.9413,-0.9698,0.0,0.0,-1.3744,-1.2666,0.0,-2.158,-2.303,0.0,-2.9127,-3.1134,-3.2154,-3.2154,-3.2154,0.0,-2.7695,0.0,0.0,-2.7066,-2.5477,-2.5681,-2.7885,-2.1537,0.0,-1.5255,-1.0224,-0.6776,-0.4838,-0.4109,-0.3803,-0.3921,-0.5258,-0.8245,-1.2511,-1.6066,-1.931,-2.2248,-2.4365,0.0,0.0,-2.7479,-2.8169,-2.8174,-2.9935,-3.0581,-3.0514,-3.0091,-2.9736,-2.9482,-2.9482,-2.8653,-2.7706,-2.7706,-2.686,-2.5964,-2.6065,-2.5778,-2.4966,-2.2912,-2.389,-2.4208,-1.9706,-1.9077,-1.909,0.0,0.0,0.0,0.0,0.0,0.0,0.0,0.0,0.0,0.0,0.0,0.0,0.0,0.0,0.0,0.0,0.0,0.0,0.0,0.0,0.0,0.0,0.0,0.0,-2.4393,-2.4096,-2.5035,-2.7354,-2.6602,-2.7441,-2.9833,-3.0217,-3.0398,-3.0398,-3.0398,-3.0398,-3.0398,-3.0398,-3.0311,-3.0182,-3.0061,-2.9939,-2.9813,-2.9607,-2.966,-2.9874,-2.9874,-2.9595,-2.9344,-0.8019,-0.9112,-1.0264,-1.0618,-1.3999,0.0,0.0,-1.5649,0.0,-2.2441,0.0,-2.6007,-2.8039,-3.1341,-3.3406,-3.3406,0.0,-3.1938,-2.8481,-3.0892,-3.0858,-2.7305,-2.9825,-3.1292,-3.119,-2.7397,-2.314,0.0,-1.388,-0.9274,-0.4803,-0.4003,-0.3704,-0.3875,-0.513,-0.7766,-1.1736,-1.8884,-2.1908,-2.2183,-2.5357,-2.7333,-2.8329,-2.8605,-2.9738,-3.119,-3.119,-3.119,-3.119,-3.119,-3.0768,-3.0243,-3.0243,-2.9736,-2.9127,-2.9127,-2.8586,-2.7824,-2.7182,-2.6911,-2.6674,-2.593,-2.5744,-2.485,-2.1423,-2.0228,-1.9529,-1.85,-1.6398,-1.5835,0.0,0.0,0.0,0.0,0.0,0.0,0.0,0.0,0.0,0.0,0.0,0.0,0.0,0.0,0.0,0.0,0.0,0.0,0.0,0.0,0.0,-2.3155,-2.1618,0.0,-2.5963,0.0,-2.4965,-2.8412,-2.9756,-3.0398,-3.0398,-3.0398,-3.0398,-3.0398,-3.0398,-3.0398,-3.0379,-3.015,-3.0028,-2.9984,-2.9813,-3.0258,-3.0996,-3.1109,-3.0934,-3.072,-0.7929,-0.9815,-1.1161,-1.0219,-1.3296,-1.7181,-2.0991,-2.1646,-2.2883,-2.6229,-2.7748,-2.952,-3.2107,-3.2975,-3.3406,-3.3406,-3.3406,0.0,0.0,0.0,0.0,-3.06,-3.1539,-3.1799,-3.1207,-2.7397,-2.314,0.0,-1.3923,-0.9345,-0.4875,-0.4173,-0.3869,-0.3914,-0.4702,-0.8674,-1.5016,-1.7987,0.0,-2.4887,-2.7087,-2.8103,-2.8483,-3.0101,-3.0915,-3.119,-3.119,-3.119,-3.119,-3.119,-3.1106,-3.1004,-3.1004,-3.0497,-2.9922,-2.9922,-2.9381,-2.8755,-2.8619,-2.8112,-2.7452,-2.6691,-2.6505,-2.6167,-2.4884,-2.4968,-2.5086,-2.4298,-2.3755,-2.2714,-2.0364,0.0,0.0,0.0,0.0,0.0,0.0,0.0,0.0,0.0,0.0,0.0,0.0,0.0,0.0,0.0,0.0,0.0,0.0,0.0,0.0,0.0,-2.3755,0.0,0.0,0.0,0.0,-2.4768,-2.8587,-3.0398,-3.0398,-3.0398,-3.0398,-3.0398,-3.0398,-3.0398,-3.0398,-3.0355,-3.0196,-2.9999,-2.9969,-3.0392,-3.1071,-3.1751,-3.2354,-3.286,-1.0372,-1.1161,-1.2372,-1.421,-1.7167,0.0,0.0,-2.7411,0.0,-2.8122,-2.8932,-3.0039,-3.1328,-3.3305,-3.4556,-3.4556,-3.4556,-3.4408,-3.4108,-3.4037,-3.3667,-3.3064,-3.2555,-3.2121,-3.1765,-2.9559,-2.5144,-1.8493,0.0,-1.145,-0.5091,-0.4271,-0.3906,-0.4025,-0.7077,-1.0336,-1.394,0.0,0.0,-2.5071,-2.8452,-2.9789,-2.9928,-3.0825,-3.119,-3.119,-3.119,-3.119,-3.119,-3.119,-3.119,-3.119,-3.119,-3.0954,-3.0666,-3.0666,-3.0142,-2.9567,-2.9567,-2.9008,-2.8247,-2.7469,-2.7283,-2.6979,-2.5862,-2.5879,-2.6031,-2.5676,-2.5609,-2.4608,-2.1378,-1.5512,0.0,0.0,0.0,0.0,0.0,0.0,0.0,0.0,0.0,0.0,0.0,0.0,0.0,0.0,0.0,0.0,0.0,0.0,0.0,0.0,0.0,0.0,0.0,0.0,0.0,-2.6075,-2.9031,-3.0442,-3.0442,-3.0425,-3.0398,-3.0398,-3.0398,-3.0398,-3.0398,-3.0398,-3.0323,-3.0247,-3.0707,-3.1336,-3.2084,-3.2943,-3.3783,-3.4456,-1.3426,-1.3105,-1.4124,-1.8818,-2.1631,0.0,-2.8031,-3.1587,-3.2883,-3.0213,-3.0359,-3.0761,-3.0929,-3.3717,-3.5622,-3.5622,-3.5622,-3.5622,-3.5622,-3.5064,-3.4658,-3.4506,-3.322,-3.2442,-3.2313,-3.1562,-2.7432,0.0,0.0,-1.3774,-0.643,-0.4705,-0.4417,-0.5528,0.0,0.0,0.0,0.0,-2.5245,-2.6017,-2.9715,-3.119,-3.119,-3.119,-3.119,-3.119,-3.119,-3.119,-3.119,-3.119,-3.119,-3.119,-3.119,-3.119,-3.119,-3.119,-3.0784,-3.0345,-3.0345,-2.9803,-2.9076,-2.8467,-2.818,-2.7723,-2.6387,-2.6082,-2.6031,-2.5879,-2.5964,-2.5164,-2.2254,-1.8926,0.0,0.0,0.0,0.0,0.0,0.0,0.0,0.0,0.0,0.0,0.0,0.0,0.0,0.0,0.0,0.0,0.0,0.0,0.0,0.0,0.0,-2.0465,-2.3549,0.0,-2.4993,0.0,-2.9458,-3.0498,-3.0498,-3.0439,-3.0398,-3.0398,-3.0398,-3.0398,-3.0398,-3.0398,-3.0513,-3.0737,-3.1429,-3.2295,-3.3256,-3.3949,-3.4757,-3.5446,-1.5927,-1.588,-1.6884,-2.1544,0.0,0.0,-2.8265,-3.2462,-3.5064,-3.4057,-3.3989,-3.4293,-3.4969,-3.5374,-3.5622,-3.5622,-3.5622,-3.5622,-3.5622,-3.5554,-3.5199,-3.4523,-3.3728,-3.2983,-3.229,-3.1562,-2.8786,0.0,0.0,-1.5097,-1.0194,-0.5909,-0.6143,0.0,0.0,0.0,0.0,-2.3409,-2.6236,-3.0598,-3.1021,-3.119,-3.119,-3.119,-3.119,-3.119,-3.119,-3.119,-3.119,-3.119,-3.119,-3.119,-3.119,-3.119,-3.119,-3.119,-3.114,-3.1089,-3.1089,-3.0565,-2.9989,-2.9905,-2.9381,-2.8653,-2.7807,-2.757,-2.7384,-2.6725,-2.7131,-2.6455,-2.2755,-2.3464,-2.2419,0.0,0.0,0.0,0.0,0.0,-2.4136,-2.4188,0.0,0.0,0.0,0.0,0.0,0.0,0.0,0.0,0.0,0.0,0.0,-1.9236,0.0,-1.8352,-1.6989,-2.4099,0.0,-2.4424,-2.8541,-3.0498,-3.0498,-3.0439,-3.0398,-3.0398,-3.0398,-3.0398,-3.0398,-3.0398,-3.0871,-3.1583,-3.1679,-3.266,-3.4083,-3.416,-3.4757,-3.5493,0.0,0.0,0.0,0.0,0.0,0.0,0.0,-3.4671,-3.5842,-3.6468,-3.6535,-3.6654,-3.6958,-3.6586,-3.6315,-3.6315,-3.5893,-3.5622,-3.5622,-3.5622,-3.5487,-3.5182,-3.4455,-3.3711,-3.2983,-3.2222,-2.9394,0.0,0.0,0.0,0.0,-0.8246,0.0,0.0,0.0,-2.0444,-2.3944,-2.6809,-2.9006,-3.0581,-3.1021,-3.119,-3.119,-3.119,-3.119,-3.119,-3.119,-3.119,-3.119,-3.119,-3.119,-3.119,-3.119,-3.119,-3.119,-3.119,-3.119,-3.119,-3.119,-3.097,-3.0649,-3.0226,-2.9888,-2.9448,-2.8687,-2.8163,-2.7705,-2.7435,-2.757,-2.7691,-2.7262,-2.5777,-2.4341,0.0,0.0,0.0,0.0,0.0,0.0,-2.3476,0.0,0.0,0.0,0.0,0.0,0.0,0.0,0.0,0.0,0.0,0.0,-1.4418,0.0,-2.2278,-1.9312,-2.5728,-2.8415,-2.7338,-2.9556,-3.0608,-3.0628,-3.0559,-3.0532,-3.0524,-3.0419,-3.0417,-3.0491,-3.0983,-3.1391,-3.1795,-3.2814,-3.3603,-3.4257,-3.4795,-3.5199,-3.5493,-2.7219,0.0,-2.659,0.0,-3.1122,-3.1398,-3.64,-3.684,-3.6992,-3.8091,-3.8413,-3.8379,-3.7956,-3.7432,-3.711,-3.711,-3.6417,-3.596,-3.596,-3.574,-3.5622,-3.5622,-3.4895,0.0,-3.3423,-3.2662,-3.0362,-2.6404,-2.253,0.0,0.0,-1.2973,0.0,0.0,-2.2752,-2.4652,-2.5864,-2.936,-3.07,-3.048,-3.0987,-3.119,-3.119,-3.119,-3.119,-3.119,-3.119,-3.119,-3.119,-3.119,-3.119,-3.119,-3.119,-3.119,-3.119,-3.119,-3.119,-3.119,-3.119,-3.119,-3.1072,-3.0548,-3.0429,-3.0226,-2.9482,-2.9059,-2.8822,-2.8822,-2.8636,-2.8861,-3.0208,-2.7952,-2.6225,-2.7384,0.0,0.0,0.0,-2.6961,0.0,0.0,-2.0923,-1.9098,-1.749,0.0,0.0,0.0,0.0,0.0,0.0,0.0,0.0,0.0,0.0,0.0,0.0,-2.6859,-2.9588,-2.9854,-3.0409,-3.0684,-3.0693,-3.0638,-3.0606,-3.0619,-3.077,-3.0868,-3.0975,-3.1776,-3.2251,-3.2579,-3.3744,-3.4353,-3.4661,-3.5276,-3.5493,-3.5493,-3.0784,-2.9568,-2.9872,-3.6632,-3.6162,-3.5518,-3.7557,-3.8497,-3.8954,-3.8971,-3.9597,-3.9512,-3.8075,-3.7889,-3.7889,-3.7889,-3.7195,-3.6772,-3.6772,-3.6045,-3.5622,0.0,0.0,-3.415,-3.3423,-3.2662,-3.1901,-3.1123,0.0,0.0,-2.5159,-2.0703,-2.0653,-2.4298,-2.3624,-2.6219,-3.1055,-3.0395,-3.0531,-3.119,-3.119,-3.119,-3.119,-3.119,-3.119,-3.119,-3.119,-3.119,-3.119,-3.119,-3.119,-3.119,-3.119,-3.119,-3.119,-3.119,-3.119,-3.119,-3.119,-3.119,-3.119,-3.119,-3.119,-3.0987,-3.026,-3.0649,-3.1157,-3.1157,-3.0581,-3.0091,-3.0108,-3.0343,-2.9089,-2.4691,0.0,0.0,0.0,0.0,0.0,-2.3356,-1.8884,-1.7319,-1.9973,0.0,0.0,0.0,0.0,0.0,0.0,0.0,0.0,-2.0996,-2.127,0.0,-2.2576,-2.7052,-2.9762,-3.0677,-3.0622,-3.0641,-3.0693,-3.0638,-3.0606,-3.0645,-3.1501,-3.1876,-3.1948,-3.2749,-3.3548,-3.4265,-3.4217,-3.4737,-3.5488,-3.5507,-3.5493,-3.5493,-3.5643,-3.5295,-3.5367,-3.752,-3.7357,-3.7309,-3.8497,-3.8853,-3.9174,-3.9665,-3.9935,-3.9901,-3.9445,-3.8937,-3.865,0.0,-3.7973,-3.733,0.0,-3.6552,-3.618,-3.5639,-3.5402,-3.4912,-3.4167,-3.3423,-3.2679,-3.1935,0.0,0.0,0.0,-2.3955,-2.5328,-2.9022,-2.8786,-2.9634,-3.1173,-3.0954,-3.0987,-3.119,-3.119,-3.119,-3.119,-3.119,-3.119,-3.119,-3.119,-3.119,-3.119,-3.119,-3.119,-3.119,-3.119,-3.119,-3.119,-3.119,-3.119,-3.119,-3.119,-3.119,-3.119,-3.119,-3.119,-3.1258,-3.1529,-3.1765,-3.1799,-3.1292,-3.1004,-3.0852,-3.0852,-3.1148,-3.1046,-2.9927,-3.0455,0.0,0.0,0.0,-2.6549,-2.3284,-2.012,-1.8915,0.0,-2.3537,0.0,0.0,0.0,0.0,0.0,0.0,0.0,0.0,-2.5388,0.0,-2.3429,-2.786,-3.0273,-3.0561,-3.058,-3.0635,-3.072,-3.1289,-3.1607,-3.1725,-3.2465,-3.2805,-3.292,-3.3725,-3.4209,-3.4493,-3.5025,-3.5396,-3.5639,-3.5639,-3.5639,-3.5639,-3.8717,-3.8717,-3.8717,-3.8717,-3.8717,-3.887,-3.9326,-3.9394,-3.9563,-4.002,-4.007,-4.007,-4.007,-3.9681,0.0,-3.9394,-3.8734,-3.8108,-3.7652,-3.7094,-3.6569,-3.6079,-3.5774,-3.5267,-3.4506,0.0,0.0,-3.2696,-3.0116,-2.8676,-2.8407,-2.8407,-2.9387,-3.119,-3.119,-3.119,-3.119,-3.119,-3.119,-3.119,-3.119,-3.119,-3.119,-3.119,-3.119,-3.119,-3.119,-3.119,-3.119,-3.119,-3.119,-3.119,-3.119,-3.119,-3.119,-3.119,-3.119,-3.119,-3.119,-3.119,-3.119,-3.119,-3.119,-3.1461,-3.2476,-3.2696,-3.2645,-3.2476,-3.1985,-3.1596,-3.1596,-3.1598,-3.177,-3.2417,-3.2092,-3.1631,-3.1124,0.0,-2.6212,0.0,0.0,0.0,0.0,-2.3993,0.0,0.0,0.0,0.0,0.0,0.0,0.0,-2.4481,-2.8318,0.0,-2.5828,-2.8907,-3.0472,-3.0498,-3.0892,-3.1115,-3.1176,-3.2059,-3.2517,-3.2651,-3.3393,-3.3756,-3.3895,-3.469,-3.5032,-3.5071,-3.5522,-3.5703,-3.5703,-3.5703,-3.5703,-3.5703,-4.0223,-4.0223,0.0,0.0,-4.0155,0.0,-4.0087,-4.007,-4.007,-4.007,-4.007,-4.007,-4.007,-4.007,-4.007,-4.007,0.0,0.0,0.0,-3.7702,-3.6891,-3.6772,-3.6079,-3.5351,-3.459,-3.4523,-3.4134,-3.3406,-3.4083,-3.4066,-3.3406,-3.3406,-3.2679,-3.1343,-3.1343,-3.1309,-3.1275,-3.1275,-3.1241,-3.119,-3.119,-3.119,-3.119,-3.119,-3.119,-3.119,-3.119,-3.119,-3.119,-3.119,-3.119,-3.119,-3.119,-3.119,-3.119,-3.119,-3.119,-3.119,-3.119,-3.119,-3.119,-3.119,-3.1275,-3.1732,-3.3152,-3.3525,-3.3744,-3.437,-3.3355,-3.2341,-3.229,-3.1681,-3.1449,-3.2316,-3.2309,-3.1505,-2.9536,0.0,-2.7263,0.0,0.0,0.0,0.0,-2.54,-2.729,0.0,0.0,0.0,0.0,0.0,-2.4183,-2.9121,-3.0006,-3.0006,-2.9198,-2.9987,-3.0458,-3.0586,-3.1518,-3.1988,-3.2007,-3.2889,-3.3326,-3.3438,-3.4323,-3.4734,-3.4844,-3.5667,-3.6004,-3.5981,-3.5928,-3.5898,-3.5898,-3.5898,-3.5898,-3.5898,0.0,0.0,-4.1593,-4.1035,-4.0933,-4.0747,-4.0172,-4.007,-4.007,-4.007,-4.007,-4.007,-4.007,-4.007,-4.007,-4.007,-3.9918,-3.958,-3.9039,-3.8667,-3.7973,-3.6823,-3.6603,-3.6146,-3.5368,-3.4793,-3.4134,-3.3406,-3.3575,-3.3575,-3.3406,-3.3406,-3.322,-3.2882,-3.2882,-3.256,-3.2019,-3.2019,-3.1698,-3.119,-3.119,-3.119,-3.119,-3.119,-3.119,-3.119,-3.119,-3.119,-3.119,-3.119,-3.119,-3.119,-3.119,-3.119,-3.119,-3.119,-3.119,-3.119,-3.119,-3.119,-3.119,-3.119,-3.2053,-3.3119,-3.4032,-3.4692,-3.4979,-3.4573,-3.3761,-3.2966,-3.2391,-3.1681,-3.1351,-3.1897,-3.0318,-2.9015,-2.8845,-2.7098,0.0,0.0,-2.4094,-2.4963,-2.7202,-2.7414,-2.8724,0.0,0.0,0.0,0.0,-2.807,-2.6995,-3.0968,-3.0641,-3.0302,-3.0102,-3.0314,-3.0729,-3.143,-3.2329,-3.2753,-3.2772,-3.3807,-3.4289,-3.4339,-3.5265,-3.5683,-3.5762,-3.662,-3.697,-3.7029,-3.767,-3.7903,-3.7903,-3.7903,-3.7903,-3.7903,-4.2878,-4.2811,-4.2574,-4.183,-4.1694,-4.1457,-4.0713,-4.0595,-4.046,-4.0121,-4.007,-4.007,-4.007,-4.007,-4.007,-4.007,-4.007,-3.9918,-3.9512,-3.9174,-3.8633,-3.7821,-3.7144,-3.6586,-3.6163,-3.5402,-3.481,-3.4421,-3.4421,-3.4235,-3.3897,-3.3897,-3.3728,-3.3406,-3.3406,-3.3186,-3.278,-3.2425,-3.2053,-3.1664,-3.1326,-3.119,-3.119,-3.119,-3.119,-3.119,-3.119,-3.119,-3.119,-3.119,-3.119,-3.119,-3.119,-3.119,-3.119,-3.119,-3.119,-3.119,-3.119,-3.119,-3.1275,-3.1613,-3.256,-3.3592,-3.432,-3.5081,-3.5504,-3.5098,-3.4421,-3.3778,-3.3372,-3.2696,-3.223,-3.232,-3.0434,-2.8887,-2.8728,-2.6708,0.0,-2.7229,-2.7081,-2.8012,-3.0976,-3.0921,-3.137,-3.2982,0.0,0.0,-3.3897,-3.1306,-3.033,-3.166,-3.1602,-3.1371,-3.1006,-3.1371,-3.1775,-3.2256,-3.313,-3.3564,-3.3626,-3.461,-3.5104,-3.522,-3.5728,-3.6208,-3.6621,-3.7109,-3.7539,-3.7949,-3.8418,-3.8594,-3.8594,-3.8594,-3.8594,-3.8594,-4.3724,-4.3589,-4.3352,-4.2591,-4.2472,-4.2219,-4.1474,-4.1271,-4.0984,-4.0341,-4.0155,-4.007,-4.007,-4.007,-4.007,-4.007,-4.007,-4.007,-4.007,-3.9495,-3.9106,-3.8988,-3.7787,-3.7009,-3.6772,-3.6011,-3.5622,-3.5622,-3.5622,-3.5301,-3.4675,-3.4675,-3.4336,-3.3744,-3.3744,-3.3677,-3.3525,-3.2882,-3.2476,-3.2263,-3.1613,-3.1292,-3.119,-3.119,-3.119,-3.119,-3.119,-3.119,-3.119,-3.119,-3.119,-3.119,-3.119,-3.119,-3.119,-3.119,-3.119,-3.119,-3.119,-3.1275,-3.1529,-3.2256,-3.3017,-3.3761,-3.4489,-3.5165,-3.5622,-3.5622,-3.5013,-3.4489,-3.4489,-3.3897,-3.3039,-3.2038,-3.0492,-2.9039,-2.7888,0.0,-2.7145,-3.0317,-3.0494,-3.1628,-3.4871,-3.4578,-3.4271,-3.4513,-3.4543,0.0,0.0,-3.4542,-3.3516,-3.2244,-3.2648,-3.2564,-3.1891,-3.2699,-3.3103,-3.3103,-3.3968,-3.4429,-3.4515,-3.5272,-3.5784,-3.6068,-3.6102,-3.663,-3.7519,-3.7637,-3.8125,-3.8809,-3.8945,-3.8984,-3.8984,-3.8984,-3.8984,-3.8984,-4.4418,-4.4401,-4.4147,-4.3386,-4.325,-4.2997,-4.2236,-4.1593,-4.117,-4.1035,-4.0476,-4.007,-4.007,-4.007,-4.007,-4.007,-4.007,-4.007,-4.007,-3.9969,-3.9631,-3.9022,-3.8768,-3.8058,-3.6806,-3.6011,-3.5622,-3.5622,-3.5622,-3.5554,-3.5453,-3.5453,-3.5385,-3.5284,-3.5284,-3.4928,-3.432,-3.4201,-3.3423,-3.2313,-3.2195,-3.1749,-3.119,-3.119,-3.119,-3.119,-3.119,-3.119,-3.119,-3.119,-3.119,-3.119,-3.119,-3.119,-3.119,-3.119,-3.119,-3.119,-3.119,-3.1647,-3.229,-3.3051,-3.3778,-3.4523,-3.5267,-3.5537,-3.5622,-3.5622,-3.5013,-3.4489,-3.4489,-3.3897,-3.1918,-2.7419,-2.646,-2.5607,-2.3659,0.0,-2.7975,-3.1153,-3.3702,-3.5457,-3.6046,-3.5991,-3.5928,-3.5965,-3.6181,-3.6342,-3.644,-3.5829,-3.5191,-3.4514,-3.347,-3.2833,-3.2718,-3.3564,-3.3987,-3.4007,-3.4891,-3.5309,-3.5316,-3.5581,-3.6093,-3.6851,-3.7016,-3.7578,-3.8457,-3.9199,-3.957,-3.9766,-4.0508,-4.0801,-4.0801,-4.0801,-4.0801,-4.0801,-4.4587,-4.4587,-4.4468,-4.4113,-4.4045,-4.3792,-4.3014,-4.2608,-4.2117,-4.1305,-4.0899,-4.0527,-4.0121,-4.007,-4.007,-4.007,-4.007,-4.007,-4.007,-4.007,-3.9935,-3.9597,-3.9208,-3.8294,-3.6806,-3.6011,-3.5622,-3.5622,-3.5622,-3.5622,-3.5622,-3.5622,-3.5622,-3.5622,-3.5622,-3.5419,-3.5081,-3.4675,-3.41,-3.3406,-3.2594,-3.2087,-3.1732,-3.1343,-3.119,-3.119,-3.119,-3.119,-3.119,-3.119,-3.119,-3.119,-3.119,-3.119,-3.119,-3.119,-3.119,-3.1275,-3.1664,-3.2019,-3.2544,-3.3711,-3.4252,-3.4692,-3.5453,-3.5622,-3.5622,-3.5622,-3.5351,-3.5098,-3.5098,-3.4827,-3.3187,-2.8875,-2.8588,0.0,0.0,-2.854,-3.0953,-3.4407,-3.5692,-3.6468,-3.689,-3.6541,-3.6303,-3.6303,-3.6408,-3.6562,-3.6682,-3.644,-3.6235,-3.6118,-3.4489,-3.3833,-3.4295,-3.4699,-3.4911,-3.4911,-3.5315,-3.5509,-3.557,-3.5631,-3.6137,-3.7007,-3.7099,-3.7901,-3.9169,-3.9564,-3.9993,-4.0422,-4.0832,-4.1026,-4.1082,-4.1082,-4.1149,-4.1191,-4.4587,-4.4587,-4.4587,-4.4587,-4.4587,-4.4384,-4.3775,-4.3538,-4.3014,-4.1863,-4.1424,-4.0984,-4.0409,-4.0189,-4.007,-4.007,-4.007,-4.007,-4.007,-4.007,-4.007,-4.007,-3.9377,-3.8379,-3.706,-3.6282,-3.5808,-3.5622,-3.5622,-3.5622,-3.5622,-3.5622,-3.5622,-3.5622,-3.5622,-3.5622,-3.5588,-3.5013,-3.4658,-3.4387,-3.3068,-3.2442,-3.2205,-3.1461,-3.119,-3.119,-3.119,-3.119,-3.119,-3.119,-3.119,-3.119,-3.119,-3.119,-3.119,-3.119,-3.1309,-3.1562,-3.2138,-3.2408,-3.2865,-3.4167,-3.4624,-3.4912,-3.5487,-3.5622,-3.5622,-3.5622,-3.5622,-3.5622,-3.5622,-3.5622,-3.4324,-3.0466,0.0,0.0,0.0,-3.1462,-3.3612,-3.7161,-3.7161,-3.7092,-3.7716,-3.7221,-3.6853,-3.6853,-3.6853,-3.6951,-3.7145,-3.7153,-3.7224,-3.7382,-3.5637,-3.4952,-3.5493,-3.5493,-3.5493,-3.5493,-3.5493,-3.5612,-3.5867,-3.588,-3.6513,-3.7564,-3.7588,-3.8471,-3.9879,-3.9879,-4.0249,-4.0801,-4.0801,-4.0864,-4.0955,-4.0955,-4.1023,-4.1105,-4.4587,-4.4587,-4.4587,-4.4587,-4.4587,-4.4553,-4.4502,-4.3876,-4.3386,-4.3267,-4.2066,-4.1187,-4.1119,-4.0493,-4.007,-4.007,-4.007,-4.007,-4.007,-4.007,-4.007,-4.007,-3.9377,-3.8633,-3.7838,-3.7077,-3.6349,-3.5622,-3.5622,-3.5622,-3.5622,-3.5622,-3.5622,-3.5622,-3.5622,-3.5622,-3.5622,-3.5554,-3.5131,-3.4421,-3.3643,-3.2899,-3.2205,-3.1461,-3.119,-3.119,-3.119,-3.119,-3.119,-3.119,-3.119,-3.119,-3.119,-3.119,-3.119,-3.119,-3.1664,-3.2246,-3.2313,-3.2797,-3.3508,-3.4303,-3.5013,-3.5554,-3.5605,-3.5622,-3.5622,-3.5622,-3.5622,-3.5622,-3.5622,-3.5622,-3.3921,-2.8743,0.0,0.0,-2.8966,-3.1235,-3.4305,-3.748,-3.8255,-3.856,-3.8615,-3.856,-3.8524,-3.8524,-3.8524,-3.8524,-3.8554,-3.8536,-3.8451,-3.8233,-3.6863,-3.5949,-3.5493,-3.5493,-3.5493,-3.5493,-3.5493,-3.5892,-3.6617,-3.6745,-3.7693,-3.9226,-3.9352,-3.9898,-4.0704,-4.0704,-4.0762,-4.0801,-4.0801,-4.0801,-4.0809,-4.0809,-4.0816,-4.0824,-4.4587,-4.4587,-4.4587,-4.4587,-4.4587,-4.4587,-4.4587,-4.4333,-4.3961,-4.3487,-4.2929,-4.2236,-4.1305,-4.095,-4.0595,-4.0121,-4.007,-4.007,-4.007,-4.007,-4.007,-4.007,-3.9377,-3.887,-3.8582,-3.7398,-3.6637,-3.6332,-3.5859,-3.5622,-3.5622,-3.5622,-3.5622,-3.5622,-3.5622,-3.5622,-3.5622,-3.5622,-3.5453,-3.5131,-3.4387,-3.3643,-3.2899,-3.2154,-3.1596,-3.119,-3.119,-3.119,-3.119,-3.119,-3.119,-3.119,-3.119,-3.119,-3.119,-3.119,-3.1393,-3.1816,-3.273,-3.3525,-3.4252,-3.5013,-3.5402,-3.5622,-3.5622,-3.5622,-3.5622,-3.5622,-3.5622,-3.5622,-3.5622,-3.5622,-3.4435,-3.0781,0.0,-3.3381,-3.1239,-3.3682,-3.6238,-3.7716,-3.8382,-3.8707,-3.8707,-3.8707,-3.8707,-3.8707,-3.8707,-3.8792,-3.8933,-3.9136,-3.9076,-3.8627,-3.8118,-3.7577,-3.7065,-3.6507,-3.6238,-3.6238,-3.6238,-3.6411,-3.6719,-3.7307,-3.8234,-3.9334,-3.9399,-3.9869,-4.0604,-4.0604,-4.0604,-4.0604,-4.0604,-4.0665,-4.0742,-4.0742,-4.0752,-4.0801,-4.4587,-4.4587,-4.4587,-4.4587,-4.4587,-4.4587,-4.4587,-4.4587,-4.4384,-4.3859,-4.3572,-4.2946,-4.1677,-4.1339,-4.0899,-4.0138,-4.007,-4.007,-4.007,-4.007,-4.007,-4.007,-3.9597,-3.9225,-3.9005,-3.777,-3.7009,-3.6772,-3.5994,-3.5622,-3.5622,-3.5622,-3.5622,-3.5622,-3.5622,-3.5622,-3.5622,-3.5622,-3.5622,-3.5554,-3.4793,-3.4201,-3.3643,-3.2662,-3.1968,-3.1512,-3.1275,-3.119,-3.119,-3.119,-3.119,-3.119,-3.119,-3.119,-3.119,-3.119,-3.136,-3.1816,-3.3068,-3.3931,-3.4675,-3.5436,-3.5622,-3.5622,-3.5622,-3.5622,-3.5622,-3.5622,-3.5622,-3.5622,-3.5622,-3.5622,-3.5026,-3.3232,-3.4431,-3.5091,-3.3615,-3.5439,-3.7135,-3.7614,-3.815,-3.8496,-3.8658,-3.8707,-3.8707,-3.8707,-3.8707,-3.8833,-3.9099,-3.9414,-3.9488,-3.9223,-3.9204,-3.9066,-3.8796,-3.768,-3.7123,-3.7123,-3.7123,-3.7257,-3.7546,-3.8142,-3.8873,-3.9681,-3.9681,-3.9988,-4.0489,-4.0489,-4.0489,-4.0489,-4.0489,-4.0559,-4.0649,-4.0649,-4.0672,-4.0703,-4.4587,-4.4587,-4.4587,-4.4587,-4.4587,-4.4587,-4.4587,-4.4587,-4.4587,-4.4587,-4.391,-4.3149,-4.2388,-4.1644,-4.0916,-4.0155,-4.007,-4.007,-4.007,-4.007,-4.007,-4.007,-4.007,-3.9732,-3.9005,-3.8294,-3.755,-3.6789,-3.6011,-3.5622,-3.5622,-3.5622,-3.5622,-3.5622,-3.5622,-3.5622,-3.5622,-3.5622,-3.5622,-3.5554,-3.4793,-3.4506,-3.4336,-3.2848,-3.229,-3.2188,-3.1461,-3.119,-3.119,-3.119,-3.119,-3.119,-3.119,-3.119,-3.119,-3.119,-3.1698,-3.2442,-3.3203,-3.3931,-3.4675,-3.5436,-3.5622,-3.5622,-3.5622,-3.5622,-3.5622,-3.5622,-3.5622,-3.5622,-3.5622,-3.5622,-3.5622,-3.5622,-3.5622,-3.5622,-3.5622,-3.6054,-3.662,-3.7152,-3.7614,-3.8117,-3.8658,-3.8707,-3.8707,-3.8707,-3.8707,-3.8815,-3.9099,-3.9414,-3.9754,-4.0101,-4.0101,-4.0232,-4.0489,-3.8834,-3.8007,-3.8007,-3.8007,-3.845,-3.9296,-3.9296,-3.9738,-4.0489,-4.0489,-4.0489,-4.0489,-4.0489,-4.0489,-4.0489,-4.0489,-4.0489,-4.0489,-4.0489,-4.0489,-4.0489,-4.4587,-4.4587,-4.4587,-4.4587,-4.4587,-4.4587,-4.4587,-4.4587,-4.4587,-4.4587,-4.4384,-4.3944,-4.3166,-4.2405,-4.166,-4.0933,-4.0392,-4.007,-4.007,-4.007,-4.007,-4.007,-4.007,-3.9969,-3.9766,-3.9039,-3.8311,-3.7567,-3.6806,-3.6146,-3.5622,-3.5622,-3.5622,-3.5622,-3.5622,-3.5622,-3.5622,-3.5622,-3.5622,-3.5605,-3.5368,-3.4962,-3.4438,-3.3998,-3.3186,-3.2297,-3.2036,-3.163,-3.119,-3.119,-3.119,-3.119,-3.119,-3.119,-3.119,-3.119,-3.1698,-3.2442,-3.3203,-3.3931,-3.4675,-3.5436,-3.5622,-3.5622,-3.5622,-3.5622,-3.5622,-3.5622,-3.5622,-3.5622,-3.5622,-3.5622,-3.5622,-3.5622,-3.5898,-3.6011,-3.565,-3.6649,-3.7396,-3.721,-3.7948,-3.8496,-3.8658,-3.8707,-3.8707,-3.8707,-3.8884,-3.9117,-3.9414,-3.9775,-4.0081,-4.0372,-4.0372,-4.0406,-4.0489,-3.9431,-3.8911,-3.8911,-3.8911,-3.9046,-3.9315,-3.9873,-4.0258,-4.0489,-4.0489,-4.0489,-4.0489,-4.0489,-4.0489,-4.0489,-4.0489,-4.0489,-4.0489,-4.0489,-4.0489,-4.0489,-4.4587,-4.4587,-4.4587,-4.4587,-4.4587,-4.4587,-4.4587,-4.4587,-4.4587,-4.4587,-4.4587,-4.4282,-4.3504,-4.2743,-4.1999,-4.1271,-4.051,-4.007,-4.007,-4.007,-4.007,-4.007,-4.007,-4.007,-4.007,-3.9377,-3.8633,-3.7905,-3.7144,-3.6383,-3.5622,-3.5622,-3.5622,-3.5622,-3.5622,-3.5622,-3.5622,-3.5622,-3.5622,-3.5622,-3.5622,-3.5351,-3.4912,-3.4607,-3.3931,-3.3068,-3.2534,-3.1985,-3.1579,-3.1292,-3.119,-3.119,-3.119,-3.119,-3.119,-3.119,-3.1698,-3.2442,-3.3203,-3.3931,-3.4675,-3.5436,-3.5622,-3.5622,-3.5622,-3.5622,-3.5622,-3.5622,-3.5622,-3.5622,-3.5622,-3.5622,-3.5622,-3.5622,-3.5854,-3.6054,-3.5941,-3.6706,-3.7342,-3.747,-3.7998,-3.8465,-3.8676,-3.8707,-3.8707,-3.8707,-3.8961,-3.9186,-3.9389,-3.9859,-4.0177,-4.0339,-4.0438,-4.0489,-4.0489,-4.0008,-3.9758,-3.9758,-3.9758,-3.9758,-3.9777,-4.0277,-4.0489,-4.0489,-4.0489,-4.0489,-4.0489,-4.0489,-4.0489,-4.0489,-4.0489,-4.0489,-4.0489,-4.0489,-4.0489,-4.0489,-4.4587,-4.4587,-4.4587,-4.4587,-4.4587,-4.4587,-4.4587,-4.4587,-4.4587,-4.4587,-4.4587,-4.4316,-4.3606,-4.2844,-4.21,-4.1373,-4.0544,-4.007,-4.007,-4.007,-4.007,-4.007,-4.007,-4.007,-4.007,-3.9428,-3.8734,-3.8007,-3.7246,-3.6485,-3.5723,-3.5656,-3.5622,-3.5622,-3.5622,-3.5622,-3.5622,-3.5622,-3.5622,-3.5622,-3.5622,-3.5622,-3.5537,-3.4861,-3.4556,-3.432,-3.2966,-3.2391,-3.2171,-3.1444,-3.119,-3.119,-3.119,-3.119,-3.119,-3.119,-3.1749,-3.2527,-3.322,-3.3981,-3.4759,-3.5453,-3.5622,-3.5622,-3.5622,-3.5622,-3.5622,-3.5622,-3.5622,-3.5622,-3.5622,-3.5622,-3.5622,-3.5622,-3.5667,-3.5827,-3.6266,-3.6457,-3.6865,-3.772,-3.7911,-3.8183,-3.8658,-3.8707,-3.8707,-3.8707,-3.8923,-3.9072,-3.9099,-3.9668,-4.0022,-4.0101,-4.0339,-4.0473,-4.0489,-4.0489,-4.0489,-4.0489,-4.0489,-4.0489,-4.0489,-4.0489,-4.0489,-4.0489,-4.0489,-4.0489,-4.0489,-4.0489,-4.0489,-4.0489,-4.0489,-4.0489,-4.0489,-4.0489,-4.0489,-4.0489,-4.4587,-4.4587,-4.4587,-4.4587,-4.4587,-4.4587,-4.4587,-4.4587,-4.4587,-4.4587,-4.4587,-4.4519,-4.435,-4.3639,-4.2878,-4.2117,-4.0849,-4.007,-4.007,-4.007,-4.007,-4.007,-4.007,-4.007,-4.007,-3.9918,-3.9478,-3.8751,-3.8024,-3.728,-3.6518,-3.591,-3.5622,-3.5622,-3.5622,-3.5622,-3.5622,-3.5622,-3.5622,-3.5622,-3.5622,-3.5622,-3.5605,-3.5436,-3.5013,-3.4455,-3.4134,-3.3271,-3.2171,-3.1444,-3.119,-3.119,-3.119,-3.119,-3.119,-3.119,-3.2138,-3.3203,-3.3372,-3.437,-3.5419,-3.5571,-3.5622,-3.5622,-3.5622,-3.5622,-3.5622,-3.5622,-3.5622,-3.5622,-3.5622,-3.5622,-3.5622,-3.5622,-3.5941,-3.6139,-3.5827,-3.6808,-3.7542,-3.736,-3.805,-3.8578,-3.8707,-3.8707,-3.8707,-3.8707,-3.8762,-3.8884,-3.9099,-3.9238,-3.9552,-4.0081,-4.0158,-4.0304,-4.0489,-4.0489,-4.0489,-4.0489,-4.0489,-4.0489,-4.0489,-4.0489,-4.0489,-4.0489,-4.0489,-4.0489,-4.0489,-4.0489,-4.0489,-4.0489,-4.0489,-4.0489,-4.0489,-4.0489,-4.0489,-4.0489,-4.4654,-4.4587,-4.4587,-4.4587,-4.4587,-4.4587,-4.4587,-4.4587,-4.4587,-4.4587,-4.4587,-4.4587,-4.4587,-4.3876,-4.298,-4.1863,-4.1068,-4.046,-4.0104,-4.007,-4.007,-4.007,-4.007,-4.007,-4.007,-4.007,-3.9715,-3.8988,-3.8261,-3.7516,-3.6755,-3.5994,-3.5622,-3.5622,-3.5622,-3.5622,-3.5622,-3.5622,-3.5622,-3.5622,-3.5622,-3.5622,-3.5622,-3.5622,-3.5368,-3.4979,-3.4624,-3.3541,-3.2222,-3.1833,-3.1478,-3.119,-3.119,-3.119,-3.119,-3.119,-3.2239,-3.3406,-3.3406,-3.4489,-3.5622,-3.5622,-3.5622,-3.5622,-3.5622,-3.5622,-3.5622,-3.5622,-3.5622,-3.5622,-3.5622,-3.5622,-3.5622,-3.5622,-3.5827,-3.6028,-3.5985,-3.6904,-3.7542,-3.7542,-3.8234,-3.8707,-3.8707,-3.8707,-3.8707,-3.8707,-3.8707,-3.8762,-3.8894,-3.9036,-3.9264,-3.9622,-3.9775,-4.0003,-4.0321,-4.0321,-4.0372,-4.0489,-4.0489,-4.0489,-4.0489,-4.0489,-4.0489,-4.0489,-4.0489,-4.0489,-4.0489,-4.0489,-4.0489,-4.0489,-4.0489,-4.0489,-4.0489,-4.0489,-4.0489,-4.0489,-4.4891,-4.4671,-4.4587,-4.4587,-4.4587,-4.4587,-4.4587,-4.4587,-4.4587,-4.4587,-4.4587,-4.4587,-4.4587,-4.3876,-4.2878,-4.1508,-4.1271,-4.0882,-4.0121,-4.007,-4.007,-4.007,-4.007,-4.007,-4.007,-4.007,-3.9783,-3.9174,-3.8447,-3.7702,-3.6958,-3.618,-3.574,-3.5622,-3.5622,-3.5622,-3.5622,-3.5622,-3.5622,-3.5622,-3.5622,-3.5622,-3.5622,-3.5622,-3.5622,-3.5537,-3.4912,-3.3812,-3.2645,-3.251,-3.1985,-3.1376,-3.1376,-3.1292,-3.119,-3.119,-3.2154,-3.3237,-3.3372,-3.4387,-3.5453,-3.5588,-3.5622,-3.5622,-3.5622,-3.5622,-3.5622,-3.5622,-3.5622,-3.5622,-3.5622,-3.5622,-3.5622,-3.5622,-3.5622,-3.5739,-3.6224,-3.6786,-3.7323,-3.772,-3.83,-3.8707,-3.8707,-3.8707,-3.8707,-3.8707,-3.8707,-3.8707,-3.8707,-3.8923,-3.9044,-3.9099,-3.9364,-3.9668,-4.0002,-4.0022,-4.0139,-4.0422,-4.0422,-4.0457,-4.0489,-4.0489,-4.0489,-4.0489,-4.0489,-4.0489,-4.0489,-4.0489,-4.0489,-4.0489,-4.0489,-4.0489,-4.0489,-4.0489,-4.0489,-4.0489,-4.5568,-4.5026,-4.4587,-4.4587,-4.4587,-4.4587,-4.4587,-4.4587,-4.4587,-4.4587,-4.4587,-4.4587,-4.4587,-4.3876,-4.3064,-4.2219,-4.1576,-4.0882,-4.0121,-4.007,-4.007,-4.007,-4.007,-4.007,-4.007,-4.007,-4.002,-3.9935,-3.9208,-3.8464,-3.7736,-3.6975,-3.6265,-3.5622,-3.5622,-3.5622,-3.5622,-3.5622,-3.5622,-3.5622,-3.5622,-3.5622,-3.5622,-3.5622,-3.5622,-3.5605,-3.5504,-3.4912,-3.41,-3.3474,-3.2747,-3.2138,-3.2138,-3.1698,-3.119,-3.119,-3.1782,-3.2577,-3.3237,-3.4015,-3.4793,-3.5453,-3.5622,-3.5622,-3.5622,-3.5622,-3.5622,-3.5622,-3.5622,-3.5622,-3.5622,-3.5622,-3.5622,-3.5622,-3.5622,-3.5622,-3.5694,-3.6563,-3.721,-3.7285,-3.8135,-3.8707,-3.8707,-3.8707,-3.8707,-3.8707,-3.8707,-3.8707,-3.8707,-3.875,-3.8855,-3.9099,-3.9133,-3.9314,-3.9668,-3.9668,-3.9819,-4.0158,-4.0158,-4.0286,-4.0489,-4.0489,-4.0489,-4.0489,-4.0489,-4.0489,-4.0489,-4.0489,-4.0489,-4.0489,-4.0489,-4.0489,-4.0489,-4.0489,-4.0489,-4.0489,-4.5788,-4.5094,-4.4587,-4.4587,-4.4587,-4.4587,-4.4587,-4.4587,-4.4587,-4.4587,-4.4587,-4.4587,-4.4587,-4.4265,-4.3758,-4.298,-4.2236,-4.1491,-4.0747,-4.0307,-4.007,-4.007,-4.007,-4.007,-4.007,-4.007,-4.007,-4.007,-3.9343,-3.8819,-3.8481,-3.733,-3.6603,-3.6248,-3.5808,-3.5622,-3.5622,-3.5622,-3.5622,-3.5622,-3.5622,-3.5622,-3.5622,-3.5622,-3.5622,-3.5622,-3.5622,-3.5131,-3.4438,-3.4117,-3.3525,-3.2831,-3.2408,-3.207,-3.1715,-3.1309,-3.1698,-3.2442,-3.3203,-3.3931,-3.4675,-3.5436,-3.5622,-3.5622,-3.5622,-3.5622,-3.5622,-3.5622,-3.5622,-3.5622,-3.5622,-3.5622,-3.5622,-3.5622,-3.5622,-3.5622,-3.5622,-3.6249,-3.6943,-3.7542,-3.8234,-3.8707,-3.8707,-3.8707,-3.8707,-3.8707,-3.8707,-3.8707,-3.8707,-3.8707,-3.8762,-3.8884,-3.8884,-3.9017,-3.9314,-3.9314,-3.9505,-3.9819,-3.9819,-3.9983,-4.0267,-4.0422,-4.0425,-4.0267,-4.0422,-4.0489,-4.0489,-4.0489,-4.0489,-4.0489,-4.0489,-4.0489,-4.0489,-4.0489,-4.0489,-4.0489]},{"header":{"parameterUnit":"m.s-1","parameterCategory":1,"la1":30.6,"la2":28.766,"lo1":-90.7593,"lo2":-88.6598,"dx":0.0162,"dy":0.0183,"nx":116,"ny":114,"refTime":"2022-12-07T06:00:00:Z","depth":0,"parameterNumber":3,"parameterNumberName":"V-component_of_WINDS"},"data":[0.0,0.0,0.0,0.0,0.0,0.0,0.0,0.0,0.0,0.0,0.0,0.0,0.0,0.0,0.0,0.0,0.0,0.0,0.0,0.0,0.0,0.0,0.0,0.0,0.0,0.0,0.0,0.0,0.0,0.0,0.0,0.0,0.0,0.0,0.0,0.0,0.0,0.0,0.0,0.0,0.0,0.0,0.0,0.0,0.0,0.0,0.0,0.0,0.0,0.0,0.0,0.0,0.0,0.0,0.0,0.0,0.0,0.0,0.0,0.0,0.0,0.0,0.0,0.0,0.0,0.0,0.0,0.0,0.0,0.0,0.0,0.0,0.0,0.0,0.0,0.0,0.0,0.0,0.0,0.0,0.0,0.0,0.0,0.0,0.0,0.0,0.0,0.0,0.0,0.0,0.0,0.0,0.0,0.0,0.0,0.0,0.0,0.0,0.0,0.0,0.0,0.0,0.0,0.0,0.0,0.0,0.0,0.0,0.0,0.0,0.0,0.0,0.0,0.0,0.0,0.0,0.0,0.0,0.0,0.0,0.0,0.0,0.0,0.0,0.0,0.0,0.0,0.0,0.0,0.0,0.0,0.0,0.0,0.0,0.0,0.0,0.0,0.0,0.0,0.0,0.0,0.0,0.0,0.0,0.0,0.0,0.0,0.0,0.0,0.0,0.0,0.0,0.0,0.0,0.0,0.0,0.0,0.0,0.0,0.0,0.0,0.0,0.0,0.0,0.0,0.0,0.0,0.0,0.0,0.0,0.0,0.0,0.0,0.0,0.0,0.0,0.0,0.0,0.0,0.0,0.0,0.0,0.0,0.0,0.0,0.0,0.0,0.0,0.0,0.0,0.0,0.0,0.0,0.0,0.0,0.0,0.0,0.0,0.0,0.0,0.0,0.0,0.0,0.0,0.0,0.0,0.0,0.0,0.0,0.0,0.0,0.0,0.0,0.0,0.0,0.0,0.0,0.0,0.0,0.0,0.0,0.0,0.0,0.0,0.0,0.0,0.0,0.0,0.0,0.0,0.0,0.0,0.0,0.0,0.0,0.0,0.0,0.0,0.0,0.0,0.0,0.0,0.0,0.0,0.0,0.0,0.0,0.0,0.0,0.0,0.0,0.0,0.0,0.0,0.0,0.0,0.0,0.0,0.0,0.0,0.0,0.0,0.0,0.0,0.0,0.0,0.0,0.0,0.0,0.0,0.0,0.0,0.0,0.0,0.0,0.0,0.0,0.0,0.0,0.0,0.0,0.0,0.0,0.0,0.0,0.0,0.0,0.0,0.0,0.0,0.0,0.0,0.0,0.0,0.0,0.0,0.0,0.0,0.0,0.0,0.0,0.0,0.0,0.0,0.0,0.0,0.0,0.0,0.0,0.0,0.0,0.0,0.0,0.0,0.0,0.0,0.0,0.0,0.0,0.0,0.0,0.0,0.0,0.0,0.0,0.0,0.0,0.0,0.0,0.0,0.0,0.0,0.0,0.0,0.0,0.0,0.0,0.0,0.0,0.0,0.0,0.0,0.0,0.0,0.0,0.0,0.0,0.0,0.0,0.0,0.0,0.0,0.0,0.0,0.0,0.0,0.0,0.0,0.0,0.0,0.0,0.0,0.0,0.0,0.0,0.0,0.0,0.0,0.0,0.0,0.0,0.0,0.0,0.0,0.0,0.0,0.0,0.0,0.0,0.0,0.0,0.0,0.0,0.0,0.0,0.0,0.0,0.0,0.0,0.0,0.0,0.0,0.0,0.0,0.0,0.0,0.0,0.0,0.0,0.0,0.0,0.0,0.0,0.0,0.0,0.0,0.0,0.0,0.0,0.0,0.0,0.0,0.0,0.0,0.0,0.0,0.0,0.0,0.0,0.0,0.0,0.0,0.0,0.0,0.0,0.0,0.0,0.0,0.0,0.0,0.0,0.0,0.0,0.0,0.0,0.0,0.0,0.0,0.0,0.0,0.0,0.0,0.0,0.0,0.0,0.0,0.0,0.0,0.0,0.0,0.0,0.0,0.0,0.0,0.0,0.0,0.0,0.0,0.0,0.0,0.0,0.0,0.0,0.0,0.0,0.0,0.0,0.0,0.0,0.0,0.0,0.0,0.0,0.0,0.0,0.0,0.0,0.0,0.0,0.0,0.0,0.0,0.0,0.0,0.0,0.0,0.0,0.0,0.0,0.0,0.0,0.0,0.0,0.0,0.0,0.0,0.0,0.0,0.0,0.0,0.0,0.0,0.0,0.0,0.0,0.0,0.0,0.0,0.0,0.0,0.0,0.0,0.0,0.0,0.0,0.0,0.0,0.0,0.0,0.0,0.0,0.0,0.0,0.0,0.0,0.0,0.0,0.0,0.0,0.0,0.0,0.0,0.0,0.0,0.0,0.0,0.0,0.0,0.0,0.0,0.0,0.0,0.0,0.0,0.0,0.0,0.0,0.0,0.0,0.0,0.0,0.0,0.0,0.0,0.0,0.0,0.0,0.0,0.0,0.0,0.0,0.0,0.0,0.0,0.0,0.0,0.0,0.0,0.0,0.0,0.0,0.0,0.0,0.0,0.0,0.0,0.0,0.0,0.0,0.0,0.0,0.0,0.0,0.0,0.0,0.0,0.0,0.0,0.0,0.0,0.0,0.0,0.0,0.0,0.0,0.0,0.0,0.0,0.0,0.0,0.0,0.0,0.0,0.0,0.0,0.0,0.0,0.0,0.0,0.0,0.0,0.0,0.0,0.0,0.0,0.0,0.0,0.0,0.0,0.0,0.0,0.0,0.0,0.0,0.0,0.0,0.0,0.0,0.0,0.0,0.0,0.0,0.0,0.0,0.0,0.0,0.0,0.0,0.0,0.0,0.0,0.0,0.0,0.0,0.0,0.0,0.0,0.0,0.0,0.0,0.0,0.0,0.0,0.0,0.0,0.0,0.0,0.0,0.0,0.0,0.0,0.0,0.0,0.0,0.0,0.0,0.0,0.0,0.0,0.0,0.0,0.0,0.0,0.0,0.0,0.0,0.0,0.0,0.0,0.0,0.0,0.0,0.0,0.0,0.0,0.0,0.0,0.0,0.0,0.0,0.0,0.0,0.0,0.0,0.0,0.0,0.0,0.0,0.0,0.0,0.0,0.0,0.0,0.0,0.0,0.0,0.0,0.0,0.0,0.0,0.0,0.0,0.0,0.0,0.0,0.0,0.0,0.0,0.0,0.0,0.0,0.0,0.0,0.0,0.0,0.0,0.0,0.0,0.0,0.0,0.0,0.0,0.0,0.0,0.0,0.0,0.0,0.0,0.0,0.0,0.0,0.0,0.0,0.0,0.0,0.0,0.0,0.0,0.0,0.0,0.0,0.0,0.0,0.0,0.0,0.0,0.0,0.0,0.0,0.0,0.0,0.0,0.0,0.0,0.0,0.0,0.0,0.0,0.0,0.0,0.0,0.0,0.0,0.0,0.0,0.0,0.0,0.0,0.0,0.0,0.0,0.0,0.0,0.0,0.0,0.0,0.0,0.0,0.0,0.0,0.0,0.0,0.0,0.0,0.0,0.0,0.0,0.0,0.0,0.0,0.0,0.0,0.0,0.0,0.0,0.0,0.0,0.0,0.0,0.0,0.0,0.0,0.0,0.0,0.0,0.0,0.0,0.0,0.0,0.0,0.0,0.0,0.0,0.0,0.0,0.0,0.0,0.0,0.0,0.0,0.0,0.0,0.0,0.0,0.0,0.0,0.0,0.0,0.0,0.0,0.0,0.0,0.0,0.0,0.0,0.0,0.0,0.0,0.0,0.0,0.0,0.0,0.0,0.0,0.0,0.0,0.0,0.0,0.0,0.0,0.0,0.0,0.0,0.0,0.0,0.0,0.0,0.0,0.0,0.0,0.0,0.0,0.0,0.0,0.0,0.0,0.0,0.0,0.0,0.0,0.0,0.0,0.0,0.0,0.0,0.0,0.0,0.0,0.0,0.0,0.0,0.0,0.0,0.0,0.0,0.0,0.0,0.0,0.0,0.0,0.0,0.0,0.0,0.0,0.0,0.0,0.0,0.0,0.0,0.0,0.0,0.0,0.0,0.0,0.0,0.0,0.0,0.0,0.0,0.0,0.0,0.0,0.0,0.0,0.0,0.0,0.0,0.0,0.0,0.0,0.0,0.0,0.0,0.0,0.0,0.0,0.0,0.0,0.0,0.0,0.0,0.0,0.0,0.0,0.0,0.0,0.0,0.0,0.0,0.0,0.0,0.0,0.0,0.0,0.0,0.0,0.0,0.0,0.0,0.0,0.0,0.0,0.0,0.0,0.0,0.0,0.0,0.0,0.0,0.0,0.0,0.0,0.0,0.0,0.0,0.0,0.0,0.0,0.0,0.0,0.0,0.0,0.0,0.0,0.0,0.0,0.0,0.0,0.0,0.0,0.0,0.0,0.0,0.0,0.0,0.0,0.0,0.0,0.0,0.0,0.0,0.0,0.0,0.0,0.0,0.0,0.0,0.0,0.0,0.0,0.0,0.0,0.0,0.0,0.0,0.0,0.0,0.0,0.0,0.0,0.0,0.0,0.0,0.0,0.0,0.0,0.0,0.0,0.0,0.0,0.0,0.0,0.0,0.0,0.0,0.0,0.0,0.0,0.0,0.0,0.0,0.0,0.0,0.0,0.0,0.0,0.0,0.0,0.0,0.0,0.0,0.0,0.0,0.0,0.0,0.0,0.0,0.0,0.0,0.0,0.0,0.0,0.0,0.0,0.0,0.0,0.0,0.0,0.0,0.0,0.0,0.0,0.0,0.0,0.0,0.0,0.0,0.0,0.0,0.0,0.0,0.0,0.0,0.0,0.0,0.0,0.0,0.0,0.0,0.0,0.0,0.0,0.0,0.0,0.0,0.0,0.0,0.0,0.0,0.0,0.0,0.0,0.0,0.0,0.0,0.0,0.0,0.0,0.0,0.0,0.0,0.0,0.0,0.0,0.0,0.0,0.0,0.0,0.0,0.0,0.0,0.0,0.0,0.0,0.0,0.0,0.0,0.0,0.0,0.0,0.0,0.0,0.0,0.0,0.0,0.0,0.0,0.0,0.0,0.0,0.0,0.0,0.0,0.0,0.0,0.0,0.0,0.0,0.0,0.0,0.0,0.0,0.0,0.0,0.0,0.0,0.0,0.0,0.0,0.0,0.0,0.0,0.0,0.0,0.0,0.0,0.0,0.0,0.0,0.0,0.0,0.0,0.0,0.0,0.0,0.0,0.0,0.0,0.0,0.0,0.0,0.0,0.0,0.0,0.0,0.0,0.0,0.0,0.0,0.0,0.0,0.0,0.0,0.0,0.0,0.0,0.0,0.0,0.0,0.0,0.0,0.0,0.0,0.0,0.0,0.0,0.0,0.0,0.0,0.0,0.0,0.0,0.0,0.0,0.0,0.0,0.0,0.0,0.0,0.0,0.0,0.0,0.0,0.0,0.0,0.0,0.0,0.0,0.0,0.0,0.0,0.0,0.0,0.0,0.0,0.0,0.0,0.0,0.0,0.0,0.0,0.0,0.0,0.0,0.0,0.0,0.0,0.0,0.0,0.0,0.0,0.0,0.0,0.0,0.0,0.0,0.0,0.0,0.0,0.0,0.0,0.0,0.0,0.0,0.0,0.0,0.0,0.0,0.0,0.0,0.0,0.0,0.0,0.0,0.0,0.0,0.0,0.0,0.0,0.0,0.0,0.0,0.0,0.0,0.0,0.0,0.0,0.0,0.0,0.0,0.0,0.0,0.0,0.0,0.0,0.0,0.0,0.0,0.0,0.0,0.0,0.0,0.0,0.0,0.0,0.0,0.0,0.0,0.0,0.0,0.0,0.0,0.0,0.0,0.0,0.0,0.0,0.0,0.0,0.0,0.0,0.0,0.0,0.0,0.0,0.0,0.0,0.0,0.0,0.0,0.0,0.0,0.0,0.0,0.0,0.0,0.0,0.0,0.0,0.0,0.0,0.0,0.0,0.0,0.0,0.0,0.0,0.0,0.0,0.0,0.0,0.0,0.0,0.0,0.0,0.0,0.0,0.0,0.0,0.0,0.0,0.0,0.0,0.0,0.0,0.0,0.0,0.0,0.0,0.0,0.0,0.0,0.0,0.0,0.0,0.0,0.0,0.0,0.0,0.0,-0.5634,0.0,0.0,0.0,0.0,0.0,0.0,0.0,0.0,0.0,0.0,0.0,0.0,0.0,0.0,0.0,0.0,0.0,0.0,0.0,0.0,0.0,0.0,0.0,0.0,0.1792,0.1792,0.1792,0.0698,0.0,0.0,0.0,0.0,0.0,0.0,0.0,0.0,0.0,0.1687,0.1687,0.1718,0.2793,0.4825,0.2975,0.1509,0.0431,0.0,0.0,0.0,0.0,0.0,0.0,0.0,0.0,0.0,0.0,0.0,0.0,0.0,0.0,0.0,0.0,0.0,0.0,0.0,0.0,0.0,0.0,0.0,0.0,0.0,0.0,0.0,0.0,0.0,0.0,0.0,0.0,0.0,0.0,0.0,0.0,0.0,0.0,0.0,0.0,0.0,0.0,0.0,0.0,0.0,0.0,0.0,0.0,0.0,0.0,0.0,0.0,0.0,0.0,0.0,0.0,0.0,0.0,0.0,0.0,0.0,0.0,0.0,0.0,0.0,0.0,0.0,0.0,0.0,0.0,0.0,-0.6285,0.0,0.0,0.0,0.0,0.0,0.0,0.0,0.0,0.0,0.0,0.0,0.0,0.0,0.0,0.0,0.0,0.0,0.0,0.0,0.0,0.0,0.1717,0.1785,0.1792,0.184,0.1931,0.0945,0.0226,0.0014,0.0,0.0,0.0,0.0,0.0,0.0308,0.2218,0.3302,0.3504,0.3614,0.3877,0.4304,0.4218,0.313,0.1277,0.1231,0.0,0.0,0.0,0.0,0.0,0.0,0.0,0.0,0.0,0.0,0.0,0.0,0.0,0.0,0.0,0.0,0.0,0.0,0.0,0.0,0.0,0.0,0.0,0.0,0.0,0.0,0.0,0.0,0.0,0.0,0.0,0.0,0.0,0.0,0.0,0.0,0.0,0.0,0.0,0.0,0.0,0.0,0.0,0.0,0.0,0.0,0.0,0.0,0.0,0.0,0.0,0.0,0.0,0.0,0.0,0.0,0.0,0.0,0.0,0.0,0.0,0.0,0.0,-1.1737,-1.3332,-1.6364,-1.6795,-1.6107,-1.4465,-1.3505,-1.0909,-0.7101,0.0,0.0,0.0,0.0,0.0,0.0,0.0,0.0,0.0,0.0,0.0,0.0,0.0,0.0,0.0,0.0,0.0,0.0,0.0,0.0,0.1409,0.1758,0.1792,0.1987,0.2455,0.1922,0.1115,0.0068,0.0,0.0,0.0,0.0,0.0492,0.1539,0.1874,0.2531,0.3588,0.373,0.3816,0.3866,0.3451,0.3108,0.2788,0.257,0.267,0.2908,0.0,0.0,0.0,0.0,0.0,0.0,0.0,0.0,0.0,0.0,0.0,0.0,0.0,0.0,0.0,0.0,0.0,0.0,0.0,0.0,0.0,0.0,0.0,0.0,0.0,0.0,0.0,0.0,0.0,0.0,0.0,0.0,0.0,0.0,0.0,0.0,0.0,0.0,0.0,0.0,0.0,-0.4314,-0.1861,0.0,0.0,0.0,0.0,0.0,0.0,0.0,0.0,0.0,0.0,0.0,0.0,0.0,-1.233,-1.4749,-1.1988,-1.1335,-1.2816,-1.2632,-1.3231,-1.4634,-1.677,-1.7909,-1.8229,-1.8676,0.0,-1.2297,-0.8254,0.0,0.0,0.0,0.0,0.0,0.0,0.0,0.0,0.0,0.0,0.0,0.0,0.0,0.0,0.0,0.0,0.0,0.0,0.0,0.0,0.0,0.2584,0.2647,0.3061,0.2718,0.2052,0.1075,0.0378,0.0,0.0,0.065,0.1259,0.1785,0.2453,0.3,0.3412,0.3413,0.3393,0.3388,0.3213,0.3093,0.3093,0.2963,0.2958,0.3013,0.2507,0.0,0.0,0.0,0.0,0.0,0.0,0.0,0.0,0.0,0.0,0.0,0.0,0.0,0.0,0.0,0.0,0.0,0.0,0.0,0.0,0.0,0.0,0.0,0.0,0.0,0.0,0.0,0.0,0.0,0.0,0.0,0.0,0.0,0.0,0.0,0.0,0.0,0.0,0.0,-0.4773,-0.3389,-0.1169,-0.0874,-0.0715,0.0,0.0,0.0,0.0,0.0,0.0,0.0,0.0,0.0,-1.0354,-1.2389,-1.3868,-1.4614,-1.4207,-1.4448,-1.5423,-1.5318,-1.5596,-1.6273,-1.7498,-1.8217,-1.8559,-1.9499,-1.8822,-1.6915,-1.4578,-1.1323,-0.7766,0.0,0.0,0.0,0.0,-1.1248,-1.1788,0.0,0.0,0.0,0.0,0.0,0.0,0.0,0.0,0.0,0.0,0.0,0.0,0.3312,0.3167,0.3165,0.3477,0.3208,0.2844,0.2423,0.1177,0.0321,0.0014,0.1156,0.1792,0.1792,0.2842,0.3284,0.3145,0.3132,0.3083,0.3082,0.3082,0.3082,0.3082,0.3082,0.3036,0.2962,0.3581,0.2816,0.1131,0.0,0.0,0.0,0.0,0.0,0.0,0.0,0.0,0.0,0.0,0.0,0.0,0.0,0.0,0.0,0.0,0.0,0.0,0.0,0.0,0.0,0.0,0.0,0.0,0.0,0.0,0.0,0.0,0.0,0.0,0.0,0.0,0.0,0.0,0.0,0.0,0.0,-0.3676,-0.3316,-0.1249,-0.1903,-0.2419,0.0,0.0,0.0,0.0,0.0,0.0,-0.967,-1.0648,-1.1585,-1.2496,-1.4804,-1.5447,-1.4254,-1.5437,-1.6417,-1.7175,-1.7091,-1.7319,-1.7828,-1.8495,-1.8822,-1.9,-2.0256,-2.0737,-2.0507,-1.9067,-1.6555,-1.3579,-1.2906,-1.2621,-1.2777,-1.4492,-1.5171,-1.5221,0.0,0.0,0.0,0.0,0.0,0.0,0.0,0.0,0.0,0.0,0.0,0.2447,0.3059,0.3115,0.3203,0.3459,0.3238,0.3359,0.3956,0.256,0.1197,0.0048,0.1156,0.1792,0.1792,0.2418,0.2728,0.2716,0.2972,0.3103,0.3082,0.3082,0.3082,0.3082,0.3082,0.325,0.3545,0.3205,0.3593,0.4205,0.1206,0.0,0.0,0.0,0.0,0.0,0.0,0.0,0.0,0.0,0.0,0.0,0.0,0.0,0.0,0.0,0.0,0.0,0.0,0.0,0.0,0.0,0.0,0.0,0.0,0.0,0.0,0.0,0.0,0.0,0.0,0.0,0.0,0.0,0.0,0.0,0.0,0.0,0.0,-0.3483,-0.4429,0.0,0.0,0.0,0.0,-1.0009,-1.0619,-1.1301,-1.2079,-1.2706,-1.3051,-1.3068,-1.54,-1.6338,-1.571,-1.5476,-1.5857,-1.6841,-1.6511,-1.6859,-1.7862,-1.9585,-2.0565,-2.0957,-2.2722,-2.3238,-2.263,-2.005,-1.8283,-1.7117,-1.5958,-1.5035,-1.4518,-1.5825,-1.6434,-1.6768,0.0,0.0,0.0,0.2012,0.1886,0.1792,0.1792,0.1792,0.189,0.2164,0.2397,0.2697,0.3173,0.3223,0.3335,0.3543,0.3283,0.317,0.3303,0.3411,0.2878,0.1536,0.2391,0.2848,0.2767,0.26,0.2663,0.2958,0.2951,0.3032,0.3082,0.3082,0.3082,0.3082,0.3082,0.3166,0.3298,0.3363,0.34,0.3399,0.3138,0.2152,0.0,0.0,0.0,0.0,0.0,0.0,0.0,0.0,0.0,0.0,0.0,0.0,0.0,0.0,0.0,0.0,0.0,0.0,0.0,0.0,0.0,0.0,0.0,0.0,0.0,0.0,0.0,0.0,0.0,0.0,0.0,0.0,0.0,0.0,0.0,0.0,0.0,-0.5617,-0.654,0.0,-0.7361,-0.8073,-0.9115,-1.0458,-1.211,-1.3351,-1.4051,-1.5377,-1.6081,-1.6055,-1.6882,-1.733,-1.7334,-1.754,-1.7903,-1.8469,-1.861,-1.8865,-1.9249,-2.0291,-2.0823,-2.1025,-2.2582,-2.3142,-2.2978,-2.2531,-2.1514,-2.0224,-1.9792,-1.9497,-1.9404,-1.9985,-2.0314,-2.0573,0.0,0.0,0.0,0.2144,0.1989,0.1865,0.1865,0.1903,0.2102,0.2572,0.2711,0.3004,0.3617,0.3462,0.3369,0.3586,0.3328,0.3183,0.328,0.3818,0.3574,0.2359,0.277,0.3092,0.32,0.274,0.2701,0.3082,0.3041,0.3068,0.3159,0.3253,0.3276,0.3276,0.3276,0.3246,0.3191,0.3437,0.3257,0.2902,0.3695,0.3505,0.262,0.0,0.0,0.0,0.0,0.0,0.0,0.0,0.0,0.0,0.0,0.0,0.0,0.0,0.0,0.0,0.0,0.0,0.0,0.0,0.0,0.0,0.0,0.0,0.0,0.0,0.0,0.0,0.0,0.0,0.0,0.0,0.0,0.0,0.0,-0.5719,-0.6562,-0.6411,-0.8009,-0.9056,-0.8832,-0.9511,-1.0638,-1.2239,-1.3779,-1.4944,-1.5598,-1.6946,-1.7697,-1.7697,-1.8055,-1.828,-1.8269,-1.8821,-1.9218,-1.9427,-1.9831,-2.0002,-2.0027,-2.0905,-2.1299,-2.1395,-2.2867,-2.3509,-2.3546,-2.4153,-2.3761,-2.2813,-2.2748,-2.2821,-2.3032,-2.3158,-2.3351,-2.3581,0.0,0.0,0.2403,0.2403,0.2174,0.2002,0.201,0.2117,0.2512,0.3386,0.3153,0.3271,0.4271,0.373,0.3363,0.3548,0.338,0.3486,0.3957,0.3751,0.3221,0.2389,0.2211,0.242,0.2987,0.2813,0.2859,0.3127,0.3236,0.3309,0.3319,0.351,0.3581,0.3581,0.3581,0.3497,0.3313,0.3354,0.3266,0.31,0.284,0.3793,0.5319,0.0,0.0,0.0,0.0,0.0,0.0,0.0,0.0,0.0,0.0,0.0,0.0,0.0,0.0,0.0,0.0,0.0,0.0,0.0,0.0,0.0,0.0,0.0,0.0,0.0,0.0,0.0,0.0,0.0,0.0,0.0,0.0,0.0,-0.4857,-0.695,-0.7755,-0.6024,-0.8916,-1.0963,-1.0732,-1.2198,-1.3895,-1.5726,-1.5858,-1.6129,-1.6771,-1.7413,-1.779,-1.7775,-1.8851,-1.9138,-1.847,-1.9216,-1.9574,-1.9574,-1.9924,-2.0069,-2.0137,-2.1505,-2.2154,-2.2291,-2.3842,-2.4551,-2.4603,-2.4791,-2.4879,-2.4865,-2.4594,-2.4708,-2.501,-2.503,-2.5236,-2.5505,0.2598,0.249,0.2403,0.2403,0.2174,0.2033,0.2124,0.2176,0.255,0.3529,0.3288,0.3325,0.4029,0.3629,0.3239,0.311,0.3056,0.3246,0.3748,0.3766,0.3649,0.3409,0.3262,0.3162,0.3064,0.3018,0.309,0.3327,0.3286,0.3363,0.3517,0.3561,0.3581,0.3581,0.3581,0.3558,0.351,0.3398,0.3283,0.3259,0.3323,0.3388,0.3584,0.0,0.0,0.0,0.0,0.0,0.0,0.0,0.0,0.0,0.0,0.0,0.0,0.0,0.0,0.0,0.0,0.0,0.0,0.0,0.0,0.0,0.0,0.0,0.0,0.0,0.0,0.0,0.0,0.0,0.0,0.0,-0.5279,-0.6832,-0.7332,-0.8184,-0.9204,-1.0379,-1.1539,-1.2561,-1.3338,-1.397,-1.511,-1.7025,-1.7191,-1.767,-1.8807,-1.9046,-1.926,-1.9572,-1.9891,-2.0124,-2.0273,-2.0782,-2.1019,-2.1019,-2.1457,-2.1769,-2.1962,-2.2617,-2.3346,-2.4168,-2.5005,-2.5703,-2.6263,-2.6516,-2.6702,-2.6686,-2.5276,-2.4836,-2.5087,-2.5761,-2.6619,-2.7441,0.2598,0.2529,0.2481,0.2481,0.2313,0.2195,0.2275,0.247,0.2967,0.3956,0.3645,0.3649,0.4383,0.3706,0.3145,0.3012,0.326,0.3534,0.37,0.3673,0.3686,0.3715,0.346,0.3275,0.3173,0.3166,0.3293,0.3488,0.3446,0.349,0.3581,0.3581,0.3581,0.3581,0.3581,0.3581,0.3575,0.3483,0.3366,0.3293,0.3431,0.3411,0.3417,0.4124,0.4098,0.3585,0.3022,0.2712,0.2705,0.3524,0.0,0.0,0.0,0.0,0.0,0.0,0.0,0.0,0.0,0.0,0.0,0.0,0.0,0.0,0.0,0.0,0.0,0.0,0.0,0.0,0.0,0.0,0.0,0.0,-0.6,-0.8019,-0.9057,-0.9489,-1.0351,-1.2106,-1.2786,-1.3471,-1.4333,-1.4891,-1.5785,-1.7174,-1.7279,-1.7861,-1.9211,-1.9271,-1.9587,-2.0265,-2.0483,-2.0813,-2.1244,-2.1675,-2.1899,-2.1899,-2.2666,-2.3089,-2.3267,-2.4063,-2.4833,0.0,-2.6116,-2.6658,-2.7207,-2.7438,-2.7612,0.0,0.0,0.0,0.0,0.0,-2.7576,-2.8201,0.2598,0.2598,0.2598,0.2598,0.249,0.2403,0.2422,0.2872,0.3541,0.4495,0.4144,0.4156,0.4987,0.3972,0.3176,0.3124,0.3825,0.4174,0.3902,0.3656,0.3559,0.3592,0.3188,0.3082,0.3299,0.3326,0.34,0.3581,0.3581,0.3581,0.3581,0.3581,0.3581,0.3581,0.3581,0.3581,0.3581,0.3581,0.35,0.3333,0.3313,0.3594,0.4032,0.3452,0.3487,0.3733,0.3226,0.2798,0.2513,0.2951,0.0,0.0,0.0,0.0,0.0,0.0,0.0,0.0,0.0,0.0,0.0,0.0,0.0,0.0,0.0,0.0,0.0,0.0,0.0,0.0,0.0,0.0,0.0,0.0,-0.6457,-0.8559,-1.0144,-1.0726,-1.1308,-1.2203,-1.3195,-1.3937,-1.4356,-1.5314,-1.6144,-1.6771,-1.6891,-1.7473,-1.8747,0.0,0.0,0.0,0.0,-2.1213,-2.1658,-2.2106,-2.2344,-2.2485,-2.3532,-2.4068,-2.4279,-2.5541,-2.6304,-2.6702,-2.7151,-2.7536,-2.7899,-2.8103,-2.8179,-2.8148,-2.779,-2.7826,-2.8086,-2.821,-2.8353,-2.8479,0.2598,0.2598,0.2598,0.2598,0.249,0.2432,0.2549,0.292,0.3577,0.4614,0.4649,0.4705,0.5047,0.4455,0.3734,0.3169,0.4089,0.4813,0.5049,0.4202,0.3662,0.368,0.3425,0.33,0.3306,0.3473,0.3551,0.3581,0.3581,0.3581,0.3581,0.3581,0.3581,0.3581,0.3581,0.3581,0.3581,0.3581,0.3561,0.3524,0.3356,0.3319,0.3279,0.3057,0.304,0.3056,0.2855,0.2801,0.2904,0.347,0.2984,0.2289,0.2843,0.261,0.0,0.0,0.0,0.0,0.0,0.0,0.0,0.0,0.0,0.0,0.0,0.0,0.0,0.0,0.0,0.0,0.0,0.0,0.0,-0.446,-0.749,-1.008,-1.0844,-1.1602,-1.2279,-1.2782,-1.3721,-1.4508,-1.4917,-1.5905,-1.6801,-1.7458,-1.7996,-1.8672,-1.945,-1.9495,-1.9913,-2.0829,-2.0959,-2.1354,-2.2163,-2.2237,-2.275,-2.369,0.0,0.0,-2.5703,-2.5984,-2.6724,-2.781,-2.812,-2.8745,-2.957,-2.98,-2.9929,-2.9783,-2.8437,-2.8409,-2.9117,-2.9206,-2.9656,-3.023,0.2598,0.2598,0.2598,0.2598,0.2549,0.2519,0.2588,0.3134,0.3784,0.4463,0.4862,0.5077,0.5048,0.4501,0.3884,0.3259,0.3715,0.4407,0.5245,0.4307,0.3725,0.3734,0.3591,0.3466,0.3463,0.3541,0.3581,0.3581,0.3581,0.3581,0.3581,0.3581,0.3581,0.3581,0.3581,0.3581,0.3581,0.3581,0.3581,0.3571,0.3497,0.3419,0.3327,0.31,0.3015,0.2995,0.2849,0.2846,0.2943,0.3258,0.2605,0.1799,0.2639,0.2173,0.1411,0.0,0.0,0.0,0.0,0.0,0.0,0.0,0.0,0.0,0.0,0.0,0.0,0.0,0.0,-0.1198,-0.1712,0.0,-0.5458,-0.5442,-0.8412,-1.0777,-1.1058,-1.2262,-1.3304,-1.3691,-1.4182,-1.4878,-1.5797,-1.6395,-1.7115,-1.81,-1.8523,-1.8986,-1.9645,-1.9909,-2.0296,-2.0959,-2.1181,-2.1615,-2.2282,-2.2873,-2.3426,-2.4006,-2.5112,-2.6011,-2.6723,-2.7442,-2.8172,-2.8913,-2.9155,-2.9603,-3.0209,-3.0336,-3.0417,-3.0371,-2.9613,-2.9593,-3.0004,-3.0085,-3.0347,-3.0698,0.2617,0.2598,0.2598,0.2598,0.2598,0.2598,0.2598,0.3264,0.3858,0.4155,0.4767,0.5093,0.4809,0.4335,0.3927,0.37,0.34,0.3805,0.5156,0.425,0.3664,0.3683,0.3626,0.3581,0.3581,0.3581,0.3581,0.3581,0.3581,0.3581,0.3581,0.3581,0.3581,0.3581,0.3581,0.3581,0.3581,0.3581,0.3581,0.3581,0.3581,0.3581,0.3551,0.3269,0.3147,0.3096,0.2927,0.2898,0.2969,0.2901,0.2221,0.1581,0.2353,0.1659,0.0827,0.2136,0.1541,0.0,0.0,0.0,0.0,0.0,0.0,0.0,0.0,-0.0885,-0.0988,-0.2462,-0.291,-0.319,-0.3678,-0.529,-0.6608,-0.6768,-0.9203,-1.116,-1.1331,-1.2759,-1.4007,-1.4635,-1.4776,-1.5321,-1.656,-1.695,-1.7533,-1.8627,-1.8822,-1.9156,-1.9788,-2.0124,-2.055,-2.1086,-2.143,-2.1836,-2.236,-2.3463,-2.4156,-2.4427,-2.6372,-2.7447,-2.7747,-2.8892,-2.9532,-2.9763,-2.9969,-3.0196,-3.0398,-3.0398,-3.0448,-3.0506,-3.0583,-3.0627,-3.0632,-3.0683,-3.0683,-3.0662,0.2676,0.2598,0.2598,0.2598,0.2598,0.2598,0.2598,0.2987,0.3397,0.3729,0.4155,0.4313,0.4055,0.3848,0.407,0.4909,0.3739,0.3648,0.5286,0.4175,0.3409,0.3353,0.3517,0.3581,0.3581,0.3581,0.3581,0.3581,0.3581,0.3581,0.3581,0.3581,0.3581,0.3581,0.3581,0.3581,0.3581,0.3581,0.3581,0.3581,0.3581,0.3581,0.3605,0.3434,0.3239,0.3083,0.2805,0.2966,0.3195,0.2837,0.238,0.1861,0.1581,0.1363,0.1322,0.2028,0.2204,0.2251,0.2837,-0.0172,-0.2967,-0.0944,-0.1491,-0.231,0.0,-0.1429,-0.1742,-0.2485,-0.2911,-0.3427,-0.4257,-0.5834,-0.7281,-0.8058,-0.9827,-1.1388,-1.2236,-1.2894,-1.3796,-1.5233,-1.5698,-1.614,-1.6635,-1.7772,-1.8553,-1.8687,-1.9241,-1.9763,-2.0212,-2.028,-2.0667,-2.1491,-2.1598,-2.1948,-2.266,-2.3536,-2.4637,-2.5883,-2.6838,-2.7949,-2.9182,-2.9316,-2.9607,-2.9984,-3.0241,-3.0367,-3.0398,-3.0467,-3.0487,-3.0506,-3.0641,-3.0683,-3.0694,-3.0704,-3.0657,-3.0593,0.2637,0.2598,0.2598,0.2598,0.2598,0.2598,0.2598,0.2948,0.3248,0.3398,0.3987,0.4289,0.3945,0.3598,0.3624,0.4177,0.337,0.3288,0.4351,0.3683,0.3256,0.3303,0.337,0.3487,0.3578,0.3581,0.3581,0.3581,0.3581,0.3581,0.3581,0.3581,0.3581,0.3581,0.3581,0.3581,0.3581,0.3581,0.3581,0.3581,0.3581,0.3527,0.3429,0.3276,0.3127,0.3018,0.3169,0.3188,0.0,0.3068,0.2472,0.1717,0.1389,0.1208,0.1228,0.199,0.1867,0.1291,0.0204,-0.1084,-0.2067,-0.1957,-0.2481,-0.2951,-0.2652,-0.2657,-0.3286,-0.5125,-0.5641,-0.6041,-0.6951,-0.7913,-0.8783,-0.9473,-1.0673,-1.1753,-1.2401,-1.3126,-1.3927,-1.4814,-1.5962,-1.7009,-1.7784,-1.8388,-1.8867,-1.9241,-1.9525,-1.9874,-2.028,-2.055,-2.0975,-2.1582,-2.2017,-2.2405,-2.2695,-2.4378,-2.5517,-2.6121,-2.7573,-2.8604,-2.9178,-2.9455,-2.9815,-3.0241,-3.0355,-3.0398,-3.0398,-3.0417,-3.049,-3.0563,-3.0621,-3.0714,-3.0828,-3.0818,-3.0723,-3.0608,0.2646,0.2598,0.2598,0.2598,0.2598,0.2598,0.2598,0.2851,0.3034,0.3034,0.358,0.3857,0.3568,0.3242,0.3137,0.3401,0.3227,0.3257,0.3612,0.353,0.3399,0.3239,0.3286,0.336,0.3514,0.3517,0.3581,0.3581,0.3581,0.3581,0.3581,0.3581,0.3581,0.3581,0.3581,0.3581,0.3578,0.3578,0.3517,0.3514,0.347,0.3385,0.3229,0.3078,0.2984,0.2953,0.3292,0.3336,0.3206,0.3163,0.2638,0.1965,0.1601,0.134,0.1342,0.2292,0.2177,0.1301,-0.0806,-0.118,-0.128,-0.2474,-0.3149,-0.3575,-0.3863,-0.4024,-0.4763,-0.7123,-0.7638,-0.7947,-0.8977,-0.9629,-1.0163,-1.0705,-1.1467,-1.2138,-1.2615,-1.3263,-1.3954,-1.4704,-1.6047,-1.7403,-1.8608,-1.8867,-1.9166,-1.9645,-1.9818,-2.0035,-2.0483,-2.091,-2.1383,-2.189,-2.2432,-2.2902,-2.3312,-2.5147,-2.6276,-2.6581,-2.8228,-2.904,-2.9134,-2.9588,-2.9973,-3.0279,-3.0367,-3.0398,-3.0398,-3.0448,-3.051,-3.061,-3.0665,-3.0775,-3.0901,-3.0859,-3.0749,-3.0597,0.2764,0.2598,0.2598,0.2598,0.2598,0.2598,0.2598,0.2607,0.2617,0.2617,0.2637,0.2656,0.2637,0.2627,0.2773,0.3167,0.3611,0.3757,0.3531,0.4058,0.3986,0.3127,0.3229,0.3309,0.3313,0.3358,0.3475,0.3581,0.3581,0.3581,0.3581,0.3581,0.3581,0.3581,0.3581,0.3581,0.3568,0.3464,0.3358,0.3303,0.3155,0.313,0.3072,0.2968,0.2895,0.2888,0.2918,0.3151,0.3404,0.2897,0.2857,0.2936,0.2208,0.1871,0.1992,0.3143,0.367,0.3508,0.1682,0.027,-0.0979,-0.2123,-0.3739,-0.5039,-0.5067,-0.5343,-0.6013,-0.7343,-0.7709,-0.8166,-0.9351,-1.0325,-1.1148,-1.1678,-1.2162,-1.265,-1.3129,-1.3198,-1.3788,-1.5302,-1.6096,-1.7078,-1.8559,-1.9286,-1.966,-1.969,-2.0054,-2.0483,-2.0959,-2.1368,-2.1919,-2.2643,-2.2695,-2.339,-2.4825,-2.5682,-2.6659,-2.7769,-2.859,-2.9134,-2.9394,-2.9813,-2.9999,-3.0028,-3.0299,-3.0398,-3.0398,-3.0544,-3.0602,-3.0629,-3.0812,-3.0891,-3.0878,-3.0748,-3.0655,-3.0575,0.3055,0.2782,0.2686,0.2958,0.2773,0.2598,0.2598,0.2598,0.2598,0.2598,0.2598,0.0,0.0,0.0,0.0,0.0,0.3193,0.3417,0.3495,0.3608,0.3618,0.3513,0.3371,0.3356,0.35,0.3402,0.3375,0.3471,0.3327,0.3273,0.3273,0.3273,0.3273,0.3273,0.3273,0.3273,0.3273,0.3219,0.3198,0.3152,0.3102,0.3082,0.3197,0.4197,0.3883,0.3048,0.0,0.3843,0.2906,0.2845,0.2567,0.2167,0.1783,0.1721,0.1997,0.2957,0.2802,0.2114,0.1011,-0.0272,-0.1514,-0.2366,-0.3643,-0.4633,-0.4633,-0.5364,-0.632,-0.74,-0.6715,-0.6363,-0.7698,-0.8157,-0.8736,-0.9898,-1.1198,-1.233,-1.3094,-1.3459,-1.4113,-1.5363,-1.6315,-1.7369,-1.8559,-1.9301,0.0,-1.969,-2.0054,-2.0516,-2.0959,-2.1368,-2.1948,-2.2669,-2.2923,-2.3626,-2.4883,-2.5918,-2.6893,-2.7805,-2.8631,-2.9206,-2.9607,-2.9748,-2.9973,-3.0267,-3.0355,-3.0417,-3.0467,-3.0525,-3.0583,-3.0671,-3.0732,-3.0826,-3.0875,-3.075,-3.0689,-3.0656,0.3473,0.3242,0.3096,0.3179,0.2987,0.0,0.0,0.0,0.0,0.0,0.0,0.0,0.0,0.0,0.0,0.0,0.0,0.3348,0.326,0.3618,0.3768,0.3649,0.346,0.3423,0.3577,0.3264,0.3403,0.3991,0.3422,0.3425,0.3874,0.3482,0.3286,0.3286,0.3286,0.3286,0.3276,0.3168,0.3377,0.3754,0.3323,0.3365,0.3708,0.4398,0.3872,0.0,0.3947,0.3522,0.2477,0.2655,0.2445,0.207,0.1935,0.214,0.2421,0.2509,0.2128,0.1402,0.0192,-0.076,-0.1664,-0.2664,-0.3675,-0.4463,-0.4603,-0.5364,-0.6313,-0.7392,-0.6159,-0.5349,-0.6689,-0.6637,-0.6749,-0.7675,-0.9029,-1.0433,-1.1825,-1.246,-1.343,-1.5296,-1.6479,-1.758,-1.8589,-1.9301,-1.9747,-1.9894,-2.0296,-2.0748,-2.1181,-2.1715,-2.2269,-2.2873,-2.3189,-2.4064,-2.5492,-2.6234,-2.7163,-2.8246,-2.8854,-2.9312,-2.9607,-2.9729,-2.9973,-3.0267,-3.0374,-3.0467,-3.0506,-3.0544,-3.0621,-3.0702,-3.0759,-3.0813,-3.0878,-3.0748,-3.0694,-3.0679,0.3999,0.3916,0.3764,0.0,0.0,0.0,0.0,0.0,0.0,0.0,0.0,0.0,0.0,0.0,0.0,0.0,0.0,0.0,0.2859,0.3998,0.4359,0.3541,0.3494,0.351,0.3473,0.3058,0.3519,0.4932,0.3842,0.3959,0.5219,0.414,0.3597,0.3597,0.3597,0.3597,0.3576,0.3277,0.3833,0.4839,0.3731,0.3783,0.4423,0.368,0.3068,0.2612,0.2553,0.2399,0.2222,0.2349,0.2477,0.2546,0.2487,0.2863,0.3089,0.1804,0.1613,0.1396,-0.0584,-0.1153,-0.1511,-0.2924,-0.385,-0.4528,-0.4935,-0.539,-0.602,-0.7201,-0.5941,-0.4978,-0.6103,-0.5798,-0.534,-0.5415,-0.6255,-0.7645,-0.9768,-1.0601,-1.2121,-1.521,-1.6611,-1.7703,-1.8678,-1.9316,-1.9874,-2.0314,0.0,-2.1181,-2.1582,-2.2296,-2.2848,-2.3189,-2.3522,-2.4617,-2.6594,-2.6686,-2.7493,-2.9017,-2.9246,-2.9392,-2.9414,-2.9813,-2.9999,-3.0047,-3.0356,-3.0506,-3.0525,-3.0641,-3.0702,-3.0721,-3.0849,-3.0898,-3.0879,-3.0762,-3.0706,-3.0687,0.0,0.0,0.0,0.0,0.0,0.0,0.0,0.0,0.0,0.0,0.0,0.0,0.0,0.0,0.0,0.0,0.0,0.0,0.3087,0.3367,0.3516,0.351,0.3583,0.3519,0.3198,0.3288,0.3499,0.3877,0.3476,0.3632,0.4258,0.3956,0.3832,0.3832,0.3832,0.3832,0.3827,0.374,0.3709,0.3711,0.3419,0.3276,0.3358,0.4346,0.39,0.2893,0.4012,0.3467,0.2222,0.2349,0.2218,0.1854,0.1066,0.0908,0.0958,0.0522,-0.0125,-0.077,-0.122,-0.1786,-0.2416,-0.2874,-0.3717,-0.4381,-0.4315,-0.5015,-0.5551,-0.5082,-0.3575,-0.2393,-0.2617,-0.36,-0.4622,-0.5473,-0.8688,-1.141,-1.2306,-1.3504,-1.4915,-1.6633,-1.7382,-1.8166,-1.934,-1.9585,-2.0015,-2.0764,-2.0926,-2.1181,-2.1582,-2.213,-2.266,-2.3165,-2.3282,-2.4365,-2.6594,-2.7783,-2.859,-2.8994,-2.9067,-2.9291,-2.9644,-2.9731,-2.9977,-3.0388,-3.0463,-3.0564,-3.0641,-3.0679,-3.0757,-3.0852,-3.0897,-3.0898,-3.0898,-3.0859,-3.0853,-3.0837,0.0,0.0,0.0,0.0,0.0,0.0,0.0,0.0,0.0,0.0,0.0,0.0,0.0,0.0,0.0,0.0,0.0,0.0,0.0,0.3073,0.3217,0.3371,0.3447,0.3368,0.3154,0.3109,0.338,0.3941,0.3356,0.3497,0.4283,0.377,0.3537,0.3537,0.3537,0.3537,0.3531,0.3449,0.363,0.0,0.0,0.3372,0.3612,0.4115,0.3653,0.2832,0.3692,0.3227,0.2164,0.1979,0.1761,0.1422,0.0496,0.038,0.0414,-0.0439,-0.1033,-0.148,-0.194,-0.2624,-0.3239,-0.3408,-0.4106,-0.454,-0.3924,-0.4288,-0.4481,-0.3629,-0.2063,-0.0918,-0.1139,-0.2177,-0.3211,-0.3922,-0.74,-1.0449,-1.1694,-1.3168,-1.4923,-1.705,-1.7707,-1.843,-1.9573,-1.969,-2.005,-2.0926,-2.0991,-2.126,-2.1869,-2.2271,-2.2643,-2.2972,-2.3277,-2.445,-2.6594,-2.8187,-2.8994,-2.8994,-2.9112,-2.9312,-2.957,-2.9746,-2.9992,-3.0292,0.0,-3.0559,-3.0655,-3.0695,-3.0786,-3.0898,-3.0898,-3.0898,-3.0898,-3.0898,-3.0898,-3.0878,0.0,0.0,0.0,0.0,0.0,0.0,0.0,0.0,0.0,0.3047,0.2822,0.2686,0.2686,0.2637,0.0,0.0,0.0,0.0,0.0,0.0,0.3121,0.3121,0.3169,0.3179,0.3121,0.2831,0.3232,0.4355,0.3343,0.3465,0.4592,0.3656,0.32,0.32,0.32,0.32,0.319,0.303,0.3576,0.4501,0.3579,0.3616,0.417,0.0,0.2909,0.2598,0.2596,0.2423,0.21,0.1497,0.1265,0.1109,0.0268,0.0356,0.0456,-0.1262,-0.158,-0.1561,-0.2662,-0.3364,-0.3823,-0.4094,-0.4592,-0.4761,-0.366,-0.3477,-0.3296,-0.2448,-0.1086,-0.018,-0.0621,-0.1243,-0.1814,-0.2192,-0.4964,-0.7857,-1.0146,-1.1871,-1.4039,-1.7047,-1.789,-1.8612,-1.9603,-1.969,-2.005,-2.0926,-2.0991,-2.1385,-2.2237,-2.2527,-2.2643,-2.2695,-2.3412,-2.4643,-2.6428,-2.799,-2.8819,-2.8929,-2.9203,-2.9372,-2.9394,-2.978,-2.998,-3.0037,0.0,0.0,-3.0601,-3.0662,-3.0761,-3.0879,-3.0879,-3.0879,-3.0898,-3.0898,-3.0898,-3.0879,0.0,0.0,0.0,0.0,0.0,0.0,0.0,0.0,0.0,0.0,0.3994,0.3092,0.0,0.0,0.0,0.0,0.0,0.0,0.0,0.0,0.0,0.2705,0.3026,0.3043,0.2715,0.2967,0.3259,0.3594,0.3278,0.331,0.3638,0.3729,0.3767,0.3767,0.3767,0.3767,0.3767,0.3731,0.3629,0.3454,0.3274,0.3097,0.291,0.2764,0.0,0.0,0.2596,0.2436,0.21,0.1497,0.1139,0.0728,-0.0619,-0.0966,-0.111,-0.2333,-0.2628,-0.2707,-0.3191,-0.3471,-0.3684,-0.3842,-0.4277,-0.4381,-0.3276,-0.334,-0.3081,-0.1028,-0.0461,-0.0077,0.0745,-0.0443,-0.2096,-0.3777,-0.6901,-0.9962,-1.2443,-1.4546,-1.6349,-1.7793,-1.8426,-1.9006,-1.9639,-1.969,-2.005,-2.0926,-2.0991,-2.1385,-2.2237,-2.2349,-2.2463,-2.2695,-2.3728,-2.4728,-2.5686,-2.6958,-2.7894,-2.8515,-2.8892,-2.92,-2.9412,-2.9643,-2.9901,-3.0189,-3.0394,0.0,-3.0606,-3.062,-3.0654,-3.0723,-3.0723,-3.0801,-3.0898,-3.0898,-3.0898,-3.0898,0.0,0.0,0.0,0.0,0.0,0.0,0.0,0.5068,0.5685,0.6989,0.6416,0.5479,0.4303,0.3434,0.2821,0.0,0.0,0.0,0.0,0.0,0.0,0.2598,0.0,0.0,0.2607,0.2782,0.2919,0.2988,0.0,0.2919,0.2988,0.3156,0.3225,0.3225,0.3225,0.3225,0.3225,0.3225,0.3086,0.2889,0.2889,0.2773,0.2598,0.0,0.0,0.0,0.2733,0.2508,0.2092,0.2004,0.1495,0.0664,-0.0576,-0.1142,-0.1471,-0.2302,-0.2723,-0.2974,-0.3269,-0.3578,-0.3854,-0.4058,-0.4475,-0.4452,-0.28,-0.2638,-0.2188,0.0019,0.0478,0.061,0.1018,-0.0325,-0.1839,-0.2875,-0.6721,-1.0091,-1.1524,-1.4487,-1.6846,-1.7875,-1.8541,-1.9132,-1.9639,-1.9874,-2.0296,-2.0959,-2.1181,-2.1598,-2.2254,-2.231,-2.2426,-2.2695,-2.3667,-2.4443,-2.4906,-2.6081,-2.7061,-2.7814,-2.82,-2.8662,-2.9203,-2.9435,-2.9695,-2.9961,-3.0155,0.0,-3.0556,-3.0559,-3.0587,-3.065,-3.0694,-3.0742,-3.0801,-3.0879,-3.0898,-3.0898,0.0,0.0,0.0,0.0,0.0,0.0,0.0,0.6338,0.7129,0.8711,0.8682,0.7822,0.6003,0.4495,0.3363,0.0,0.0,0.0,0.0,0.0,0.0,0.0,0.0,0.0,0.0,0.0,0.0,0.2598,0.2598,0.0,0.0,0.0,0.0,0.0,0.2598,0.2598,0.2598,0.2598,0.2598,0.0,0.0,0.2598,0.0,0.0,0.0,0.0,0.0,0.2637,0.2218,0.2497,0.202,0.1083,0.0135,-0.0509,-0.1044,-0.1705,-0.2167,-0.2585,-0.3106,-0.3582,-0.3976,-0.4164,-0.466,-0.4531,-0.2359,-0.1998,-0.151,0.0653,0.118,0.1195,0.098,-0.0068,-0.1076,-0.157,-0.5229,-0.8458,-0.9713,-1.3227,-1.6163,-1.7458,-1.8504,-1.9244,-1.9639,-2.0,-2.0348,-2.0829,-2.1337,0.0,-2.2265,-2.231,-2.2415,-2.2625,-2.3273,-2.3815,-2.4173,-2.5169,-2.6056,-2.6835,-2.7227,-2.7862,-2.8654,-2.8971,-2.9306,-2.9643,-2.9893,0.0,0.0,-3.0444,-3.0525,-3.0571,-3.0638,-3.0669,-3.0698,-3.08,-3.0859,-3.0859,0.0,0.0,0.0,0.0,0.0,0.0,0.0,0.7012,0.791,1.0352,0.9668,0.8721,0.8145,0.6211,0.4439,0.0,0.0,0.0,0.0,0.0,0.0,0.0,0.0,0.0,0.0,0.0,0.0,0.2598,0.2598,0.0,0.0,0.0,0.0,0.0,0.0,0.2598,0.2598,0.2598,0.0,0.0,0.0,0.0,0.0,0.0,0.0,0.0,0.0,0.2872,0.2713,0.2633,0.2523,0.2346,0.175,0.1038,0.0233,-0.0737,-0.1034,-0.1375,-0.2742,-0.3369,-0.364,-0.3671,-0.4403,-0.4427,-0.194,-0.1981,-0.185,0.0593,0.1114,0.1106,0.1085,0.1055,0.048,-0.1237,-0.2286,-0.4283,-0.8346,-1.1296,-1.3955,-1.6429,-1.8424,-1.9639,-1.969,-1.9711,-1.9909,-2.0348,0.0,0.0,-2.2265,-2.231,-2.231,-2.2349,-2.2417,-2.2802,-2.3493,-2.3967,-2.4584,-2.5317,-2.5953,-2.6675,-2.7459,-2.8001,-2.8668,-2.9454,-2.9829,0.0,0.0,-3.0299,-3.0448,-3.0506,-3.0524,-3.0554,-3.0619,-3.0697,-3.0723,-3.0742,0.0,0.0,0.0,0.0,0.0,0.0,0.7588,0.7646,0.8464,1.1285,1.1025,1.0381,0.9951,0.7978,0.574,0.3402,0.0,0.0,0.0,0.0,0.0,0.0,0.0,0.0,0.0,0.0,0.2598,0.2598,0.2598,0.0,0.0,0.0,0.0,0.0,0.0,0.2598,0.2598,0.2598,0.0,0.0,0.0,0.0,0.0,0.0,0.0,0.0,0.0,0.0,0.2993,0.3099,0.2897,0.2701,0.3207,0.2798,0.1775,0.0133,-0.0626,-0.1154,-0.2419,-0.2937,-0.3262,-0.3543,-0.3462,-0.3021,-0.1711,-0.1272,-0.075,0.0685,0.1109,0.1171,0.1009,0.1159,0.1058,0.03,-0.1167,-0.291,-0.4895,-0.7655,-1.0779,-1.4374,-1.575,-1.7314,-1.9489,-1.9909,-2.0227,-2.0682,0.0,0.0,-2.1524,-2.2003,-2.218,-2.1899,-2.2135,-2.2315,-2.2315,-2.2911,-2.3632,-2.4441,-2.4878,-2.5493,-2.6294,-2.6722,-2.7448,-2.8373,-2.8727,0.0,0.0,-3.0122,-3.0273,-3.0448,-3.0487,-3.0516,-3.0549,-3.0622,-3.0637,-3.0648,0.0,0.0,0.0,0.0,0.0,0.5798,0.7871,0.8037,0.8818,1.1328,1.1377,1.1057,1.0576,0.8474,0.6275,0.4154,0.3135,0.0,0.0,0.0,0.0,0.0,0.0,0.0,0.0,0.0,0.2773,0.2773,0.291,0.299,0.0,0.0,0.2773,0.2773,0.0,0.0,0.0,0.0,0.0,0.0,0.0,0.0,0.0,0.0,0.0,0.0,0.0,0.0,0.0,0.0,0.0,0.3134,0.399,0.3947,0.3255,0.1478,0.0433,-0.0456,-0.1652,-0.2342,-0.2811,-0.3273,-0.2821,-0.2088,-0.1475,-0.0736,0.0018,0.0801,0.1138,0.1215,0.0954,0.1089,0.125,0.129,-0.0095,-0.1428,-0.2225,-0.4577,-0.7524,-1.1096,-1.2295,-1.4235,-1.7757,-1.9321,-2.0261,0.0,0.0,0.0,0.0,-2.1524,-2.1781,-2.143,-2.1869,-2.1928,-2.1582,-2.2231,-2.2892,-2.3488,-2.3762,-2.4327,-2.5137,-2.5439,-2.6186,-2.7248,0.0,0.0,0.0,-2.9779,-3.0047,-3.0299,-3.0337,-3.04,-3.0487,-3.0544,-3.0578,-3.0579,0.0,0.0,0.0,0.0,0.0,0.0,0.7442,0.8096,0.8871,1.0137,1.0303,1.0127,0.9651,0.7344,0.5813,0.5774,0.3833,0.0,0.0,0.0,0.0,0.0,0.0,0.0,0.0,0.0,0.3198,0.3198,0.3666,0.3896,0.3887,0.3405,0.3198,0.3179,0.0,0.0,0.0,0.0,0.0,0.0,0.0,0.0,0.0,0.0,0.0,0.0,0.0,0.0,0.0,0.0,0.0,0.0,0.0,0.4308,0.4593,0.3572,0.2424,0.1149,-0.0328,-0.1433,-0.2315,-0.2795,-0.2653,-0.2142,-0.1131,-0.0548,0.0038,0.092,0.1199,0.1215,0.0954,0.1017,0.1149,0.1273,0.1273,0.0682,-0.0994,-0.2604,-0.4382,-0.642,-0.8326,-1.0744,-1.4049,-1.7606,-1.9726,0.0,0.0,0.0,0.0,-2.0764,-2.0991,-2.1007,-2.1399,-2.1612,-2.1582,-2.2061,-2.231,-2.231,-2.259,-2.3154,-2.4033,-2.431,-2.504,0.0,0.0,0.0,0.0,-2.9267,-2.9813,-2.9999,-2.9999,-3.0182,-3.0398,-3.0487,-3.0506,-3.0525,0.0,0.0,0.0,0.0,0.0,0.0,0.0,0.6699,0.7205,0.8803,0.8721,0.8603,0.876,0.6982,0.5685,0.5341,0.3662,0.0,0.0,0.0,0.0,0.0,0.0,0.0,0.0,0.0,0.3625,0.4487,0.465,0.4718,0.4709,0.4572,0.4032,0.3198,0.3063,0.286,0.0,0.0,0.0,0.0,0.0,0.0,0.0,0.0,0.0,0.0,0.0,0.0,0.0,0.0,0.0,0.0,0.0,0.0,0.0,0.4304,0.3404,0.2154,0.1092,0.0208,-0.0459,-0.0601,-0.0173,0.0266,0.0328,0.0906,0.1395,0.1268,0.134,0.1384,0.1204,0.1204,0.1295,0.1476,0.1497,0.1319,0.0784,-0.0825,-0.3257,-0.6807,-1.1674,-1.5156,-1.6188,0.0,0.0,0.0,0.0,0.0,0.0,-1.9492,-1.9849,-2.0516,-2.0959,-2.1039,-2.0699,-2.1181,-2.1554,-2.1823,-2.1907,-2.2271,-2.2856,-2.3154,0.0,0.0,0.0,0.0,0.0,-2.8389,-2.908,-2.9813,-2.9954,-3.0042,-3.015,-3.0362,-3.0417,-3.0448,0.0,0.0,0.0,0.0,0.0,0.0,0.0,0.6084,0.6406,0.749,0.7402,0.7402,0.7852,0.6225,0.5166,0.5352,0.3804,0.0,0.0,0.0,0.0,0.0,0.0,0.0,0.3189,0.3376,0.4154,0.5594,0.5759,0.5934,0.608,0.5925,0.5166,0.3896,0.36,0.322,0.0,0.0,0.0,0.0,0.0,0.0,0.4453,0.0,0.0,0.0,0.0,0.0,0.0,0.0,0.0,0.0,0.0,0.0,0.0,0.0,0.3908,0.292,0.2318,0.145,0.0695,0.0507,0.0942,0.1328,0.0974,0.1568,0.2036,0.1485,0.1437,0.1459,0.1324,0.1307,0.1356,0.1535,0.1583,0.1355,0.0636,-0.0457,-0.2562,-0.6243,-1.1497,-1.495,0.0,-1.6824,0.0,0.0,0.0,0.0,0.0,-1.8612,-1.8977,-1.9743,-2.0416,-2.0583,-2.0314,-2.0764,-2.1213,-2.1582,-2.1582,-2.1853,-2.231,-2.2525,0.0,0.0,0.0,0.0,0.0,-2.7738,-2.8631,-2.9607,-2.9712,-2.9861,-2.9975,-2.9851,-2.9831,-2.9929,0.0,0.0,0.0,0.0,0.0,0.0,0.0,0.6064,0.6318,0.6318,0.6289,0.6436,0.6865,0.5117,0.4372,0.5558,0.0,0.0,0.0,0.0,0.0,0.0,0.0,0.0,0.3237,0.373,0.4813,0.6494,0.6992,0.7451,0.7822,0.75,0.6572,0.5166,0.4404,0.375,0.0,0.0,0.0,0.0,0.0,0.3658,0.0,0.0,0.0,0.0,0.0,0.0,0.0,0.0,0.0,0.0,0.0,0.0,0.0,0.0,0.0,0.0,0.0,0.2364,0.1299,0.087,0.1096,0.1328,0.1052,0.1611,0.0,0.1614,0.1507,0.1475,0.1377,0.1323,0.1353,0.1518,0.1578,0.094,-0.0933,-0.1496,-0.2756,-0.5511,-0.8949,-1.1467,-1.2377,0.0,0.0,0.0,0.0,0.0,0.0,-1.8027,-1.8302,-1.8817,-1.9707,-2.0162,-2.0246,-2.0698,-2.1118,-2.1521,-2.1521,-2.1764,-2.2209,-2.2209,0.0,0.0,0.0,0.0,0.0,-2.7169,-2.8261,-2.9272,-2.9258,-2.9457,-2.9696,-2.8941,-2.8792,-2.8964,0.0,0.0,0.0,0.0,0.0,0.0,0.0,0.0,0.0,0.0,0.5127,0.499,0.5098,0.4392,0.4024,0.0,0.0,0.0,0.0,0.0,0.0,0.0,0.0,0.0,0.3725,0.4453,0.5662,0.7394,0.8184,0.877,0.9155,0.9424,0.8311,0.6071,0.5898,0.4844,0.0,0.0,0.0,0.0,0.2909,0.3045,0.0,0.0,0.0,0.0,0.3679,0.3769,0.0,0.0,0.0,0.0,0.0,0.0,0.0,0.0,0.4007,0.3795,0.3742,0.0,0.2552,0.2335,0.237,0.2341,0.0,0.2046,0.2117,0.1789,0.1603,0.1603,0.1933,0.161,0.1466,0.1961,0.1792,0.094,-0.0933,-0.4464,-0.7943,-1.0925,-1.2372,-1.3405,-1.4049,0.0,0.0,0.0,0.0,0.0,0.0,-1.7504,-1.7747,-1.8263,-1.8507,-1.9014,-1.9839,-1.9945,-2.0193,-2.0616,-2.0616,-2.0846,-2.1291,-2.1291,0.0,0.0,0.0,0.0,-2.5349,-2.55,-2.6641,-2.82,-2.7792,-2.7693,-2.7745,-2.7573,-2.7528,-2.7632,0.0,0.0,0.0,0.0,0.0,0.0,0.0,0.0,0.0,0.0,0.0,0.4434,0.4254,0.3838,0.0,0.0,0.0,0.0,0.0,0.0,0.0,0.0,0.0,0.3721,0.4166,0.4609,0.5889,0.8027,0.8486,0.9228,1.0176,1.0059,0.8926,0.6937,0.5771,0.4492,0.0,0.0,0.0,0.3159,0.2753,0.0,0.0,0.0,0.0,0.0,0.3578,0.3803,0.0,0.4789,0.4912,0.4659,0.0,0.0,0.0,0.0,0.3503,0.3303,0.3303,0.3404,0.3483,0.3426,0.3193,0.2915,0.2634,0.2321,0.2041,0.1837,0.1708,0.1689,0.1851,0.1738,0.1678,0.1844,0.1047,-0.027,-0.2225,-0.4997,-0.7819,-1.057,-1.132,-1.2329,0.0,0.0,0.0,0.0,0.0,0.0,0.0,-1.6532,-1.6912,-1.7706,-1.7747,-1.8145,-1.8968,-1.9207,-1.9558,-1.9974,-2.0212,-2.055,-2.0991,-2.0991,-2.1118,0.0,0.0,0.0,-2.4023,-2.4285,-2.5247,-2.6556,-2.6443,-2.6495,-2.6558,-2.6148,-2.6078,-2.6251,0.0,0.0,0.0,0.0,0.0,0.0,0.0,0.0,0.0,0.0,0.0,0.0,0.0,0.0,0.0,0.0,0.0,0.0,0.0,0.0,0.0,0.0,0.0,0.4215,0.4687,0.4697,0.5869,0.8281,0.8567,0.9404,1.0811,1.041,0.933,0.7686,0.5195,0.375,0.0,0.0,0.2813,0.3107,0.2765,0.0,0.0,0.0,0.0,0.0,0.0,0.0,0.0,0.466,0.4962,0.4942,0.4541,0.0,0.0,0.0,0.0,0.0,0.2676,0.3337,0.3973,0.3866,0.35,0.3109,0.2928,0.2424,0.1969,0.1855,0.1813,0.1786,0.1756,0.1841,0.189,0.176,-0.0043,-0.2141,-0.414,-0.5155,-0.65,-0.8723,-0.9343,0.0,0.0,0.0,0.0,0.0,0.0,0.0,0.0,-1.5454,-1.5928,-1.6883,-1.7008,-1.7244,-1.772,-1.8482,-1.9051,-1.939,-1.9954,-2.0382,-2.0682,-2.0764,-2.0829,0.0,0.0,0.0,-2.281,-2.3367,-2.4196,-2.5161,-2.5372,-2.5595,-2.5691,-2.4923,-2.4708,-2.4852,0.0,0.0,0.0,0.0,0.0,0.0,0.0,0.0,0.0,0.0,0.0,0.0,0.0,0.0,0.0,0.0,0.0,0.0,0.0,0.0,0.0,0.4923,0.46,0.4775,0.5587,0.5607,0.6318,0.7802,0.9277,1.0127,1.041,1.2119,1.126,0.8184,0.5937,0.4281,0.3169,0.2763,0.2706,0.2854,0.2791,0.0,0.0,0.0,0.0,0.0,0.0,0.0,0.0,0.3911,0.4307,0.4521,0.4117,0.0,0.0,0.0,0.0,0.0,0.3014,0.3353,0.3449,0.2821,0.285,0.2905,0.2427,0.2153,0.1999,0.1979,0.1875,0.202,0.2729,0.2149,0.186,0.271,-0.0698,-0.4106,-0.6018,-0.8555,-1.0657,-1.1978,0.0,0.0,0.0,0.0,0.0,0.0,0.0,0.0,0.0,-1.4835,-1.4926,-1.5096,-1.5576,-1.5884,-1.5959,-1.7932,-1.8727,-1.8327,-1.9303,-1.9573,-1.9251,-1.9681,-2.007,0.0,0.0,-2.1132,-2.3015,-2.2738,-2.388,-2.5778,-2.5163,-2.4837,-2.4694,-2.44,-2.3863,-2.3468,0.0,0.0,0.0,0.0,0.0,0.0,0.0,0.0,0.0,0.0,0.0,0.0,0.0,0.0,0.0,0.0,0.0,0.0,0.0,0.0,0.0,0.6139,0.6006,0.6102,0.6547,0.6834,0.7817,0.9501,1.0999,1.1744,1.168,1.127,0.9727,0.7227,0.5312,0.3979,0.3169,0.2763,0.2675,0.2807,0.0,0.0,0.0,0.0,0.0,0.0,0.0,0.0,0.0,0.0,0.4166,0.4385,0.373,0.0,0.0,0.0,0.0,0.0,0.2821,0.329,0.3539,0.2795,0.2758,0.2719,0.208,0.1712,0.1628,0.2019,0.2056,0.2258,0.3056,0.2264,0.089,-0.0974,-0.223,-0.3805,-0.6175,-0.6724,-0.7732,0.0,0.0,0.0,0.0,0.0,0.0,0.0,0.0,0.0,0.0,0.0,-1.4376,-1.4709,-1.4971,-1.5096,-1.5096,-1.6413,-1.7261,-1.7666,-1.8458,-1.8855,-1.8893,-1.9169,-1.9536,-1.9995,0.0,-2.0818,-2.1812,-2.1817,-2.2451,-2.3426,-2.3177,-2.3008,-2.2953,-2.3127,-2.3117,-2.3058,0.0,0.0,0.0,0.0,0.0,0.0,0.0,0.0,0.0,0.0,0.0,0.0,0.0,0.0,0.0,0.0,0.0,0.0,0.0,0.0,0.5604,0.6748,0.6992,0.7427,0.8117,0.8612,0.9763,1.1642,1.3026,1.3596,1.3387,1.0663,0.8429,0.6645,0.4865,0.37,0.3034,0.2734,0.2695,0.2815,0.0,0.0,0.0,0.0,0.0,0.0,0.0,0.0,0.0,0.0,0.0,0.0,0.0,0.0,0.0,0.3176,0.2865,0.2764,0.2871,0.3346,0.3632,0.2931,0.2916,0.2852,0.2001,0.1508,0.1377,0.1849,0.1917,0.2173,0.3068,0.2331,0.0308,-0.3582,-0.3321,-0.3461,-0.5933,-0.5291,-0.5463,0.0,0.0,0.0,0.0,0.0,0.0,0.0,0.0,0.0,0.0,0.0,-1.3779,-1.4247,-1.4433,-1.4468,-1.4468,-1.5061,-1.5792,-1.6701,-1.7369,-1.7853,-1.8115,-1.8377,-1.8788,-1.9332,-1.999,-2.0444,-2.0707,-2.102,-2.1337,-2.1579,-2.1745,-2.1822,-2.1889,-2.2202,-2.2591,-2.3006,0.0,0.0,0.0,0.0,0.0,0.0,0.0,0.0,0.0,0.0,0.0,0.0,0.0,0.0,0.0,0.0,0.0,0.0,0.0,0.0,0.5331,0.5872,0.666,0.8308,1.0865,1.1195,1.2069,1.3616,1.4979,1.5506,1.5064,1.2025,0.955,0.7607,0.5546,0.3903,0.2646,0.2607,0.2713,0.2887,0.2887,0.0,0.0,0.0,0.0,0.0,0.0,0.0,0.0,0.0,0.0,0.0,0.0,0.0,0.4415,0.4152,0.3646,0.3259,0.3686,0.3681,0.3373,0.2765,0.3224,0.3536,0.243,0.1895,0.1557,0.1251,0.1089,0.1408,0.2768,0.2383,0.1044,-0.1448,-0.2988,-0.4404,-0.6011,0.0,0.0,0.0,0.0,0.0,0.0,0.0,0.0,0.0,0.0,0.0,0.0,0.0,0.0,-1.3017,-1.3552,-1.3862,-1.3862,-1.4468,-1.4789,-1.4926,-1.5948,-1.6193,-1.5799,-1.6822,-1.7612,-1.8166,-1.8755,-1.9683,-2.0722,-2.0745,-2.1364,-2.2319,-2.2347,-2.2442,-2.258,-2.2387,-2.2591,-2.3006,0.0,0.0,0.0,0.0,0.0,0.0,0.0,0.0,0.0,0.0,0.0,0.0,0.0,0.0,0.0,0.0,0.0,0.0,0.0,0.5507,0.618,0.7485,0.8212,0.946,1.134,1.2685,1.4182,1.5843,1.5635,1.5028,1.3974,1.1238,0.8717,0.6435,0.5116,0.3986,0.3082,0.2876,0.2997,0.3308,0.3106,0.3106,0.0,0.0,0.0,0.0,0.0,0.0,0.0,0.0,0.3694,0.4167,0.3686,0.4096,0.4638,0.4111,0.3601,0.3274,0.3622,0.3616,0.344,0.3212,0.3604,0.3621,0.2102,0.1597,0.1527,0.1733,0.1448,0.1346,0.2062,0.1129,-0.0317,-0.2127,-0.3771,-0.5191,-0.6307,0.0,0.0,0.0,0.0,0.0,0.0,0.0,0.0,0.0,0.0,0.0,0.0,0.0,0.0,-1.2236,-1.289,-1.3238,-1.3238,-1.3478,-1.3563,-1.361,-1.4744,-1.5384,-1.5504,-1.5929,-1.645,-1.706,-1.8017,-1.8763,-1.9247,-1.9581,-2.0146,-2.087,-2.1029,-2.1331,-2.168,-2.1804,-2.1977,-2.2173,0.0,0.0,0.0,0.0,0.0,0.0,0.0,0.0,0.0,0.0,0.0,0.0,0.0,0.0,0.0,0.0,0.0,0.0,0.59,0.5911,0.6513,0.7881,0.8601,0.9713,1.1296,1.3427,1.5219,1.6664,1.6209,1.5057,1.3216,1.0755,0.8578,0.665,0.5178,0.4435,0.4237,0.3495,0.3382,0.3652,0.3265,0.3177,0.0,0.0,0.0,0.0,0.0,0.0,0.0,0.0,0.3697,0.4174,0.3903,0.4338,0.4866,0.4428,0.4134,0.3927,0.3938,0.388,0.3794,0.3724,0.3897,0.3747,0.2392,0.1906,0.1848,0.2073,0.1879,0.1612,0.1469,0.0445,-0.0761,-0.1868,-0.3523,-0.487,0.0,0.0,0.0,0.0,0.0,0.0,0.0,0.0,0.0,0.0,0.0,0.0,0.0,0.0,0.0,0.0,-1.2295,-1.2599,-1.2676,-1.2812,-1.2812,-1.2676,-1.3679,-1.4318,-1.4676,-1.4732,-1.5053,-1.5676,-1.6933,-1.7544,-1.7832,-1.8505,-1.9091,-1.9628,-2.0102,-2.0483,-2.0829,-2.1244,-2.1491,-2.1658,0.0,0.0,0.0,0.0,0.0,0.0,0.0,0.0,0.0,0.0,0.0,0.0,0.0,0.0,0.0,0.0,0.0,0.0,0.5918,0.5911,0.6086,0.6494,0.735,0.8804,1.0929,1.3459,1.5066,1.5693,1.681,1.5919,1.311,1.0935,0.9529,0.8764,0.6027,0.533,0.6082,0.4474,0.3845,0.3865,0.3334,0.3189,0.3306,0.0,0.0,0.0,0.0,0.0,0.0,0.0,0.3966,0.4032,0.5365,0.5469,0.5137,0.5344,0.5449,0.5378,0.4834,0.4597,0.4429,0.4171,0.4104,0.3955,0.3428,0.3041,0.2643,0.2119,0.2195,0.2095,0.1093,0.0534,0.0094,-0.0141,-0.1921,0.0,0.0,0.0,0.0,0.0,0.0,0.0,0.0,0.0,0.0,0.0,0.0,0.0,0.0,0.0,0.0,0.0,-1.1814,-1.1935,-1.219,-1.2656,-1.2656,-1.219,-1.2666,-1.2881,-1.291,-1.3032,-1.3378,-1.3964,-1.5217,-1.6087,-1.666,-1.766,-1.8419,-1.8991,-1.9919,-2.028,-2.0348,-2.0829,-2.1244,-2.1582,0.0,0.0,0.0,0.0,0.0,0.0,0.0,0.0,0.0,0.0,0.0,0.0,0.0,0.0,0.0,0.0,0.0,0.0,0.6395,0.6395,0.662,0.7102,0.778,0.8247,0.8469,1.0005,1.2403,1.5693,1.5293,1.3443,1.0307,1.0031,0.8753,0.6714,0.6647,0.6254,0.5564,0.4474,0.4377,0.4892,0.4122,0.3826,0.3867,0.0,0.0,0.0,0.0,0.0,0.0,0.0,0.0,0.0,0.4484,0.493,0.5274,0.5155,0.4929,0.4635,0.4244,0.3906,0.3665,0.3743,0.3882,0.4024,0.394,0.3544,0.2976,0.2299,0.2202,0.2182,0.1979,0.0902,0.005,0.0095,-0.1399,0.0,0.0,0.0,0.0,0.0,0.0,0.0,0.0,0.0,0.0,0.0,0.0,0.0,0.0,0.0,0.0,0.0,-1.1228,-1.1731,-1.1631,-1.2157,-1.251,-1.2686,-1.251,-1.2588,-1.291,-1.2599,-1.2771,-1.3311,-1.4195,-1.4887,-1.5463,-1.6926,-1.7867,-1.8405,-1.9051,-1.9558,-1.9945,-2.0364,-2.0583,-2.0732,0.0,0.0,0.0,0.0,0.0,0.0,0.0,0.0,0.6599,0.6599,0.6599,0.6599,0.0,0.0,0.0,0.6599,0.6599,0.0,0.6599,0.6599,0.6749,0.7056,0.7425,0.7751,0.8064,0.9165,1.0721,1.2755,1.2743,1.1404,0.8788,0.9767,0.9227,0.7457,0.8102,0.7818,0.6803,0.56,0.5139,0.5199,0.4671,0.4456,0.4431,0.0,0.0,0.0,0.0,0.0,0.0,0.0,0.0,0.0,0.4043,0.4462,0.4904,0.504,0.5112,0.5122,0.4951,0.4708,0.4468,0.4391,0.4209,0.4058,0.4029,0.3818,0.3384,0.2624,0.2488,0.2426,0.2256,0.1201,0.0,0.0,0.0,0.0,0.0,0.0,0.0,0.0,0.0,0.0,0.0,0.0,0.0,0.0,0.0,0.0,0.0,0.0,0.0,0.0,-1.0505,-1.0987,-1.0906,-1.1408,-1.1645,-1.1619,-1.1734,-1.1883,-1.2053,-1.1989,-1.2133,-1.2525,-1.363,-1.4485,-1.5246,-1.6712,-1.7504,-1.7827,-1.838,-1.8893,-1.9391,-1.9651,-1.9989,-2.0348,0.0,0.0,0.0,0.0,0.0,0.0,0.0,0.6599,0.6599,0.6599,0.6599,0.6599,0.0,0.0,0.0,0.6599,0.6599,0.6599,0.6599,0.6599,0.6599,0.6599,0.6599,0.7344,0.8924,0.9818,0.9529,0.8072,0.9729,0.9692,0.811,0.9867,1.0318,0.9692,0.988,0.9554,0.8773,0.7143,0.5913,0.5073,0.5023,0.4997,0.4934,0.4381,0.0,0.0,0.0,0.0,0.0,0.0,0.0,0.0,0.393,0.4095,0.4239,0.49,0.5617,0.6189,0.6205,0.6186,0.6063,0.5559,0.4808,0.4125,0.3844,0.3897,0.3817,0.3133,0.3006,0.2828,0.2224,0.1556,0.1124,0.0,0.0,0.0,0.0,0.0,0.0,0.0,0.0,0.0,0.0,0.0,0.0,0.0,0.0,0.0,0.0,0.0,0.0,0.0,-0.9695,-0.991,-1.01,-1.0524,-1.04,0.0,-1.0661,-1.1003,-1.0838,-1.1378,-1.1669,-1.1806,-1.3434,-1.4681,-1.5664,-1.6799,-1.7271,-1.7353,-1.7827,-1.8341,-1.8817,-1.8817,-1.9383,-2.0162,0.0,0.0,0.0,0.0,0.0,0.0,0.6599,0.6599,0.6599,0.6599,0.6599,0.6599,0.6599,0.6599,0.0,0.6599,0.6599,0.6599,0.6599,0.6599,0.6599,0.6599,0.6599,0.6962,0.7751,0.7181,0.6679,0.634,0.8411,0.8374,0.6403,0.9316,0.9717,0.8026,0.9754,0.9254,0.7068,0.5853,0.545,0.5589,0.5174,0.4997,0.4985,0.4859,0.4253,0.0,0.0,0.0,0.0,0.0,0.0,0.0,0.393,0.4095,0.4134,0.429,0.4821,0.5264,0.48,0.5037,0.534,0.5034,0.4555,0.4132,0.3873,0.3819,0.3852,0.3904,0.3913,0.3724,0.2992,0.2631,0.0,0.0,0.0,0.0,0.0,0.0,0.0,0.0,0.0,0.0,0.0,0.0,0.0,0.0,0.0,0.0,0.0,0.0,0.0,-0.7833,-0.9116,-0.9708,-0.9573,-0.9795,-1.0037,0.0,-1.0303,-1.0522,-1.0838,-1.1378,-1.2037,-1.2827,-1.4059,-1.4959,-1.5676,-1.6355,-1.6909,-1.7312,-1.7422,-1.7787,-1.8263,-1.8263,-1.8688,-1.9214,0.0,0.0,0.0,0.0,0.0,0.0,0.0,0.0,0.6599,0.6599,0.6599,0.6499,0.6252,0.6227,0.0,0.0,0.6076,0.6227,0.6227,0.6449,0.6599,0.6599,0.6849,0.6874,0.6637,0.6336,0.5926,0.5412,0.6835,0.7056,0.624,0.8763,0.9328,0.8286,0.9705,0.8915,0.6574,0.629,0.5863,0.5412,0.5387,0.5375,0.5324,0.477,0.4204,0.365,0.3395,0.0,0.0,0.0,0.0,0.0,0.0,0.0,0.3787,0.4137,0.4672,0.5166,0.5187,0.5662,0.5998,0.5578,0.5075,0.4596,0.4202,0.4149,0.4168,0.4045,0.3975,0.3801,0.3515,0.0,0.0,0.0,0.0,0.0,0.0,0.0,0.0,0.0,0.0,0.0,0.0,0.0,0.0,0.0,0.0,0.0,0.0,-0.6207,-0.6849,-0.7471,-0.8164,-0.8719,-0.9119,-0.8945,-0.8971,-0.9184,-0.9468,-1.0177,-1.1202,-1.1688,-1.2173,-1.2721,-1.38,-1.4595,-1.5231,-1.582,-1.6398,-1.6909,-1.6909,-1.7229,-1.7747,-1.8027,-1.8458,-1.893,0.0,0.0,0.0,0.0,0.0,0.0,0.0,0.0,0.0,0.6599,0.6599,0.6386,0.585,0.58,0.5589,0.0,0.0,0.0,0.5788,0.6298,0.6637,0.6737,0.6981,0.6762,0.5951,0.6086,0.5788,0.4997,0.5438,0.6026,0.6774,0.8349,0.9,0.8813,0.9378,0.8449,0.6474,0.6719,0.6061,0.4884,0.5337,0.5499,0.5398,0.4457,0.4043,0.3904,0.3461,0.3306,0.3306,0.3306,0.0,0.0,0.0,0.0,0.342,0.4031,0.4601,0.5172,0.5838,0.6537,0.6945,0.634,0.5797,0.5214,0.4687,0.4602,0.4487,0.4029,0.3771,0.3653,0.0,0.0,0.0,0.0,0.0,0.0,0.0,0.0,0.0,0.0,0.0,0.0,0.0,0.0,0.0,0.0,0.0,0.0,-0.4155,-0.4888,-0.5925,-0.7222,-0.7145,-0.7561,-0.8488,-0.8068,-0.7849,-0.7849,-0.8663,-0.9934,-1.1547,-1.1945,-1.2194,-1.2363,-1.3387,-1.4097,-1.4606,-1.5186,-1.5732,-1.6207,-1.6293,-1.6612,-1.7105,-1.7747,-1.8377,-1.8975,0.0,0.0,0.0,0.0,0.0,0.0,0.0,0.0,0.0,0.0,0.6599,0.6386,0.585,0.58,0.5589,0.5048,0.506,0.5299,0.5762,0.0,0.0,0.7269,0.6474,0.6164,0.6486,0.5134,0.462,0.4997,0.5073,0.585,0.7319,0.8524,0.8575,0.7643,0.8239,0.7545,0.585,0.4921,0.4408,0.4231,0.4306,0.4331,0.4307,0.4157,0.3804,0.3398,0.3332,0.3306,0.3306,0.3306,0.3306,0.0,0.0,0.0,0.3323,0.342,0.3866,0.4406,0.473,0.5898,0.6867,0.6319,0.5925,0.5569,0.5262,0.4806,0.4428,0.434,0.4044,0.0,0.0,0.0,0.0,0.0,0.0,0.0,0.0,0.0,0.0,0.0,0.0,0.0,0.0,0.0,0.0,0.0,0.0,0.0,-0.345,-0.4627,-0.5392,-0.5623,-0.6602,-0.7176,-0.7346,-0.7464,-0.7574,-0.7574,-0.8473,-0.9725,-1.1267,-1.1659,-1.2211,-1.2841,-1.3521,-1.3862,-1.3956,-1.456,-1.488,-1.4971,-1.5511,-1.5764,-1.5944,-1.7093,-1.8163,-1.9084,0.0,0.0,0.0,0.0,0.0,0.0,0.0,0.0,0.0,0.0,0.0,0.6386,0.585,0.5538,0.5123,0.4544,0.4494,0.4871,0.5737,0.6122,0.6555,0.7104,0.6456,0.603,0.5937,0.48,0.4498,0.5061,0.4681,0.5485,0.7406,0.7601,0.7784,0.7876,0.7206,0.6315,0.5312,0.4821,0.4407,0.4095,0.4095,0.4641,0.5313,0.4109,0.4065,0.4521,0.3631,0.3306,0.3306,0.3306,0.3306,0.3306,0.3306,0.0,0.0,0.0,0.3705,0.4331,0.5156,0.593,0.6514,0.661,0.6438,0.6138,0.586,0.5466,0.5067,0.4933,0.0,0.0,0.0,0.0,0.0,0.0,0.0,0.0,0.0,0.0,0.0,0.0,0.0,0.0,0.0,0.0,0.0,0.0,0.0,-0.2213,-0.2553,-0.3456,-0.4357,-0.517,-0.5448,-0.6089,-0.7092,-0.6865,-0.717,-0.7959,-0.8586,-0.9705,-1.1199,-1.1634,-1.2187,-1.2929,-1.32,-1.3505,-1.3815,-1.4097,-1.4376,-1.4744,-1.5005,-1.532,-1.5736,-1.6851,-1.7852,-1.8652,0.0,0.0,0.0,0.0,0.0,0.0,0.0,0.0,0.0,0.0,0.0,0.6336,0.5677,0.0,0.0,0.0,0.3892,0.4319,0.5298,0.5655,0.6,0.6417,0.6022,0.5601,0.5181,0.448,0.4397,0.4953,0.4606,0.5533,0.7653,0.7136,0.7547,0.8637,0.6817,0.5715,0.5187,0.4896,0.4519,0.4132,0.4558,0.5453,0.6398,0.5218,0.5516,0.6345,0.4572,0.3927,0.3864,0.3445,0.3306,0.3306,0.3306,0.3306,0.0,0.0,0.0,0.4102,0.5049,0.5591,0.6029,0.6614,0.6637,0.648,0.6427,0.6115,0.5779,0.0,0.0,0.0,0.0,0.0,0.0,0.0,0.0,0.0,0.0,0.0,0.0,0.0,0.0,0.0,0.0,0.0,0.0,0.0,0.0,-0.1364,-0.1969,-0.2592,-0.3458,-0.4731,-0.4513,-0.5103,-0.6602,-0.657,-0.7113,-0.8222,-0.858,-0.9509,-1.0862,-1.1137,-1.1783,-1.2618,-1.2822,-1.3152,-1.3552,-1.3552,-1.3826,-1.4247,-1.4571,-1.4971,-1.5525,-1.693,-1.7894,-1.8557,0.0,0.0,0.0,0.0,0.0,0.0,0.0,0.0,0.0,0.0,0.0,0.6202,0.5161,0.501,0.4556,0.3445,0.3344,0.3587,0.4145,0.4732,0.51,0.519,0.4682,0.0,0.4549,0.3951,0.3929,0.4528,0.5076,0.6365,0.8346,0.7927,0.8486,0.973,0.7526,0.6265,0.5687,0.4607,0.412,0.4232,0.5823,0.6519,0.6764,0.8236,0.8851,0.8627,0.6453,0.5662,0.5438,0.3826,0.3306,0.3306,0.3306,0.3306,0.3306,0.0,0.0,0.0,0.3426,0.4325,0.5405,0.6,0.6136,0.6286,0.6827,0.655,0.6167,0.6136,0.0,0.0,0.0,0.0,0.0,0.0,0.0,0.0,0.0,0.0,0.0,0.0,0.0,0.0,0.0,0.0,0.0,0.0,0.0,-0.1383,-0.1965,-0.2578,-0.3183,-0.3849,-0.4227,-0.4705,-0.5387,-0.6736,-0.7602,-0.7909,-0.8259,-0.894,-0.9887,-0.9909,-1.0618,-1.1922,-1.2608,-1.2929,-1.2978,-1.2978,-1.2978,-1.3113,-1.4247,-1.4709,-1.5005,-1.7309,-1.8524,-1.9112,0.0,0.0,0.0,0.0,0.0,0.0,0.0,0.0,0.0,0.0,0.0,0.0,0.0,0.4657,0.4256,0.3842,0.3499,0.3524,0.4057,0.4426,0.4803,0.5211,0.4843,0.4646,0.4695,0.406,0.4004,0.4554,0.436,0.5388,0.7552,0.7066,0.746,0.8486,0.6824,0.6177,0.6202,0.4356,0.3779,0.4223,0.5504,0.6632,0.7626,0.8282,0.8955,0.9364,0.7926,0.6528,0.5309,0.5004,0.4191,0.3306,0.3306,0.3306,0.3168,0.2473,0.2272,0.2272,0.2272,0.3392,0.4641,0.5046,0.5483,0.5948,0.6348,0.6326,0.6297,0.6655,0.0,0.0,0.0,0.0,0.0,0.0,0.0,0.0,0.0,0.0,0.0,0.0,0.0,0.0,0.0,0.0,0.0,0.0,0.0,0.0,-0.1835,-0.2071,-0.2625,-0.3659,-0.3824,-0.4409,-0.556,-0.6462,-0.7344,-0.8216,-0.8323,-0.8866,-0.9814,-0.9814,-1.0517,-1.1814,-1.208,-1.2452,-1.2881,-1.2881,-1.2881,-1.2929,-1.3392,-1.392,-1.472,-1.6434,-1.758,-1.8462,0.0,0.0,0.0,0.0,0.0,0.0,0.0,0.0,0.574,0.5551,0.0,0.0,0.0,0.0,0.452,0.4132,0.3612,0.3449,0.3804,0.3996,0.4289,0.47,0.4567,0.4462,0.4462,0.4057,0.3995,0.4336,0.4131,0.4966,0.6763,0.6621,0.7076,0.7901,0.6444,0.6101,0.6486,0.4833,0.4355,0.4821,0.6637,0.7907,0.8795,0.9566,1.0224,1.0485,0.9062,0.7531,0.6249,0.6486,0.5734,0.4516,0.3594,0.2789,0.2057,0.1341,0.1657,0.2234,0.2234,0.3047,0.4009,0.4428,0.4724,0.5144,0.6128,0.6272,0.631,0.688,0.0,0.0,0.0,0.0,0.0,0.0,0.0,0.0,0.0,0.0,0.0,0.0,0.0,0.0,0.0,0.0,0.0,0.0,0.0,0.0,-0.1429,-0.1687,-0.2342,-0.3581,-0.3796,-0.4442,-0.5672,-0.6412,-0.73,-0.8427,-0.847,-0.8868,-0.9465,-0.9573,-1.0267,-1.1484,-1.1738,-1.231,-1.3096,-1.3096,-1.3174,-1.3291,-1.3372,-1.392,-1.4784,-1.5914,-1.6848,-1.7693,0.0,0.0,0.0,0.0,0.0,0.0,0.0,0.0,0.5614,0.5098,0.0,0.0,0.0,0.0,0.0,0.4231,0.3638,0.3319,0.3306,0.342,0.352,0.3589,0.3718,0.3786,0.3786,0.3869,0.3877,0.3794,0.4521,0.5271,0.6073,0.6724,0.7464,0.8156,0.6507,0.608,0.6511,0.5963,0.5737,0.6051,0.9329,1.0316,1.0116,1.2364,1.2855,1.2098,0.9898,0.8825,0.8407,0.8241,0.7801,0.6876,0.4125,0.1754,0.0,0.0,0.1527,0.3218,0.0,0.0,0.0,0.4096,0.3807,0.3957,0.6277,0.6451,0.6293,0.6848,0.0,0.0,0.0,0.0,0.0,0.0,0.0,0.0,0.0,0.0,0.0,0.0,0.0,0.0,0.0,0.0,0.0,0.0,0.0,0.038,-0.0855,-0.1506,-0.2366,-0.3578,-0.4096,-0.4799,-0.5687,-0.6588,-0.7541,-0.839,-0.8677,-0.8818,-0.8818,-0.9064,-0.9767,-1.082,-1.1589,-1.2474,-1.3494,-1.3474,-1.3769,-1.4135,-1.4297,-1.4664,-1.5154,-1.5906,-1.6461,-1.6877,0.0,0.0,0.0,0.0,0.0,0.6549,0.6399,0.6051,0.5752,0.0,0.0,0.0,0.4407,0.4482,0.462,0.4733,0.4217,0.3716,0.3332,0.3332,0.3366,0.3378,0.3511,0.3614,0.3658,0.3772,0.384,0.3869,0.4077,0.4531,0.5242,0.5425,0.5813,0.6322,0.5754,0.5516,0.5458,0.4428,0.4468,0.5434,0.7896,0.9003,0.9451,1.2079,1.2707,1.2205,1.197,1.0812,0.947,0.9805,0.8244,0.5705,0.3,0.1164,0.0,0.0,0.0429,0.1262,0.2865,0.0,0.0,0.0,0.0,0.0,0.4337,0.5561,0.6664,0.6403,0.0,0.0,0.0,0.0,0.0,0.0,0.0,0.0,0.0,0.0,0.0,0.0,0.0,0.0,0.0,0.0,0.0,0.0,0.091,0.0376,-0.082,-0.1885,-0.281,-0.3578,-0.3855,-0.4404,-0.525,-0.6151,-0.7047,-0.7887,-0.8702,-0.9011,-0.8824,-0.9332,-0.989,-1.0508,-1.1477,-1.2226,-1.2781,-1.36,-1.398,-1.4121,-1.4143,-1.4477,-1.4984,-1.57,-1.6213,-1.6695,0.0,0.0,0.6599,0.6599,0.6787,0.6787,0.6323,0.6202,0.5976,0.0,0.0,0.0,0.5146,0.5347,0.5434,0.5337,0.457,0.3967,0.3663,0.3468,0.3387,0.3387,0.3487,0.3552,0.3555,0.3672,0.3735,0.3773,0.3825,0.4061,0.4437,0.4639,0.4885,0.5134,0.4999,0.4875,0.4698,0.3803,0.4162,0.557,0.8192,0.9248,0.9515,1.1817,1.2435,1.2111,1.2246,1.1601,1.0764,1.1348,0.9109,0.5751,0.417,0.2302,0.062,0.0139,0.0656,0.1653,0.2953,0.2625,0.1931,0.2057,0.0,0.0,0.4085,0.5062,0.0,0.0,0.0,0.0,0.0,0.0,0.0,0.0,0.0,0.0,0.0,0.0,0.0,0.0,0.0,0.0,0.0,0.0,0.0,0.0,0.1436,0.055,-0.1164,-0.1962,-0.2721,-0.3578,-0.3717,-0.4241,-0.5091,-0.5986,-0.6837,-0.7723,-0.8317,-0.8635,-0.8824,-0.9006,-0.9498,-1.0337,-1.1238,-1.1912,-1.2472,-1.3327,-1.3867,-1.4138,-1.4308,-1.4668,-1.5076,-1.5315,-1.5706,-1.6093,0.0,0.0,0.6624,0.6674,0.7131,0.72,0.6302,0.6528,0.6491,0.0,0.5903,0.639,0.6987,0.7256,0.7031,0.6152,0.4921,0.4181,0.4095,0.3718,0.3475,0.3475,0.3539,0.3555,0.3508,0.3571,0.3612,0.3636,0.3757,0.3809,0.3824,0.4235,0.4428,0.4428,0.4279,0.4218,0.4199,0.3755,0.4461,0.6146,0.9192,1.014,0.9909,1.1619,1.2235,1.2109,1.1705,1.1747,1.2113,1.2496,1.0176,0.6986,0.6284,0.4296,0.1975,0.0731,0.1678,0.3155,0.3268,0.2827,0.2726,0.4392,0.3963,0.0,0.4632,0.4829,0.5232,0.0,0.0,0.0,0.0,0.0,0.0,0.0,0.0,0.0,0.0,0.0,0.0,0.0,0.0,0.0,0.0,0.0,0.3369,0.2763,0.2095,0.0713,-0.1561,-0.1784,-0.2326,-0.3468,-0.3695,-0.4223,-0.4977,-0.5872,-0.6702,-0.745,-0.7645,-0.8074,-0.8659,-0.8503,-0.9075,-1.0294,-1.1047,-1.1696,-1.2268,-1.2756,-1.3425,-1.4118,-1.4535,-1.4964,-1.5245,-1.499,-1.5088,-1.541,0.6599,0.6599,0.6737,0.7169,0.7738,0.8198,0.8421,0.8173,0.8211,0.8851,0.8672,0.8813,0.9792,0.8415,0.7506,0.7796,0.5979,0.4619,0.4143,0.3618,0.334,0.334,0.3357,0.3427,0.3573,0.3597,0.3682,0.384,0.3869,0.3877,0.3877,0.3917,0.3966,0.4015,0.3759,0.3717,0.3801,0.3488,0.452,0.6502,0.8118,0.8878,0.9361,1.1867,1.3022,1.3194,1.3096,1.3106,1.2939,1.1489,1.0933,1.0101,0.539,0.4622,0.511,0.3209,0.2347,0.2201,0.3067,0.3193,0.318,0.3546,0.2814,0.0,0.3403,0.4773,0.5688,0.0,0.0,0.0,0.0,0.0,0.0,0.0,0.0,0.0,0.0,0.0,0.0,0.0,0.0,0.0,0.0,0.0,0.3468,0.2768,0.1697,0.0447,-0.0984,-0.1518,-0.2174,-0.2998,-0.3652,-0.41,-0.4355,-0.5243,-0.5774,-0.5923,-0.7428,-0.8038,-0.7961,-0.9183,-0.9754,-0.9907,-1.1158,-1.1436,-1.103,-1.2435,-1.307,-1.3304,-1.4004,-1.4387,-1.4501,-1.508,-1.5342,-1.541,0.6599,0.6599,0.6862,0.7701,0.8324,0.8863,0.9403,0.9504,0.9579,0.9868,1.0157,1.0219,0.9931,0.9141,0.8314,0.7513,0.6189,0.5161,0.4582,0.4015,0.3587,0.3319,0.3306,0.3344,0.3452,0.3452,0.3557,0.3751,0.3751,0.3803,0.3906,0.3795,0.4378,0.5414,0.3473,0.358,0.5167,0.3936,0.4769,0.7056,0.8149,0.9386,1.0748,1.2552,1.369,1.4234,1.3923,1.3682,1.334,1.2348,1.1301,0.0,0.8225,0.7086,0.6347,0.5854,0.4798,0.3739,0.3472,0.3399,0.3387,0.3323,0.289,0.0,0.0,0.4966,0.5561,0.5265,0.5192,0.0,0.0,0.0,0.0,0.0,0.0,0.0,0.0,0.0,0.0,0.0,0.0,0.0,0.0,0.0,0.3288,0.2322,0.1697,0.067,-0.0805,-0.1474,-0.2137,-0.2887,-0.3596,-0.4043,-0.4194,-0.5081,-0.5534,-0.5686,-0.6577,-0.7141,-0.7435,-0.8322,-0.8914,-0.9298,-1.0492,-1.0843,-1.0681,-1.1483,-1.1787,-1.1965,-1.3545,-1.4213,-1.4332,-1.5108,-1.541,-1.541,0.6574,0.6599,0.6925,0.7939,0.8663,0.9289,0.9818,1.0282,1.0418,1.0106,1.1136,1.1425,1.0195,1.0548,1.0094,0.8211,0.7545,0.6767,0.5702,0.5072,0.4495,0.3965,0.3524,0.3526,0.3988,0.3575,0.3452,0.3636,0.3651,0.3728,0.3855,0.3751,0.4674,0.6349,0.4671,0.482,0.6259,0.5033,0.5807,0.7874,0.8488,1.0276,1.2643,1.3496,1.4457,1.5188,1.4478,1.4043,1.3691,1.3322,1.1524,0.9671,1.0745,0.9399,0.7432,0.7481,0.7016,0.6075,0.4281,0.3782,0.3733,0.3514,0.3487,0.373,0.0,0.0,0.0,0.0,0.0,0.0,0.0,0.0,0.0,0.0,0.0,0.0,0.0,0.0,0.0,0.0,0.0,0.0,0.0,0.0,0.3138,0.2076,0.1794,0.1031,-0.0452,-0.1345,-0.21,-0.273,-0.3559,-0.4121,-0.4277,-0.4953,-0.5437,-0.5657,-0.5731,-0.616,-0.6887,-0.7395,-0.8056,-0.8857,-0.9794,-1.0341,-1.0624,-1.0624,-1.0624,-1.0807,-1.3122,-1.3974,-1.4094,-1.505,-1.541,-1.541,0.6499,0.6599,0.6799,0.7393,0.8386,0.9289,0.9818,0.9956,1.0144,1.0543,1.2008,1.3157,1.3493,1.4009,1.4047,1.3304,1.2705,1.1094,0.8123,0.7363,0.6782,0.6248,0.4344,0.4303,0.6445,0.4563,0.3642,0.3779,0.3833,0.3818,0.3728,0.3713,0.3799,0.4234,0.9539,0.9203,0.4833,0.72,0.8636,0.9277,0.8517,1.0467,0.0,1.4721,1.543,1.5861,1.5047,1.4678,1.44,0.0,1.186,1.1145,0.8606,0.9182,1.0031,0.641,0.688,0.7999,0.5504,0.4833,0.4694,0.4143,0.4145,0.414,0.3628,0.0,0.2969,0.1051,0.0,0.0,0.0,0.0,0.0,0.0,0.0,0.0,0.0,0.0,0.0,0.0,0.0,0.0,0.0,0.0,0.0,0.282,0.1825,0.1137,0.0896,-0.082,-0.1943,-0.2246,-0.3409,-0.4219,-0.4636,-0.4633,-0.472,-0.5012,-0.5564,-0.5927,-0.6177,-0.7862,-0.8705,-0.8868,-1.0069,-1.0528,-1.0624,-1.0624,-1.0624,-1.0744,-1.2458,-1.313,-1.3312,-1.4815,-1.541,-1.541,0.6026,0.6386,0.6874,0.7763,0.8324,0.9027,1.0194,1.1182,1.1883,1.2121,1.3069,1.3672,1.3584,1.3496,1.3295,1.2854,1.3066,1.1856,0.0,0.8705,0.7909,0.5765,0.4444,0.4237,0.5254,0.4058,0.3509,0.3681,0.3705,0.3758,0.3796,0.3293,0.3934,0.5714,1.0236,1.034,0.7173,0.8774,0.9551,0.9737,0.0,1.179,0.0,1.4543,1.5044,1.5635,1.5273,1.499,1.4704,0.0,1.2463,0.0,1.0931,1.0246,0.9188,0.77,0.7662,0.7637,0.5602,0.5513,0.5719,0.4655,0.5018,0.505,0.2869,0.2852,0.2865,0.1303,0.0,0.0,0.0,0.0,0.0,0.0,0.2708,0.0,0.0,0.0,0.0,0.0,0.0,0.0,0.0,0.0,0.0,0.0,0.0,0.1604,0.0525,-0.0656,-0.1569,-0.2161,-0.3016,-0.3866,-0.4687,-0.4626,-0.4745,-0.504,-0.5279,-0.5759,-0.643,-0.7775,-0.8581,-0.9166,-1.0179,-1.0624,-1.0624,-1.0624,-1.0624,-1.0681,-1.1841,-1.2573,-1.313,-1.4273,-1.4991,-1.541,0.5501,0.6014,0.6687,0.7671,0.7951,0.854,1.0044,1.1282,1.2234,1.2685,1.3119,1.3493,1.3659,1.3643,1.3588,1.3495,1.4393,1.3631,0.0,1.035,0.9561,0.7577,0.5475,0.4859,0.5931,0.4389,0.3572,0.3579,0.3612,0.3705,0.3825,0.3164,0.3983,0.6152,0.932,0.9934,0.8686,0.9806,1.0539,1.1012,1.1317,1.2837,1.4877,1.4944,1.5186,1.543,1.5547,1.5322,1.4883,1.4513,1.2956,0.0,1.2348,1.1079,0.9204,0.913,0.8923,0.8275,0.6254,0.6357,0.6661,0.4959,0.509,0.5012,0.2669,0.321,0.3814,0.2423,0.0,0.0,0.0,0.0,0.0,0.0,0.0,0.3614,0.0,0.0,0.0,0.0,0.0,0.0,0.0,0.0,0.0,0.0,0.0,0.0,0.0622,-0.0381,-0.13,-0.213,-0.2825,-0.3635,-0.4687,-0.4731,-0.4901,-0.5192,-0.5148,-0.5524,-0.6396,-0.7507,-0.8355,-0.9005,-1.0104,-1.0624,-1.0624,-1.0624,-1.0624,-1.0681,-1.1226,-1.1958,-1.2818,-1.3846,-1.4569,-1.5108,0.5023,0.545,0.6001,0.6549,0.7081,0.7826,0.8987,0.9201,0.9818,1.1425,1.165,1.2499,1.4626,1.5993,1.6971,1.7486,1.8703,1.7969,1.4428,0.0,1.2424,1.3735,0.814,0.6774,1.0593,0.6461,0.4022,0.35,0.3634,0.3705,0.3705,0.3546,0.3595,0.3948,0.7097,0.818,0.7808,1.0232,1.2284,1.3814,1.2348,1.3113,1.5257,0.0,1.6504,1.5469,1.5889,0.0,0.0,1.371,1.3198,0.0,0.0,0.0,0.0,0.0,0.0,0.0,0.0,0.0,0.0,0.4994,0.0,0.0,0.0,0.0,0.5873,0.3701,0.2398,0.0,0.0,0.0,0.0,0.0,0.0,0.0,0.0,0.0,0.0,0.0,0.0,0.0,0.0,0.0,0.0,0.0,0.0,0.0,0.1864,0.0143,-0.1237,-0.1998,-0.2854,-0.3718,-0.4687,-0.484,-0.506,-0.5418,-0.5203,-0.5209,-0.5491,-0.7246,-0.8027,-0.8156,-0.9843,-1.0624,-1.0624,-1.0624,-1.0624,-1.0624,-1.0624,-1.1108,-1.2012,-1.3597,-1.4213,-1.4332,0.5463,0.5677,0.5963,0.6499,0.6749,0.7375,0.8874,0.9391,1.0414,1.2639,1.291,0.0,0.0,1.6306,1.685,0.0,0.0,1.7866,1.484,1.3628,0.0,1.2672,0.8075,0.6748,0.9329,0.6056,0.4211,0.4035,0.3762,0.3636,0.3636,0.3589,0.3571,0.3714,0.6958,0.838,0.8486,1.0994,1.2264,1.259,0.0,1.3155,1.4501,0.0,0.0,1.605,1.6088,1.6027,0.0,1.4946,1.4029,1.319,1.3282,1.2209,1.095,1.1112,1.0822,0.0,0.0,0.0,0.9256,0.5356,0.0,0.0,0.0,0.0,0.0,0.0,0.0,0.0,0.0,0.3082,0.0,0.0,0.0,0.0,0.0,0.0,0.0,0.0,0.0,0.0,0.0,0.0,0.0,0.0,0.0,0.0,0.0,0.0247,-0.0849,-0.2094,-0.2568,-0.3455,-0.4836,-0.4986,-0.5162,-0.5428,-0.5308,-0.5632,-0.6268,-0.685,-0.7437,-0.8027,-0.8608,-0.9198,-0.9722,-0.9722,-1.011,-1.0624,-1.0624,-1.0744,-1.117,-1.2818,-1.3433,-1.3425,0.5762,0.5951,0.6202,0.6536,0.6762,0.7313,0.8612,0.9592,0.0,0.0,1.3472,0.0,1.623,0.0,1.6637,0.0,1.8207,1.7509,1.4988,1.441,0.0,1.3089,0.9875,0.8951,1.0764,0.7531,0.5643,0.5258,0.4307,0.3767,0.3605,0.3658,0.3648,0.3712,0.6195,0.7977,0.9219,1.1089,1.2648,1.3863,0.0,1.4638,0.0,0.0,1.6245,1.5608,0.0,1.6436,1.626,1.5977,1.5153,1.4314,1.4841,1.3621,1.207,1.2543,1.2142,1.1389,1.0802,1.1155,0.0,0.7432,0.6517,0.0,0.1493,0.0,0.7159,0.0,0.0,0.0,0.0,0.0,0.0,0.0,0.0,0.0,0.0,0.2208,0.0,0.0,0.0,0.0,0.0,0.0,0.0,0.0,0.0,0.0,0.0,0.0,-0.0662,-0.2078,-0.2344,-0.3266,-0.4836,-0.5033,-0.5209,-0.5428,-0.5428,-0.5686,-0.6268,-0.6588,-0.6981,-0.7567,-0.7897,-0.8291,-0.8877,-0.9139,-0.9658,-1.0174,-1.0498,-1.0624,-1.0744,-1.2089,-1.2757,-1.3009,0.5938,0.6277,0.6637,0.6637,0.7031,0.0,0.0,0.0,1.1186,0.0,1.3363,1.4372,1.6287,1.6244,1.6504,1.7534,1.784,1.7136,1.5142,1.5108,0.0,0.0,1.3379,1.311,1.4761,1.0753,0.8121,0.7074,0.522,0.407,0.363,0.3725,0.3771,0.382,0.4841,0.6957,0.985,1.0686,1.352,1.7477,1.7624,1.7185,1.6554,1.7093,1.5946,1.4252,1.6579,1.7119,1.6758,1.6738,1.6445,1.6025,1.5605,1.5176,1.4736,1.4316,1.4463,1.4272,1.1901,1.1856,1.2163,1.0875,0.0,0.0,0.0,0.0,0.7642,0.0,0.0,0.0,0.0,0.0,0.0,0.0,0.0,0.0,0.0,0.0,0.0,0.0,0.0,0.0,0.0,0.0,0.0,0.0,0.0,0.0,0.0,0.0,-0.0607,-0.1974,-0.2325,-0.3182,-0.4701,-0.4986,-0.5209,-0.5428,-0.5428,-0.5428,-0.5428,-0.6268,-0.6654,-0.6654,-0.7502,-0.7897,-0.8027,-0.8812,-0.9204,-0.9338,-1.0174,-1.0561,-1.0681,-1.1469,-1.2266,-1.2948,0.6411,0.6837,0.7194,0.7194,0.6969,0.7413,0.0,0.0,0.0,0.0,1.4428,1.5286,1.7362,1.7526,1.7619,1.7846,1.7939,0.0,0.0,0.0,0.0,1.7879,1.4301,1.3196,1.5063,1.0929,0.8574,0.8197,0.558,0.419,0.3959,0.3603,0.3432,0.3476,0.4585,0.6775,0.9738,1.0935,1.3639,1.7042,1.6961,1.6251,0.0,0.0,1.642,1.5104,1.6806,1.7314,1.7168,1.6836,1.665,1.6543,1.6426,1.5869,1.5225,1.5117,1.4707,1.4228,1.3939,1.3763,1.3302,1.1816,1.1985,1.1767,0.0,0.0,0.0,0.0,0.0,0.0,0.0,0.0,0.0,0.0,0.0,0.0,0.0,0.0,0.0,0.0,0.0,0.0,0.0,0.0,0.0,0.0,0.0,0.0,0.0,0.0,0.0,-0.2118,-0.238,-0.3233,-0.486,-0.504,-0.5209,-0.5428,-0.5428,-0.5428,-0.5428,-0.562,-0.5752,-0.5752,-0.5947,-0.6465,-0.7046,-0.7307,-0.7767,-0.842,-0.9268,-1.0047,-1.0624,-1.08,-1.1413,-1.2058,0.6649,0.725,0.7864,0.8102,0.0,0.0,1.0546,1.0211,0.0,1.4283,1.5171,0.0,1.7243,1.8066,1.8564,1.8564,1.8564,0.0,1.7814,0.0,0.0,1.7493,1.5766,1.5279,1.6426,1.3263,0.0,0.986,0.7226,0.5318,0.4169,0.3668,0.3424,0.3438,0.455,0.6355,0.876,1.178,1.4094,1.5796,1.6824,0.0,0.0,1.7171,1.7093,1.6513,1.737,1.7656,1.7617,1.7373,1.7168,1.7021,1.7021,1.6543,1.5996,1.5996,1.5508,1.499,1.5049,1.4883,1.4414,1.3362,1.3932,1.4047,1.1608,1.1633,1.1871,0.0,0.0,0.0,0.0,0.0,0.0,0.0,0.0,0.0,0.0,0.0,0.0,0.0,0.0,0.0,0.0,0.0,0.0,0.0,0.0,0.0,0.0,0.0,0.0,-0.0266,-0.1105,-0.2466,-0.4332,-0.4213,-0.4531,-0.526,-0.5328,-0.5428,-0.5428,-0.5428,-0.5428,-0.5428,-0.5428,-0.5686,-0.6141,-0.6527,-0.6981,-0.7502,-0.842,-0.9068,-0.9563,-0.9563,-1.0335,-1.1411,0.6699,0.7646,0.8612,0.8949,1.0501,0.0,0.0,1.1686,0.0,1.4573,0.0,1.6648,1.6931,1.837,1.9287,1.9287,0.0,1.8626,1.7029,1.8016,1.7996,1.6407,1.7481,1.8066,1.8008,1.6138,1.3973,0.0,0.9144,0.6707,0.4268,0.3783,0.3531,0.3519,0.4518,0.5986,0.8028,1.2798,1.4707,1.4752,1.7103,1.7835,1.7616,1.7615,1.778,1.8008,1.8008,1.8008,1.8008,1.8008,1.7764,1.7461,1.7461,1.7168,1.6816,1.6816,1.6504,1.6064,1.5693,1.5537,1.54,1.4971,1.4863,1.4419,1.2619,1.1915,1.1677,1.1673,1.0246,0.9895,0.0,0.0,0.0,0.0,0.0,0.0,0.0,0.0,0.0,0.0,0.0,0.0,0.0,0.0,0.0,0.0,0.0,0.0,0.0,0.0,0.0,0.1772,0.0377,0.0,-0.3303,0.0,-0.3675,-0.4882,-0.5247,-0.5428,-0.5428,-0.5428,-0.5428,-0.5428,-0.5428,-0.5428,-0.5425,-0.6203,-0.6588,-0.6785,-0.7502,-0.7966,-0.8233,-0.8263,-0.931,-1.0728,0.6624,0.8236,0.9366,0.8575,0.9974,1.1863,1.3828,1.4395,1.5003,1.6073,1.7255,1.8178,1.8724,1.9134,1.9287,1.9287,1.9287,0.0,0.0,0.0,0.0,1.9214,1.8764,1.8359,1.8018,1.6138,1.3973,0.0,0.9042,0.6574,0.4127,0.3595,0.3349,0.3357,0.3998,0.6566,1.0563,1.289,0.0,1.6787,1.7423,1.7646,1.7626,1.782,1.7939,1.8008,1.8008,1.8008,1.8008,1.8008,1.7959,1.79,1.79,1.7607,1.7275,1.7275,1.6963,1.6602,1.6523,1.623,1.585,1.541,1.5303,1.5107,1.4439,1.4488,1.4557,1.4241,1.3854,1.3313,1.2297,0.0,0.0,0.0,0.0,0.0,0.0,0.0,0.0,0.0,0.0,0.0,0.0,0.0,0.0,0.0,0.0,0.0,0.0,0.0,0.0,0.0,-0.083,0.0,0.0,0.0,0.0,-0.3536,-0.4784,-0.5428,-0.5428,-0.5428,-0.5428,-0.5428,-0.5428,-0.5428,-0.5428,-0.5557,-0.6075,-0.6719,-0.685,-0.7437,-0.8253,-0.8433,-0.8821,-0.919,0.8665,0.9366,1.0108,1.0805,1.202,0.0,0.0,1.6797,0.0,1.6981,1.7643,1.8228,1.8546,1.9423,1.9951,1.9951,1.9951,2.0167,2.0595,1.995,1.9732,1.9867,1.9081,1.8545,1.834,1.7238,1.4959,1.15,0.0,0.7578,0.4234,0.36,0.3306,0.3377,0.5212,0.7304,0.9716,0.0,0.0,1.5972,1.7265,1.781,1.7805,1.7976,1.8008,1.8008,1.8008,1.8008,1.8008,1.8008,1.8008,1.8008,1.8008,1.7871,1.7705,1.7705,1.7402,1.707,1.707,1.6748,1.6309,1.5859,1.5752,1.5576,1.4932,1.4941,1.5029,1.4824,1.4785,1.4136,1.1911,0.9413,0.0,0.0,0.0,0.0,0.0,0.0,0.0,0.0,0.0,0.0,0.0,0.0,0.0,0.0,0.0,0.0,0.0,0.0,0.0,0.0,0.0,0.0,0.0,0.0,0.0,-0.2856,-0.408,-0.4686,-0.4686,-0.516,-0.5428,-0.5428,-0.5428,-0.5428,-0.5428,-0.5428,-0.562,-0.6017,-0.6108,-0.6447,-0.6966,-0.7153,-0.7335,-0.7639,1.0824,1.0755,1.1234,1.3238,1.4453,0.0,1.7094,1.8606,1.9177,1.7975,1.8151,1.8392,1.8492,1.9762,2.0566,2.0566,2.0566,2.0566,2.0566,2.0244,2.001,1.9922,1.918,1.873,1.8562,1.8223,1.6078,0.0,0.0,0.8733,0.4934,0.381,0.3577,0.4185,0.0,0.0,0.0,0.0,1.5019,1.5402,1.7243,1.8008,1.8008,1.8008,1.8008,1.8008,1.8008,1.8008,1.8008,1.8008,1.8008,1.8008,1.8008,1.8008,1.8008,1.8008,1.7773,1.7519,1.7519,1.7207,1.6787,1.6436,1.6269,1.6006,1.5234,1.5059,1.5029,1.4941,1.499,1.4382,1.202,1.0654,0.0,0.0,0.0,0.0,0.0,0.0,0.0,0.0,0.0,0.0,0.0,0.0,0.0,0.0,0.0,0.0,0.0,0.0,0.0,0.0,0.0,0.0402,-0.0514,0.0,-0.1146,0.0,-0.3356,-0.4015,-0.4015,-0.4957,-0.5428,-0.5428,-0.5428,-0.5428,-0.5428,-0.5428,-0.5449,-0.542,-0.5542,-0.5694,-0.5864,-0.5986,-0.6129,-0.649,1.1572,1.2351,1.3191,1.4125,0.0,0.0,1.7236,1.9122,2.0244,1.9762,1.9723,1.9899,2.0291,2.0526,2.0566,2.0566,2.0566,2.0566,2.0566,2.0527,2.0322,1.9932,1.9473,1.9043,1.8643,1.8223,1.6703,0.0,0.0,0.9342,0.6715,0.4393,0.4504,0.0,0.0,0.0,0.0,1.3789,1.53,1.7666,1.791,1.8008,1.8008,1.8008,1.8008,1.8008,1.8008,1.8008,1.8008,1.8008,1.8008,1.8008,1.8008,1.8008,1.8008,1.8008,1.7978,1.7949,1.7949,1.7646,1.7314,1.7266,1.6963,1.6543,1.6055,1.5998,1.589,1.543,1.5664,1.5351,1.3204,1.3343,1.2491,0.0,0.0,0.0,0.0,0.0,0.9813,0.8923,0.0,0.0,0.0,0.0,0.0,0.0,0.0,0.0,0.0,0.0,0.0,0.2149,0.0,0.1002,0.1449,-0.0315,0.0,-0.0693,-0.2937,-0.4015,-0.4015,-0.4957,-0.5428,-0.5428,-0.5428,-0.5428,-0.5428,-0.5428,-0.5443,-0.5569,-0.5586,-0.5759,-0.601,-0.6023,-0.6129,-0.6338,0.0,0.0,0.0,0.0,0.0,0.0,0.0,2.022,2.0693,2.1055,2.1094,2.1162,2.1338,2.1123,2.0967,2.0967,2.0723,2.0566,2.0566,2.0566,2.0488,2.0312,1.9893,1.9463,1.9043,1.8603,1.7056,0.0,0.0,0.0,0.0,0.5828,0.0,0.0,0.0,1.2163,1.4034,1.5635,1.6831,1.7656,1.791,1.8008,1.8008,1.8008,1.8008,1.8008,1.8008,1.8008,1.8008,1.8008,1.8008,1.8008,1.8008,1.8008,1.8008,1.8008,1.8008,1.8008,1.8008,1.7881,1.7695,1.7451,1.7256,1.7002,1.6562,1.626,1.6076,1.584,1.5998,1.5827,1.5034,1.3923,1.2671,0.0,0.0,0.0,0.0,0.0,0.0,1.0514,0.0,0.0,0.0,0.0,0.0,0.0,0.0,0.0,0.0,0.0,0.0,0.2999,0.0,0.1949,0.1987,0.0842,0.0372,0.0537,-0.142,-0.2409,-0.241,-0.3347,-0.3749,-0.3816,-0.4954,-0.509,-0.4625,-0.5254,-0.5535,-0.5606,-0.5786,-0.5925,-0.604,-0.6135,-0.6207,-0.6338,1.7508,0.0,1.6859,0.0,1.87,1.8773,2.1016,2.1269,2.1357,2.1992,2.2178,2.2158,2.1914,2.1611,2.1426,2.1426,2.1025,2.0762,2.0762,2.0635,2.0566,2.0566,2.0146,0.0,1.9297,1.8857,1.7529,1.5399,1.3471,0.0,0.0,0.8425,0.0,0.0,1.3402,1.4449,1.5084,1.7037,1.7725,1.7598,1.7891,1.8008,1.8008,1.8008,1.8008,1.8008,1.8008,1.8008,1.8008,1.8008,1.8008,1.8008,1.8008,1.8008,1.8008,1.8008,1.8008,1.8008,1.8008,1.8008,1.7939,1.7637,1.7568,1.7451,1.7021,1.6777,1.6641,1.6641,1.6533,1.6495,1.6487,1.4784,1.3363,1.3135,0.0,0.0,0.0,1.1514,0.0,0.0,1.0776,0.9626,0.6758,0.0,0.0,0.0,0.0,0.0,0.0,0.0,0.0,0.0,0.0,0.0,0.0,0.1996,0.1551,0.1303,-0.0199,-0.1072,-0.134,-0.2277,-0.2678,-0.2746,-0.4051,-0.4201,-0.3666,-0.4749,-0.5252,-0.5306,-0.5798,-0.6057,-0.6112,-0.622,-0.6338,-0.6338,1.8957,1.8837,1.9123,2.1471,2.1728,2.1659,2.1902,2.2227,2.249,2.25,2.2861,2.2812,2.1982,2.1875,2.1875,2.1875,2.1475,2.123,2.123,2.081,2.0566,0.0,0.0,1.9717,1.9297,1.8857,1.8418,1.7969,0.0,0.0,1.482,1.2378,1.2348,1.4241,1.3846,1.529,1.793,1.7549,1.7627,1.8008,1.8008,1.8008,1.8008,1.8008,1.8008,1.8008,1.8008,1.8008,1.8008,1.8008,1.8008,1.8008,1.8008,1.8008,1.8008,1.8008,1.8008,1.8008,1.8008,1.8008,1.8008,1.8008,1.8008,1.7891,1.7471,1.7695,1.7988,1.7988,1.7656,1.7373,1.7383,1.6647,1.5224,1.2717,0.0,0.0,0.0,0.0,0.0,0.9024,0.8906,0.8729,0.7968,0.0,0.0,0.0,0.0,0.0,0.0,0.0,0.0,0.4367,0.3655,0.0,0.3273,0.2903,0.2212,0.1272,0.0401,-0.0468,-0.134,-0.2277,-0.2678,-0.2681,-0.2756,-0.2719,-0.2795,-0.3804,-0.4342,-0.4587,-0.5573,-0.6125,-0.6257,-0.6261,-0.6338,-0.6338,2.0995,2.0894,2.1041,2.1771,2.1895,2.1977,2.2227,2.2432,2.2617,2.29,2.3057,2.3037,2.2773,2.248,2.2314,0.0,2.1924,2.1553,0.0,2.1103,2.0889,2.0576,2.0439,2.0156,1.9727,1.9297,1.8867,1.8437,0.0,0.0,0.0,1.4323,1.4994,1.6841,1.6703,1.7109,1.7998,1.7871,1.7891,1.8008,1.8008,1.8008,1.8008,1.8008,1.8008,1.8008,1.8008,1.8008,1.8008,1.8008,1.8008,1.8008,1.8008,1.8008,1.8008,1.8008,1.8008,1.8008,1.8008,1.8008,1.8008,1.8008,1.8008,1.8047,1.8203,1.834,1.8359,1.8066,1.79,1.7812,1.7812,1.7088,1.599,1.4516,1.4363,0.0,0.0,0.0,1.2663,1.2121,1.1675,1.1142,0.0,1.0664,0.0,0.0,0.0,0.0,0.0,0.0,0.0,0.0,0.4705,0.0,0.4342,0.3853,0.3449,0.3145,0.2272,0.1338,0.0402,-0.1093,-0.1449,-0.09,-0.2199,-0.2366,-0.1797,-0.2876,-0.3369,-0.3473,-0.3836,-0.4033,-0.4139,-0.4139,-0.4139,-0.4139,2.2353,2.2353,2.2353,2.2353,2.2353,2.2441,2.2705,2.2744,2.2842,2.3105,2.3135,2.3135,2.3135,2.291,0.0,2.2744,2.2363,2.2002,2.1738,2.1416,2.1113,2.083,2.0654,2.0361,1.9922,0.0,0.0,1.8877,1.7563,1.6891,1.6733,1.6733,1.7224,1.8008,1.8008,1.8008,1.8008,1.8008,1.8008,1.8008,1.8008,1.8008,1.8008,1.8008,1.8008,1.8008,1.8008,1.8008,1.8008,1.8008,1.8008,1.8008,1.8008,1.8008,1.8008,1.8008,1.8008,1.8008,1.8008,1.8008,1.8008,1.8008,1.8008,1.8164,1.875,1.8877,1.8848,1.875,1.8467,1.8242,1.8242,1.7605,1.6715,1.5376,1.4965,1.4332,1.3051,0.0,1.2643,0.0,0.0,0.0,0.0,1.0745,0.0,0.0,0.0,0.0,0.0,0.0,0.0,0.487,0.5185,0.0,0.4904,0.4643,0.435,0.4015,0.3179,0.2449,0.1839,0.084,0.0426,0.057,-0.0583,-0.0958,-0.0888,-0.197,-0.245,-0.2452,-0.2952,-0.3124,-0.3124,-0.3124,-0.3124,-0.3124,2.3223,2.3223,0.0,0.0,2.3184,0.0,2.3144,2.3135,2.3135,2.3135,2.3135,2.3135,2.3135,2.3135,2.3135,2.3135,0.0,0.0,0.0,2.1768,2.1299,2.123,2.083,2.041,1.9971,1.9932,1.9707,1.9287,1.9678,1.9668,1.9287,1.9287,1.8867,1.8096,1.8096,1.8076,1.8057,1.8057,1.8037,1.8008,1.8008,1.8008,1.8008,1.8008,1.8008,1.8008,1.8008,1.8008,1.8008,1.8008,1.8008,1.8008,1.8008,1.8008,1.8008,1.8008,1.8008,1.8008,1.8008,1.8008,1.8008,1.8008,1.8057,1.832,1.9141,1.9355,1.9482,1.9844,1.9258,1.8672,1.8643,1.8291,1.7432,1.5587,1.5238,1.4607,1.2842,0.0,1.1996,0.0,0.0,0.0,0.0,0.975,0.953,0.0,0.0,0.0,0.0,0.0,0.4865,0.5135,0.5291,0.5291,0.5148,0.5287,0.496,0.4095,0.3382,0.301,0.3011,0.3022,0.2477,0.1606,0.1499,0.091,-0.0076,-0.109,-0.1493,-0.1571,-0.2512,-0.2904,-0.2904,-0.2904,-0.2904,-0.2904,0.0,0.0,2.4014,2.3691,2.3633,2.3525,2.3193,2.3135,2.3135,2.3135,2.3135,2.3135,2.3135,2.3135,2.3135,2.3135,2.3047,2.2852,2.2539,2.2324,2.1924,2.126,2.1133,2.0869,2.042,2.0088,1.9707,1.9287,1.9385,1.9385,1.9287,1.9287,1.918,1.8984,1.8984,1.8799,1.8486,1.8486,1.8301,1.8008,1.8008,1.8008,1.8008,1.8008,1.8008,1.8008,1.8008,1.8008,1.8008,1.8008,1.8008,1.8008,1.8008,1.8008,1.8008,1.8008,1.8008,1.8008,1.8008,1.8008,1.8008,1.8008,1.8506,1.9121,1.9648,2.0029,2.0195,1.9961,1.9492,1.9033,1.8701,1.8291,1.7647,1.6428,1.5782,1.4943,1.3836,1.3143,0.0,0.0,1.2211,1.2041,1.1546,1.1496,1.1387,0.0,0.0,0.0,0.0,0.6031,0.5247,0.546,0.5403,0.5411,0.5308,0.5345,0.5349,0.5189,0.4472,0.4094,0.4097,0.2586,0.1797,0.1574,0.0769,0.0234,0.0,-0.024,-0.0403,-0.0404,-0.0658,-0.0744,-0.0744,-0.0744,-0.0744,-0.0744,2.4756,2.4717,2.458,2.415,2.4072,2.3935,2.3506,2.3437,2.3359,2.3164,2.3135,2.3135,2.3135,2.3135,2.3135,2.3135,2.3135,2.3047,2.2812,2.2617,2.2305,2.1836,2.1445,2.1123,2.0879,2.0439,2.0098,1.9873,1.9873,1.9766,1.957,1.957,1.9473,1.9287,1.9287,1.916,1.8926,1.8721,1.8506,1.8281,1.8086,1.8008,1.8008,1.8008,1.8008,1.8008,1.8008,1.8008,1.8008,1.8008,1.8008,1.8008,1.8008,1.8008,1.8008,1.8008,1.8008,1.8008,1.8008,1.8008,1.8057,1.8252,1.8799,1.9394,1.9814,2.0254,2.0498,2.0264,1.9873,1.9502,1.9268,1.8877,1.8235,1.7095,1.6438,1.5603,1.4167,1.3535,0.0,1.2915,1.2772,1.2618,1.2436,1.2258,1.1963,1.1357,0.0,0.0,0.7982,0.6869,0.6102,0.5583,0.5572,0.5532,0.5467,0.5532,0.5603,0.5688,0.5321,0.4941,0.4502,0.3485,0.2532,0.1538,0.1014,0.0474,0.0,0.0,0.0,0.0,0.0,0.0,0.0,0.0,0.0,0.0,2.5244,2.5166,2.5029,2.459,2.4521,2.4375,2.3945,2.3828,2.3662,2.3291,2.3184,2.3135,2.3135,2.3135,2.3135,2.3135,2.3135,2.3135,2.3135,2.2803,2.2578,2.251,2.1816,2.1367,2.123,2.0791,2.0566,2.0566,2.0566,2.0381,2.0019,2.0019,1.9824,1.9482,1.9482,1.9443,1.9355,1.8984,1.875,1.8533,1.8252,1.8066,1.8008,1.8008,1.8008,1.8008,1.8008,1.8008,1.8008,1.8008,1.8008,1.8008,1.8008,1.8008,1.8008,1.8008,1.8008,1.8008,1.8008,1.8057,1.8203,1.8623,1.9062,1.9492,1.9912,2.0303,2.0566,2.0566,2.0215,1.9912,1.9912,1.957,1.8788,1.7125,1.6902,1.6179,1.4057,0.0,1.3534,1.3103,1.2787,1.2698,1.2864,1.2585,1.2052,1.1214,1.1057,0.0,0.0,0.8054,0.7277,0.5976,0.583,0.5742,0.5623,0.5766,0.5837,0.5837,0.5989,0.5607,0.4774,0.4565,0.3524,0.1811,0.1497,0.0879,0.0,0.0,0.0,0.0,0.0,0.0,0.0,0.0,0.0,0.0,2.5644,2.5635,2.5488,2.5049,2.4971,2.4824,2.4385,2.4014,2.3769,2.3691,2.3369,2.3135,2.3135,2.3135,2.3135,2.3135,2.3135,2.3135,2.3135,2.3076,2.2881,2.2529,2.2383,2.1973,2.125,2.0791,2.0566,2.0566,2.0566,2.0527,2.0469,2.0469,2.043,2.0371,2.0371,2.0166,1.9814,1.9746,1.9297,1.8562,1.8494,1.833,1.8008,1.8008,1.8008,1.8008,1.8008,1.8008,1.8008,1.8008,1.8008,1.8008,1.8008,1.8008,1.8008,1.8008,1.8008,1.8008,1.8008,1.8271,1.8643,1.9082,1.9502,1.9932,2.0361,2.0518,2.0566,2.0566,2.0215,1.9912,1.9912,1.957,1.8428,1.5751,1.6294,1.6001,1.2913,0.0,1.3796,1.3384,1.3191,1.3081,1.312,1.31,1.2988,1.2824,1.2018,1.1459,1.1141,1.0105,0.8937,0.7651,0.643,0.5789,0.5769,0.5918,0.5993,0.5996,0.6152,0.6146,0.5989,0.4133,0.3158,0.2739,0.105,0.0164,0.0,0.0,0.0,0.0,0.0,0.0,0.0,0.0,0.0,0.0,2.5742,2.5742,2.5674,2.5469,2.543,2.5283,2.4834,2.46,2.4316,2.3848,2.3613,2.3398,2.3164,2.3135,2.3135,2.3135,2.3135,2.3135,2.3135,2.3135,2.3057,2.2861,2.2637,2.2109,2.125,2.0791,2.0566,2.0566,2.0566,2.0566,2.0566,2.0566,2.0566,2.0566,2.0566,2.0449,2.0254,2.0019,1.9687,1.9287,1.8818,1.8525,1.832,1.8096,1.8008,1.8008,1.8008,1.8008,1.8008,1.8008,1.8008,1.8008,1.8008,1.8008,1.8008,1.8008,1.8008,1.8057,1.8281,1.8486,1.8789,1.9463,1.9775,2.0029,2.0469,2.0566,2.0566,2.0566,2.041,2.0264,2.0264,2.0107,1.9354,1.7435,1.7864,0.0,0.0,1.4542,1.4681,1.364,1.3345,1.3273,1.3427,1.33,1.3213,1.3213,1.2803,1.2234,1.1742,1.1141,1.039,0.9257,0.7017,0.5966,0.6047,0.6118,0.6156,0.6156,0.6227,0.6022,0.5395,0.4375,0.3718,0.3238,0.2269,0.1903,0.1967,0.19,0.1921,0.1942,0.1961,0.1522,0.0986,0.0986,0.0539,0.0,2.5742,2.5742,2.5742,2.5742,2.5742,2.5625,2.5273,2.5137,2.4834,2.417,2.3916,2.3662,2.333,2.3203,2.3135,2.3135,2.3135,2.3135,2.3135,2.3135,2.3135,2.3135,2.2734,2.2158,2.1396,2.0947,2.0674,2.0566,2.0566,2.0566,2.0566,2.0566,2.0566,2.0566,2.0566,2.0566,2.0547,2.0215,2.001,1.9853,1.9092,1.873,1.8594,1.8164,1.8008,1.8008,1.8008,1.8008,1.8008,1.8008,1.8008,1.8008,1.8008,1.8008,1.8008,1.8008,1.8076,1.8223,1.8555,1.8711,1.8975,1.9727,1.999,2.0156,2.0488,2.0566,2.0566,2.0566,2.0566,2.0566,2.0566,2.0566,2.0118,1.8578,0.0,0.0,0.0,1.5601,1.5495,1.4265,1.3709,1.35,1.3728,1.3547,1.3414,1.3414,1.3414,1.3085,1.2338,1.2251,1.1647,1.0279,0.7819,0.6478,0.6338,0.6338,0.6338,0.6338,0.6338,0.5879,0.5121,0.4883,0.4402,0.3782,0.3537,0.3535,0.3577,0.3577,0.361,0.357,0.357,0.3037,0.2236,0.2236,0.1612,0.0807,2.5742,2.5742,2.5742,2.5742,2.5742,2.5723,2.5693,2.5332,2.5049,2.498,2.4287,2.3779,2.374,2.3379,2.3135,2.3135,2.3135,2.3135,2.3135,2.3135,2.3135,2.3135,2.2734,2.2305,2.1846,2.1406,2.0986,2.0566,2.0566,2.0566,2.0566,2.0566,2.0566,2.0566,2.0566,2.0566,2.0566,2.0527,2.0283,1.9873,1.9424,1.8994,1.8594,1.8164,1.8008,1.8008,1.8008,1.8008,1.8008,1.8008,1.8008,1.8008,1.8008,1.8008,1.8008,1.8008,1.8281,1.8523,1.8562,1.8936,1.9346,1.9805,2.0215,2.0527,2.0557,2.0566,2.0566,2.0566,2.0566,2.0566,2.0566,2.0566,1.9683,1.6931,0.0,0.0,1.5079,1.5573,1.6088,1.5621,1.4685,1.4035,1.4055,1.4035,1.4021,1.4021,1.4021,1.4021,1.3937,1.3931,1.2866,1.0424,0.885,0.7477,0.6338,0.6338,0.6338,0.6338,0.6338,0.6329,0.6374,0.5328,0.4879,0.4903,0.3963,0.3578,0.3561,0.3561,0.3566,0.357,0.357,0.357,0.3481,0.3481,0.3392,0.3303,2.5742,2.5742,2.5742,2.5742,2.5742,2.5742,2.5742,2.5596,2.5381,2.5107,2.4785,2.4385,2.3848,2.3643,2.3437,2.3164,2.3135,2.3135,2.3135,2.3135,2.3135,2.3135,2.2734,2.2441,2.2275,2.1592,2.1152,2.0977,2.0703,2.0566,2.0566,2.0566,2.0566,2.0566,2.0566,2.0566,2.0566,2.0566,2.0469,2.0283,1.9853,1.9424,1.8994,1.8564,1.8242,1.8008,1.8008,1.8008,1.8008,1.8008,1.8008,1.8008,1.8008,1.8008,1.8008,1.8008,1.8125,1.8369,1.8896,1.9355,1.9775,2.0215,2.0439,2.0566,2.0566,2.0566,2.0566,2.0566,2.0566,2.0566,2.0566,2.0566,2.0082,1.8586,0.0,1.937,1.6961,1.6793,1.661,1.5816,1.4734,1.4088,1.4088,1.4088,1.4088,1.4088,1.4088,1.3737,1.3027,1.2339,1.1113,0.9363,0.88,0.7902,0.6536,0.6437,0.639,0.639,0.639,0.642,0.6474,0.6159,0.6056,0.623,0.58,0.5692,0.5797,0.5797,0.5797,0.5797,0.5797,0.5354,0.4732,0.4732,0.4283,0.357,2.5742,2.5742,2.5742,2.5742,2.5742,2.5742,2.5742,2.5742,2.5625,2.5322,2.5156,2.4795,2.4062,2.3867,2.3613,2.3174,2.3135,2.3135,2.3135,2.3135,2.3135,2.3135,2.2861,2.2646,2.2519,2.1807,2.1367,2.123,2.0781,2.0566,2.0566,2.0566,2.0566,2.0566,2.0566,2.0566,2.0566,2.0566,2.0566,2.0527,2.0088,1.9746,1.9424,1.8857,1.8457,1.8193,1.8057,1.8008,1.8008,1.8008,1.8008,1.8008,1.8008,1.8008,1.8008,1.8008,1.8105,1.8369,1.9092,1.959,2.0019,2.0459,2.0566,2.0566,2.0566,2.0566,2.0566,2.0566,2.0566,2.0566,2.0566,2.0566,2.0426,1.9968,2.0282,2.0158,1.8922,1.8252,1.7415,1.6355,1.522,1.4489,1.4166,1.4088,1.4088,1.4088,1.4088,1.3561,1.2328,1.1209,1.0029,0.8785,0.8781,0.8126,0.6841,0.6644,0.6546,0.6546,0.6546,0.6569,0.662,0.6725,0.6854,0.6997,0.6997,0.7051,0.7139,0.7139,0.7139,0.7139,0.7139,0.6605,0.5894,0.5894,0.5445,0.4727,2.5742,2.5742,2.5742,2.5742,2.5742,2.5742,2.5742,2.5742,2.5742,2.5742,2.5352,2.4912,2.4473,2.4043,2.3623,2.3184,2.3135,2.3135,2.3135,2.3135,2.3135,2.3135,2.3135,2.2939,2.2519,2.2109,2.168,2.124,2.0791,2.0566,2.0566,2.0566,2.0566,2.0566,2.0566,2.0566,2.0566,2.0566,2.0566,2.0527,2.0088,1.9922,1.9824,1.8965,1.8643,1.8584,1.8164,1.8008,1.8008,1.8008,1.8008,1.8008,1.8008,1.8008,1.8008,1.8008,1.8301,1.873,1.917,1.959,2.0019,2.0459,2.0566,2.0566,2.0566,2.0566,2.0566,2.0566,2.0566,2.0566,2.0566,2.0566,2.0566,2.0566,2.0566,2.0566,2.0566,1.9678,1.8559,1.7423,1.6355,1.5304,1.4166,1.4088,1.4088,1.4088,1.4088,1.3555,1.2328,1.1209,1.0096,0.889,0.889,0.8277,0.7139,0.6848,0.6702,0.6702,0.6702,0.678,0.6929,0.6929,0.7007,0.7139,0.7139,0.7139,0.7139,0.7139,0.7139,0.7139,0.7139,0.7139,0.7139,0.7139,0.7139,0.7139,2.5742,2.5742,2.5742,2.5742,2.5742,2.5742,2.5742,2.5742,2.5742,2.5742,2.5625,2.5371,2.4922,2.4482,2.4053,2.3633,2.332,2.3135,2.3135,2.3135,2.3135,2.3135,2.3135,2.3076,2.2959,2.2539,2.2119,2.1689,2.125,2.0869,2.0566,2.0566,2.0566,2.0566,2.0566,2.0566,2.0566,2.0566,2.0566,2.0557,2.042,2.0185,1.9883,1.9629,1.916,1.8553,1.8496,1.8262,1.8008,1.8008,1.8008,1.8008,1.8008,1.8008,1.8008,1.8008,1.8301,1.873,1.917,1.959,2.0019,2.0459,2.0566,2.0566,2.0566,2.0566,2.0566,2.0566,2.0566,2.0566,2.0566,2.0566,2.0566,2.0566,2.0001,1.9756,2.0479,1.8372,1.6846,1.7253,1.5718,1.4489,1.4166,1.4088,1.4088,1.4088,1.3294,1.2334,1.1209,1.0009,0.8886,0.7665,0.7665,0.7489,0.7139,0.6953,0.6861,0.6861,0.6861,0.6885,0.6932,0.7031,0.7099,0.7139,0.7139,0.7139,0.7139,0.7139,0.7139,0.7139,0.7139,0.7139,0.7139,0.7139,0.7139,0.7139,2.5742,2.5742,2.5742,2.5742,2.5742,2.5742,2.5742,2.5742,2.5742,2.5742,2.5742,2.5566,2.5117,2.4678,2.4248,2.3828,2.3389,2.3135,2.3135,2.3135,2.3135,2.3135,2.3135,2.3135,2.3135,2.2734,2.2305,2.1885,2.1445,2.1006,2.0566,2.0566,2.0566,2.0566,2.0566,2.0566,2.0566,2.0566,2.0566,2.0566,2.0566,2.041,2.0156,1.998,1.959,1.9092,1.8689,1.8467,1.8232,1.8066,1.8008,1.8008,1.8008,1.8008,1.8008,1.8008,1.8301,1.873,1.917,1.959,2.0019,2.0459,2.0566,2.0566,2.0566,2.0566,2.0566,2.0566,2.0566,2.0566,2.0566,2.0566,2.0566,2.0566,2.0079,1.9678,1.9923,1.8301,1.6919,1.6683,1.5545,1.4573,1.4173,1.4088,1.4088,1.4088,1.2942,1.198,1.1295,0.9753,0.854,0.7841,0.7312,0.7139,0.7139,0.7054,0.701,0.701,0.701,0.701,0.7014,0.7102,0.7139,0.7139,0.7139,0.7139,0.7139,0.7139,0.7139,0.7139,0.7139,0.7139,0.7139,0.7139,0.7139,0.7139,2.5742,2.5742,2.5742,2.5742,2.5742,2.5742,2.5742,2.5742,2.5742,2.5742,2.5742,2.5586,2.5176,2.4736,2.4307,2.3887,2.3408,2.3135,2.3135,2.3135,2.3135,2.3135,2.3135,2.3135,2.3135,2.2764,2.2363,2.1943,2.1504,2.1064,2.0625,2.0586,2.0566,2.0566,2.0566,2.0566,2.0566,2.0566,2.0566,2.0566,2.0566,2.0566,2.0518,2.0127,1.9951,1.9814,1.9033,1.8701,1.8574,1.8154,1.8008,1.8008,1.8008,1.8008,1.8008,1.8008,1.833,1.8779,1.918,1.9619,2.0068,2.0469,2.0566,2.0566,2.0566,2.0566,2.0566,2.0566,2.0566,2.0566,2.0566,2.0566,2.0566,2.0566,2.0489,2.0167,1.9283,1.8877,1.798,1.6108,1.5703,1.5137,1.4166,1.4088,1.4088,1.4088,1.3118,1.2413,1.2328,1.0351,0.9148,0.889,0.7841,0.7228,0.7139,0.7139,0.7139,0.7139,0.7139,0.7139,0.7139,0.7139,0.7139,0.7139,0.7139,0.7139,0.7139,0.7139,0.7139,0.7139,0.7139,0.7139,0.7139,0.7139,0.7139,0.7139,2.5742,2.5742,2.5742,2.5742,2.5742,2.5742,2.5742,2.5742,2.5742,2.5742,2.5742,2.5703,2.5605,2.5195,2.4756,2.4316,2.3584,2.3135,2.3135,2.3135,2.3135,2.3135,2.3135,2.3135,2.3135,2.3047,2.2793,2.2373,2.1953,2.1523,2.1084,2.0732,2.0566,2.0566,2.0566,2.0566,2.0566,2.0566,2.0566,2.0566,2.0566,2.0566,2.0557,2.0459,2.0215,1.9893,1.9707,1.9209,1.8574,1.8154,1.8008,1.8008,1.8008,1.8008,1.8008,1.8008,1.8555,1.917,1.9268,1.9844,2.0449,2.0537,2.0566,2.0566,2.0566,2.0566,2.0566,2.0566,2.0566,2.0566,2.0566,2.0566,2.0566,2.0566,1.9923,1.952,2.0167,1.8052,1.6519,1.6927,1.547,1.4328,1.4088,1.4088,1.4088,1.4088,1.3822,1.3294,1.2328,1.1809,1.0783,0.8978,0.8627,0.8017,0.7139,0.7139,0.7139,0.7139,0.7139,0.7139,0.7139,0.7139,0.7139,0.7139,0.7139,0.7139,0.7139,0.7139,0.7139,0.7139,0.7139,0.7139,0.7139,0.7139,0.7139,0.7139,2.5781,2.5742,2.5742,2.5742,2.5742,2.5742,2.5742,2.5742,2.5742,2.5742,2.5742,2.5742,2.5742,2.5332,2.4814,2.417,2.3711,2.3359,2.3154,2.3135,2.3135,2.3135,2.3135,2.3135,2.3135,2.3135,2.293,2.251,2.209,2.166,2.1221,2.0781,2.0566,2.0566,2.0566,2.0566,2.0566,2.0566,2.0566,2.0566,2.0566,2.0566,2.0566,2.0566,2.042,2.0195,1.999,1.9365,1.8603,1.8379,1.8174,1.8008,1.8008,1.8008,1.8008,1.8008,1.8613,1.9287,1.9287,1.9912,2.0566,2.0566,2.0566,2.0566,2.0566,2.0566,2.0566,2.0566,2.0566,2.0566,2.0566,2.0566,2.0566,2.0566,2.0167,1.9766,1.9844,1.79,1.6519,1.6519,1.5061,1.4088,1.4088,1.4088,1.4088,1.4088,1.4088,1.3822,1.3203,1.2589,1.1724,1.0524,1.0009,0.9144,0.7929,0.7929,0.7665,0.7139,0.7139,0.7139,0.7139,0.7139,0.7139,0.7139,0.7139,0.7139,0.7139,0.7139,0.7139,0.7139,0.7139,0.7139,0.7139,0.7139,0.7139,0.7139,2.5918,2.5791,2.5742,2.5742,2.5742,2.5742,2.5742,2.5742,2.5742,2.5742,2.5742,2.5742,2.5742,2.5332,2.4756,2.3965,2.3828,2.3603,2.3164,2.3135,2.3135,2.3135,2.3135,2.3135,2.3135,2.3135,2.2969,2.2617,2.2197,2.1768,2.1338,2.0889,2.0635,2.0566,2.0566,2.0566,2.0566,2.0566,2.0566,2.0566,2.0566,2.0566,2.0566,2.0566,2.0566,2.0518,2.0156,1.9521,1.8848,1.8769,1.8467,1.8115,1.8115,1.8066,1.8008,1.8008,1.8564,1.9189,1.9268,1.9853,2.0469,2.0547,2.0566,2.0566,2.0566,2.0566,2.0566,2.0566,2.0566,2.0566,2.0566,2.0566,2.0566,2.0566,2.0566,2.0323,1.9362,1.8141,1.7009,1.6108,1.4894,1.4088,1.4088,1.4088,1.4088,1.4088,1.4088,1.4088,1.4088,1.3118,1.2498,1.2328,1.1381,1.0351,0.9235,0.9148,0.8623,0.7401,0.7401,0.7316,0.7139,0.7139,0.7139,0.7139,0.7139,0.7139,0.7139,0.7139,0.7139,0.7139,0.7139,0.7139,0.7139,0.7139,0.7139,0.7139,2.6309,2.5996,2.5742,2.5742,2.5742,2.5742,2.5742,2.5742,2.5742,2.5742,2.5742,2.5742,2.5742,2.5332,2.4863,2.4375,2.4004,2.3603,2.3164,2.3135,2.3135,2.3135,2.3135,2.3135,2.3135,2.3135,2.3105,2.3057,2.2637,2.2207,2.1787,2.1348,2.0937,2.0566,2.0566,2.0566,2.0566,2.0566,2.0566,2.0566,2.0566,2.0566,2.0566,2.0566,2.0566,2.0557,2.0498,2.0156,1.9687,1.9326,1.8906,1.8555,1.8555,1.8301,1.8008,1.8008,1.835,1.8809,1.9189,1.9639,2.0088,2.0469,2.0566,2.0566,2.0566,2.0566,2.0566,2.0566,2.0566,2.0566,2.0566,2.0566,2.0566,2.0566,2.0566,2.0566,2.0401,1.863,1.7253,1.709,1.5311,1.4088,1.4088,1.4088,1.4088,1.4088,1.4088,1.4088,1.4088,1.3913,1.3379,1.2328,1.2151,1.1552,1.0351,1.0351,0.9836,0.8627,0.8627,0.8105,0.7139,0.7139,0.7139,0.7139,0.7139,0.7139,0.7139,0.7139,0.7139,0.7139,0.7139,0.7139,0.7139,0.7139,0.7139,0.7139,2.6435,2.6035,2.5742,2.5742,2.5742,2.5742,2.5742,2.5742,2.5742,2.5742,2.5742,2.5742,2.5742,2.5557,2.5264,2.4814,2.4385,2.3955,2.3525,2.3271,2.3135,2.3135,2.3135,2.3135,2.3135,2.3135,2.3135,2.3135,2.2715,2.2412,2.2217,2.1553,2.1133,2.0928,2.0674,2.0566,2.0566,2.0566,2.0566,2.0566,2.0566,2.0566,2.0566,2.0566,2.0566,2.0566,2.0566,2.0283,1.9883,1.9697,1.9355,1.8955,1.8711,1.8516,1.8311,1.8076,1.8301,1.873,1.917,1.959,2.0019,2.0459,2.0566,2.0566,2.0566,2.0566,2.0566,2.0566,2.0566,2.0566,2.0566,2.0566,2.0566,2.0566,2.0566,2.0566,2.0566,1.9274,1.7819,1.6519,1.5061,1.4088,1.4088,1.4088,1.4088,1.4088,1.4088,1.4088,1.4088,1.4088,1.3822,1.3294,1.3294,1.2772,1.1552,1.1552,1.0956,0.9836,0.9836,0.9231,0.8101,0.7401,0.7492,0.8101,0.7401,0.7139,0.7139,0.7139,0.7139,0.7139,0.7139,0.7139,0.7139,0.7139,0.7139,0.7139]}]]